[[{"header":{"parameterUnit":"m.s-1","parameterCategory":1,"la1":31.0,"la2":29.5877,"lo1":-88.7671,"lo2":-86.6584,"dy":0.0162,"dx":0.0185,"nx":115,"ny":88,"refTime":"2023-06-23T12:00:00:Z","depth":0,"parameterNumber":2,"parameterNumberName":"U-component_of_WINDS"},"data":[0.0,0.0,0.0,0.0,0.0,0.0,0.0,0.0,0.0,0.0,0.0,0.0,0.0,0.0,0.0,0.0,0.0,0.0,0.0,0.0,0.0,0.0,0.0,0.0,0.0,0.0,0.0,0.0,0.0,0.0,0.0,0.0,0.0,0.0,0.0,0.0,0.0,0.0,0.0,0.0,0.0,0.0,0.0,0.0,0.0,0.0,0.0,0.0,0.0,0.0,0.0,0.0,0.0,0.0,0.0,0.0,0.0,0.0,0.0,0.0,0.0,0.0,0.0,0.0,0.0,0.0,0.0,0.0,0.0,0.0,0.0,0.0,0.0,0.0,0.0,0.0,0.0,0.0,0.0,0.0,0.0,0.0,0.0,0.0,0.0,0.0,0.0,0.0,0.0,0.0,0.0,0.0,0.0,0.0,0.0,0.0,0.0,0.0,0.0,0.0,0.0,0.0,0.0,0.0,0.0,0.0,0.0,0.0,0.0,0.0,0.0,0.0,0.0,0.0,0.0,0.0,0.0,0.0,0.0,0.0,0.0,0.0,0.0,0.0,0.0,0.0,0.0,0.0,0.0,0.0,0.0,0.0,0.0,0.0,0.0,0.0,0.0,0.0,0.0,0.0,0.0,0.0,0.0,0.0,0.0,0.0,0.0,0.0,0.0,0.0,0.0,0.0,0.0,0.0,0.0,0.0,0.0,0.0,0.0,0.0,0.0,0.0,0.0,0.0,0.0,0.0,0.0,0.0,0.0,0.0,0.0,0.0,0.0,0.0,0.0,0.0,0.0,0.0,0.0,0.0,0.0,0.0,0.0,0.0,0.0,0.0,0.0,0.0,0.0,0.0,0.0,0.0,0.0,0.0,0.0,0.0,0.0,0.0,0.0,0.0,0.0,0.0,0.0,0.0,0.0,0.0,0.0,0.0,0.0,0.0,0.0,0.0,0.0,0.0,0.0,0.0,0.0,0.0,0.0,0.0,0.0,0.0,0.0,0.0,0.0,0.0,0.0,0.0,0.0,0.0,0.0,0.0,0.0,0.0,0.0,0.0,0.0,0.0,0.0,0.0,0.0,0.0,0.0,0.0,0.0,0.0,0.0,0.0,0.0,0.0,0.0,0.0,0.0,0.0,0.0,0.0,0.0,0.0,0.0,0.0,0.0,0.0,0.0,0.0,0.0,0.0,0.0,0.0,0.0,0.0,0.0,0.0,0.0,0.0,0.0,0.0,0.0,0.0,0.0,0.0,0.0,0.0,0.0,0.0,0.0,0.0,0.0,0.0,0.0,0.0,0.0,0.0,0.0,0.0,0.0,0.0,0.0,0.0,0.0,0.0,0.0,0.0,0.0,0.0,0.0,0.0,0.0,0.0,0.0,0.0,0.0,0.0,0.0,0.0,0.0,0.0,0.0,0.0,0.0,0.0,0.0,0.0,0.0,0.0,0.0,0.0,0.0,0.0,0.0,0.0,0.0,0.0,0.0,0.0,0.0,0.0,0.0,0.0,0.0,0.0,0.0,0.0,0.0,0.0,0.0,0.0,0.0,0.0,0.0,0.0,0.0,0.0,0.0,0.0,0.0,0.0,0.0,0.0,0.0,0.0,0.0,0.0,0.0,0.0,0.0,0.0,0.0,0.0,0.0,0.0,0.0,0.0,0.0,0.0,0.0,0.0,0.0,0.0,0.0,0.0,0.0,0.0,0.0,0.0,0.0,0.0,0.0,0.0,0.0,0.0,0.0,0.0,0.0,0.0,0.0,0.0,0.0,0.0,0.0,0.0,0.0,0.0,0.0,0.0,0.0,0.0,0.0,0.0,0.0,0.0,0.0,0.0,0.0,0.0,0.0,0.0,0.0,0.0,0.0,0.0,0.0,0.0,0.0,0.0,0.0,0.0,0.0,0.0,0.0,0.0,0.0,0.0,0.0,0.0,0.0,0.0,0.0,0.0,0.0,0.0,0.0,0.0,0.0,0.0,0.0,0.0,0.0,0.0,0.0,0.0,0.0,0.0,0.0,0.0,0.0,0.0,0.0,0.0,0.0,0.0,0.0,0.0,0.0,0.0,0.0,0.0,0.0,0.0,0.0,0.0,0.0,0.0,0.0,0.0,0.0,0.0,0.0,0.0,0.0,0.0,0.0,0.0,0.0,0.0,0.0,0.0,0.0,0.0,0.0,0.0,0.0,0.0,0.0,0.0,0.0,0.0,0.0,0.0,0.0,0.0,0.0,0.0,0.0,0.0,0.0,0.0,0.0,0.0,0.0,0.0,0.0,0.0,0.0,0.0,0.0,0.0,0.0,0.0,0.0,0.0,0.0,0.0,0.0,0.0,0.0,0.0,0.0,0.0,0.0,0.0,0.0,0.0,0.0,0.0,0.0,0.0,0.0,0.0,0.0,0.0,0.0,0.0,0.0,0.0,0.0,0.0,0.0,0.0,0.0,0.0,0.0,0.0,0.0,0.0,0.0,0.0,0.0,0.0,0.0,0.0,0.0,0.0,0.0,0.0,0.0,0.0,0.0,0.0,0.0,0.0,0.0,0.0,0.0,0.0,0.0,0.0,0.0,0.0,0.0,0.0,0.0,0.0,0.0,0.0,0.0,0.0,0.0,0.0,0.0,0.0,0.0,0.0,0.0,0.0,0.0,0.0,0.0,0.0,0.0,0.0,0.0,0.0,0.0,0.0,0.0,0.0,0.0,0.0,0.0,0.0,0.0,0.0,0.0,0.0,0.0,0.0,0.0,0.0,0.0,0.0,0.0,0.0,0.0,0.0,0.0,0.0,0.0,0.0,0.0,0.0,0.0,0.0,0.0,0.0,0.0,0.0,0.0,0.0,0.0,0.0,0.0,0.0,0.0,0.0,0.0,0.0,0.0,0.0,0.0,0.0,0.0,0.0,0.0,0.0,0.0,0.0,0.0,0.0,0.0,0.0,0.0,0.0,0.0,0.0,0.0,0.0,0.0,0.0,0.0,0.0,0.0,0.0,0.0,0.0,0.0,0.0,0.0,0.0,0.0,0.0,0.0,0.0,0.0,0.0,0.0,0.0,0.0,0.0,0.0,0.0,0.0,0.0,0.0,0.0,0.0,0.0,0.0,0.0,0.0,0.0,0.0,0.0,0.0,0.0,0.0,0.0,0.0,0.0,0.0,0.0,0.0,0.0,0.0,0.0,0.0,0.0,0.0,0.0,0.0,0.0,0.0,0.0,0.0,0.0,0.0,0.0,0.0,0.0,0.0,0.0,0.0,0.0,0.0,0.0,0.0,0.0,0.0,0.0,0.0,0.0,0.0,0.0,0.0,0.0,0.0,0.0,0.0,0.0,0.0,0.0,0.0,0.0,0.0,0.0,0.0,0.0,0.0,0.0,0.0,0.0,0.0,0.0,0.0,0.0,0.0,0.0,0.0,0.0,0.0,0.0,0.0,0.0,0.0,0.0,0.0,0.0,0.0,0.0,0.0,0.0,0.0,0.0,0.0,0.0,0.0,0.0,0.0,0.0,0.0,0.0,0.0,0.0,0.0,0.0,0.0,0.0,0.0,0.0,0.0,0.0,0.0,0.0,0.0,0.0,0.0,0.0,0.0,0.0,0.0,0.0,0.0,0.0,0.0,0.0,0.0,0.0,0.0,0.0,0.0,0.0,0.0,0.0,0.0,0.0,0.0,0.0,0.0,0.0,0.0,0.0,0.0,0.0,0.0,0.0,0.0,0.0,0.0,0.0,0.0,0.0,0.0,0.0,0.0,0.0,0.0,0.0,0.0,0.0,0.0,0.0,0.0,0.0,0.0,0.0,0.0,0.0,0.0,0.0,0.0,0.0,0.0,0.0,0.0,0.0,0.0,0.0,0.0,0.0,0.0,0.0,0.0,0.0,0.0,0.0,0.0,0.0,0.0,0.0,0.0,0.0,0.0,0.0,0.0,0.0,0.0,0.0,0.0,0.0,0.0,0.0,0.0,0.0,0.0,0.0,0.0,0.0,0.0,0.0,0.0,0.0,0.0,0.0,0.0,0.0,0.0,0.0,0.0,0.0,0.0,0.0,0.0,0.0,0.0,0.0,0.0,0.0,0.0,0.0,0.0,0.0,0.0,0.0,0.0,0.0,0.0,0.0,0.0,0.0,0.0,0.0,0.0,0.0,0.0,0.0,0.0,0.0,0.0,0.0,0.0,0.0,0.0,0.0,0.0,0.0,0.0,0.0,0.0,0.0,0.0,0.0,0.0,0.0,0.0,0.0,0.0,0.0,0.0,0.0,0.0,0.0,0.0,0.0,0.0,0.0,0.0,0.0,-1.0681,0.0,0.0,0.0,0.0,0.0,0.0,0.0,0.0,0.0,0.0,0.0,0.0,0.0,0.0,0.0,0.0,0.0,0.0,0.0,0.0,0.0,0.0,0.0,0.0,0.0,0.0,0.0,0.0,0.0,0.0,0.0,0.0,0.0,0.0,0.0,0.0,0.0,0.0,0.0,0.0,0.0,0.0,0.0,0.0,0.0,0.0,0.0,0.0,0.0,0.0,0.0,0.0,0.0,0.0,0.0,0.0,0.0,0.0,0.0,0.0,0.0,0.0,0.0,0.0,0.0,0.0,0.0,0.0,0.0,0.0,0.0,0.0,0.0,0.0,0.0,0.0,0.0,0.0,0.0,0.0,0.0,0.0,0.0,0.0,0.0,0.0,0.0,0.0,0.0,0.0,0.0,0.0,0.0,0.0,0.0,0.0,0.0,0.0,0.0,0.0,0.0,0.0,0.0,0.0,0.0,0.0,0.0,0.0,0.0,0.0,-0.5345,-0.7126,-0.8425,-0.9586,-1.0651,0.0,0.0,0.0,0.0,0.0,0.0,0.0,0.0,0.0,0.0,0.0,0.0,0.0,0.0,0.0,0.0,0.0,0.0,0.0,0.0,0.0,0.0,0.0,0.0,0.0,0.0,0.0,0.0,0.0,0.0,0.0,0.0,0.0,0.0,0.0,0.0,0.0,0.0,0.0,0.0,0.0,0.0,0.0,0.0,0.0,0.0,0.0,0.0,0.0,0.0,0.0,0.0,0.0,0.0,0.0,0.0,0.0,0.0,0.0,0.0,0.0,0.0,0.0,0.0,0.0,0.0,0.0,0.0,0.0,0.0,0.0,0.0,0.0,0.0,0.0,0.0,0.0,0.0,0.0,0.0,0.0,0.0,0.0,0.0,0.0,0.0,0.0,0.0,0.0,0.0,0.0,0.0,0.0,0.0,0.0,0.0,0.0,0.0,0.0,0.0,0.0,0.0,0.0,0.0,0.0,0.0,0.0,0.0,0.0,0.0,0.0,0.0,-0.8325,-0.9431,-1.0558,0.0,0.0,0.0,0.0,0.0,0.0,0.0,0.0,0.0,0.0,0.0,0.0,0.0,0.0,0.0,0.0,0.0,0.0,0.0,0.0,0.0,0.0,0.0,0.0,0.0,0.0,0.0,0.0,0.0,0.0,0.0,0.0,0.0,0.0,0.0,0.0,0.0,0.0,0.0,0.0,0.0,0.0,0.0,0.0,0.0,0.0,0.0,0.0,0.0,0.0,0.0,0.0,0.0,0.0,0.0,0.0,0.0,0.0,0.0,0.0,0.0,0.0,0.0,0.0,0.0,0.0,0.0,0.0,0.0,0.0,0.0,0.0,0.0,0.0,0.0,0.0,0.0,0.0,0.0,0.0,0.0,0.0,0.0,0.0,0.0,0.0,0.0,0.0,0.0,0.0,0.0,0.0,0.0,0.0,0.0,0.0,0.0,0.0,0.0,0.0,0.0,0.0,0.0,0.0,0.0,0.0,0.0,0.0,0.0,0.0,-0.6149,-0.7602,-0.8709,0.0,-1.0269,0.0,0.0,0.0,0.0,0.0,0.0,0.0,0.0,0.0,0.0,0.0,0.0,0.0,0.0,0.0,0.0,0.0,0.0,0.0,0.0,0.0,0.0,0.0,0.0,0.0,0.0,0.0,0.0,0.0,0.0,0.0,0.0,0.0,0.0,0.0,0.0,0.0,0.0,0.0,0.0,0.0,0.0,0.0,0.0,0.0,0.0,0.0,0.0,0.0,0.0,0.0,0.0,0.0,0.0,0.0,0.0,0.0,0.0,0.0,0.0,0.0,0.0,0.0,0.0,0.0,0.0,0.0,0.0,0.0,0.0,0.0,0.0,0.0,0.0,0.0,0.0,0.0,0.0,0.0,0.0,0.0,0.0,0.0,0.0,0.0,0.0,0.0,0.0,0.0,0.0,0.0,0.0,0.0,0.0,0.0,0.0,0.0,0.0,0.0,0.0,0.0,0.0,0.0,0.0,0.0,0.0,0.0,0.0,0.0,0.0,-0.5878,-0.7026,-0.8619,-0.9631,0.0,0.0,0.0,0.0,0.0,0.0,0.0,0.0,0.0,0.0,0.0,0.0,0.0,0.0,0.0,0.0,0.0,0.0,0.0,0.0,0.0,0.0,0.0,0.0,0.0,0.0,0.0,0.0,0.0,0.0,0.0,0.0,0.0,0.0,0.0,0.0,0.0,0.0,0.0,0.0,0.0,0.0,0.0,0.0,0.0,0.0,0.0,0.0,0.0,0.0,0.0,0.0,0.0,0.0,0.0,0.0,0.0,0.0,0.0,0.0,0.0,0.0,0.0,0.0,0.0,0.0,0.0,0.0,0.0,0.0,0.0,0.0,0.0,0.0,0.0,0.0,0.0,0.0,0.0,0.0,0.0,0.0,0.0,0.0,0.0,0.0,0.0,0.0,0.0,0.0,0.0,0.0,0.0,0.0,0.0,0.0,0.0,0.0,0.0,0.0,0.0,0.0,0.0,0.0,0.0,0.0,0.0,0.0,0.0,0.0,-0.4711,-0.5933,-0.7108,-0.8716,-0.9627,-0.9748,0.0,0.0,0.0,0.0,0.0,0.0,0.0,0.0,0.0,0.0,0.0,0.0,0.0,0.0,0.0,0.0,0.0,0.0,0.0,0.0,0.0,0.0,0.0,0.0,0.0,0.0,0.0,0.0,0.0,0.0,0.0,0.0,0.0,0.0,0.0,0.0,0.0,0.0,0.0,0.0,0.0,0.0,0.0,0.0,0.0,0.0,0.0,0.0,0.0,0.0,0.0,0.0,0.0,0.0,0.0,0.0,0.0,0.0,0.0,0.0,0.0,0.0,0.0,0.0,0.0,0.0,0.0,0.0,0.0,0.0,0.0,0.0,0.0,0.0,0.0,0.0,0.0,0.0,0.0,0.0,0.0,0.0,0.0,0.0,0.0,0.0,0.0,0.0,0.0,0.0,0.0,0.0,0.0,0.0,0.0,0.0,0.0,0.0,0.0,0.0,0.0,0.0,0.0,0.0,0.0,0.0,0.0,0.0,-0.423,-0.518,-0.6547,-0.831,-0.9124,-0.9549,0.0,0.0,0.0,0.0,0.0,0.0,0.0,0.0,0.0,0.0,0.0,0.0,0.0,0.0,0.0,0.0,0.0,0.0,0.0,0.0,0.0,0.0,0.0,0.0,0.0,0.0,0.0,0.0,0.0,0.0,0.0,0.0,0.0,0.0,0.0,0.0,0.0,0.0,0.0,0.0,0.0,0.0,0.0,0.0,0.0,0.0,0.0,0.0,0.0,0.0,0.0,0.0,0.0,0.0,0.0,0.0,0.0,0.0,0.0,0.0,0.0,0.0,0.0,0.0,0.0,0.0,0.0,0.0,0.0,0.0,0.0,0.0,0.0,0.0,0.0,0.0,0.0,0.0,0.0,0.0,0.0,0.0,0.0,0.0,0.0,0.0,0.0,0.0,0.0,0.0,0.0,0.0,0.0,0.0,0.0,0.0,0.0,0.0,0.0,0.0,0.0,0.0,0.0,0.0,0.0,0.0,0.0,0.0,0.0,-0.464,-0.585,-0.7107,-0.8275,-0.8814,-0.9136,0.0,0.0,0.0,0.0,0.0,0.0,0.0,0.0,0.0,0.0,0.0,0.0,0.0,0.0,0.0,0.0,0.0,0.0,0.0,0.0,0.0,0.0,0.0,0.0,0.0,0.0,0.0,0.0,0.0,0.0,0.0,0.0,0.0,0.0,0.0,0.0,0.0,0.0,0.0,0.0,0.0,0.0,0.0,0.0,0.0,0.0,0.0,0.0,0.0,0.0,0.0,0.0,0.0,0.0,0.0,0.0,0.0,0.0,0.0,0.0,0.0,0.0,0.0,0.0,0.0,0.0,0.0,0.0,0.0,0.0,0.0,0.0,0.0,0.0,0.0,0.0,0.0,0.0,0.0,0.0,0.0,0.0,0.0,0.0,0.0,0.0,0.0,0.0,0.0,0.0,0.0,0.0,0.0,0.0,0.0,0.0,0.0,0.0,0.0,0.0,0.0,0.0,0.0,0.0,0.0,0.0,0.0,0.0,0.0,-0.5251,0.0,-0.7321,-0.8002,-0.8496,-0.8895,0.0,0.0,0.0,0.0,0.0,0.0,0.0,0.0,0.0,0.0,0.0,0.0,0.0,0.0,0.0,0.0,0.0,0.0,0.0,0.0,0.0,0.0,0.0,0.0,0.0,0.0,0.0,0.0,0.0,0.0,0.0,0.0,0.0,0.0,0.0,0.0,0.0,0.0,0.0,0.0,0.0,0.0,0.0,0.0,0.0,0.0,0.0,0.0,0.0,0.0,0.0,0.0,0.0,0.0,0.0,0.0,0.0,0.0,0.0,0.0,0.0,0.0,0.0,0.0,0.0,0.0,0.0,0.0,0.0,0.0,0.0,0.0,0.0,0.0,0.0,0.0,0.0,0.0,0.0,0.0,0.0,0.0,0.0,0.0,0.0,0.0,0.0,0.0,0.0,0.0,0.0,0.0,0.0,0.0,0.0,0.0,0.0,0.0,0.0,0.0,0.0,0.0,0.0,0.0,0.0,0.0,0.0,0.0,-0.5137,-0.6124,-0.6611,-0.7125,-0.767,-0.8316,-0.8846,0.0,0.0,0.0,0.0,0.0,0.0,0.0,0.0,0.0,0.0,0.0,0.0,0.0,0.0,0.0,0.0,0.0,0.0,0.0,0.0,0.0,0.0,0.0,0.0,0.0,0.0,0.0,0.0,0.0,0.0,0.0,0.0,0.0,0.0,0.0,0.0,0.0,0.0,0.0,0.0,0.0,0.0,0.0,0.0,0.0,0.0,0.0,0.0,0.0,0.0,0.0,0.0,0.0,0.0,0.0,0.0,0.0,0.0,0.0,0.0,0.0,0.0,0.0,0.0,0.0,0.0,0.0,0.0,0.0,0.0,0.0,0.0,0.0,0.0,0.0,0.0,0.0,0.0,0.0,0.0,0.0,0.0,0.0,0.0,0.0,0.0,0.0,0.0,0.0,0.0,0.0,0.0,0.0,0.0,0.0,0.0,0.0,0.0,0.0,0.0,0.0,0.0,0.0,0.0,0.0,0.0,0.0,0.0,0.0,-0.5916,-0.6173,-0.6507,-0.7056,-0.7807,-0.8423,0.0,0.0,0.0,0.0,0.0,0.0,0.0,0.0,0.0,0.0,0.0,0.0,0.0,0.0,0.0,0.0,0.0,0.0,0.0,0.0,0.0,0.0,0.0,0.0,0.0,0.0,0.0,0.0,0.0,0.0,0.0,0.0,0.0,0.0,0.0,0.0,0.0,0.0,0.0,0.0,0.0,0.0,0.0,0.0,0.0,0.0,0.0,0.0,0.0,0.0,0.0,0.0,0.0,0.0,0.0,0.0,0.0,0.0,0.0,0.0,0.0,0.0,0.0,0.0,0.0,0.0,0.0,0.0,0.0,0.0,0.0,0.0,0.0,0.0,0.0,0.0,0.0,0.0,0.0,0.0,0.0,0.0,0.0,0.0,0.0,0.0,0.0,0.0,0.0,0.0,0.0,0.0,0.0,0.0,0.0,0.0,0.0,0.0,0.0,0.0,0.0,0.0,0.0,0.0,0.0,0.0,0.0,0.0,0.0,-0.483,-0.5331,-0.5815,-0.6228,-0.7094,-0.7903,-0.8529,0.0,0.0,0.0,0.0,0.0,0.0,0.0,0.0,0.0,0.0,0.0,0.0,0.0,0.0,0.0,0.0,0.0,0.0,0.0,0.0,0.0,0.0,0.0,0.0,0.0,0.0,0.0,0.0,0.0,0.0,0.0,0.0,0.0,0.0,0.0,0.0,0.0,0.0,0.0,0.0,0.0,0.0,0.0,0.0,0.0,0.0,0.0,0.0,0.0,0.0,0.0,0.0,0.0,0.0,0.0,0.0,0.0,0.0,0.0,0.0,0.0,0.0,0.0,0.0,0.0,0.0,0.0,0.0,0.0,0.0,0.0,0.0,0.0,0.0,0.0,0.0,0.0,0.0,0.0,0.0,0.0,0.0,0.0,0.0,0.0,0.0,0.0,0.0,0.0,0.0,0.0,0.0,0.0,0.0,0.0,0.0,0.0,0.0,0.0,0.0,0.0,0.0,0.0,0.0,0.0,0.0,0.0,0.0,-0.3004,-0.4051,-0.4765,-0.5159,-0.6219,-0.7194,0.0,0.0,0.0,0.0,0.0,0.0,0.0,0.0,0.0,0.0,0.0,0.0,0.0,0.0,0.0,0.0,0.0,0.0,0.0,0.0,0.0,0.0,0.0,0.0,0.0,0.0,0.0,0.0,0.0,0.0,0.0,0.0,0.0,0.0,0.0,0.0,0.0,0.0,0.0,0.0,0.0,0.0,0.0,0.0,0.0,0.0,0.0,0.0,0.0,0.0,0.0,0.0,0.0,0.0,0.0,0.0,0.0,0.0,0.0,0.0,0.0,0.0,0.0,0.0,0.0,0.0,0.0,0.0,0.0,0.0,0.0,0.0,0.0,0.0,0.0,0.0,0.0,0.0,0.0,0.0,0.0,0.0,0.0,0.0,0.0,0.0,0.0,0.0,0.0,0.0,0.0,0.0,0.0,0.0,0.0,0.0,0.0,0.0,0.0,0.0,0.0,0.0,0.0,0.0,0.0,0.0,0.0,0.0,0.0,-0.1453,-0.1207,-0.1852,-0.3471,-0.4788,-0.6078,0.0,0.0,0.0,0.0,0.0,0.0,0.0,0.0,0.0,0.0,0.0,0.0,0.0,0.0,0.0,0.0,0.0,0.0,0.0,0.0,0.0,0.0,0.0,0.0,0.0,0.0,0.0,0.0,0.0,0.0,0.0,0.0,0.0,0.0,0.0,0.0,0.0,0.0,0.0,0.0,0.0,0.0,0.0,0.0,0.0,0.0,0.0,0.0,0.0,0.0,0.0,0.0,0.0,0.0,0.0,0.0,0.0,0.0,0.0,0.0,0.0,0.0,0.0,0.0,0.0,0.0,0.0,0.0,0.0,0.0,0.0,0.0,0.0,0.0,0.0,0.0,0.0,0.0,0.0,0.0,0.0,0.0,0.0,0.0,0.0,0.0,0.0,0.0,0.0,0.0,0.0,0.0,0.0,0.0,0.0,0.0,0.0,0.0,0.0,0.0,0.0,0.0,0.0,0.0,0.0,0.0,0.0,0.0,-0.218,-0.024,0.0641,0.0506,-0.0728,-0.2748,-0.4557,0.0,0.0,0.0,0.0,0.0,0.0,0.0,0.0,0.0,0.0,0.0,0.0,0.0,0.0,0.0,0.0,0.0,0.0,0.0,0.0,0.0,0.0,0.0,0.0,0.0,0.0,0.0,0.0,0.0,0.0,0.0,0.0,0.0,0.0,0.0,0.0,0.0,0.0,0.0,0.0,0.0,0.0,0.0,0.0,0.0,0.0,0.0,0.0,0.0,0.0,0.0,0.0,0.0,0.0,0.0,0.0,0.0,0.0,0.0,0.0,0.0,0.0,0.0,0.0,0.0,0.0,0.0,0.0,0.0,0.0,0.0,0.0,0.0,0.0,0.0,0.0,0.0,0.0,0.0,0.0,0.0,0.0,0.0,0.0,0.0,0.0,0.0,0.0,0.0,0.0,0.0,0.0,0.0,0.0,0.0,0.0,0.0,0.0,0.0,0.0,0.0,0.0,0.0,0.0,0.0,0.0,0.0,0.0,-0.1568,0.0594,0.1754,0.2341,0.2268,-0.048,-0.288,0.0,0.0,0.0,0.0,0.0,0.0,0.0,0.0,0.0,0.0,0.0,0.0,0.0,0.0,0.0,0.0,0.0,0.0,0.0,0.0,0.0,0.0,0.0,0.0,0.0,0.0,0.0,0.0,0.0,0.0,0.0,0.0,0.0,0.0,0.0,0.0,0.0,0.0,0.0,0.0,0.0,0.0,0.0,0.0,0.0,0.0,0.0,0.0,0.0,0.0,0.0,0.0,0.0,0.0,0.0,0.0,0.0,0.0,0.0,0.0,0.0,0.0,0.0,0.0,0.0,0.0,0.0,0.0,0.0,0.0,0.0,0.0,0.0,0.0,0.0,0.0,0.0,0.0,0.0,0.0,0.0,0.0,0.0,0.0,0.0,0.0,0.0,0.0,0.0,0.0,0.0,0.0,0.0,0.0,0.0,0.0,0.0,0.0,0.0,0.0,0.0,0.0,0.0,0.0,0.0,0.0,0.0,0.0,-0.1277,0.1043,0.2415,0.3151,0.3284,0.0657,-0.1859,0.0,0.0,0.0,0.0,0.0,0.0,0.0,0.0,0.0,0.0,0.0,0.0,0.0,0.0,0.0,0.0,0.0,0.0,0.0,0.0,0.0,0.0,0.0,0.0,0.0,0.0,0.0,0.0,0.0,0.0,0.0,0.0,0.0,0.0,0.0,0.0,0.0,0.0,0.0,0.0,0.0,0.0,0.0,0.0,0.0,0.0,0.0,0.0,-0.1628,0.0,0.0,0.0,0.0,0.0,0.0,0.0,0.0,0.0,0.0,0.0,0.0,0.0,0.0,0.0,0.0,0.0,0.0,0.0,0.0,0.0,0.0,0.0,0.0,0.0,0.0,0.0,0.0,0.0,0.0,0.0,0.0,0.0,0.0,0.0,0.0,0.0,0.0,0.0,0.0,0.0,0.0,0.0,0.0,0.0,0.0,0.0,0.0,0.0,0.0,0.0,0.0,0.0,0.0,0.0,0.0,0.0,0.0,0.0,-0.1012,0.1376,0.2665,0.3551,0.4009,0.1602,-0.0918,0.0,0.0,0.0,0.0,0.0,0.0,0.0,0.0,0.0,0.0,0.0,0.0,0.0,0.0,0.0,0.0,0.0,0.0,0.0,0.0,0.0,0.0,0.0,0.0,0.0,0.0,0.0,0.0,0.0,0.0,0.0,0.0,0.0,0.0,0.0,0.0,0.0,0.0,0.0,0.0,0.0,0.0,0.0,0.0,0.0,0.0,0.0,0.0,0.0,0.0,0.0,0.0,0.0,0.0,0.0,0.0,0.0,0.0,0.0,0.0,0.0,0.0,0.0,0.0,0.0,0.0,0.0,0.0,0.0,0.0,0.0,0.0,0.0,0.0,0.0,0.0,0.0,0.0,0.0,0.0,0.0,0.0,0.0,0.0,0.0,0.0,0.0,0.0,0.0,0.0,0.0,0.0,0.0,0.0,0.0,0.0,0.0,0.0,0.0,0.0,0.0,0.0,0.0,0.0,0.0,0.0,0.0,-0.318,-0.0936,0.1464,0.2599,0.352,0.4294,0.1992,-0.0434,-0.2925,0.0,0.0,0.0,0.0,0.0,0.0,0.0,0.0,0.0,0.0,0.0,0.0,0.0,0.0,0.0,0.0,0.0,0.0,0.0,0.0,0.0,0.0,0.0,0.0,0.0,0.0,0.0,0.0,0.0,0.0,0.0,0.0,0.0,0.0,0.0,0.0,0.0,0.0,-0.2349,-0.1922,0.0,0.0,0.0,0.0,0.0,0.0,0.0,0.0,-0.2627,0.0,0.0,0.0,0.0,0.0,0.0,0.0,0.0,0.0,0.0,0.0,0.0,0.0,0.0,0.0,0.0,0.0,0.0,0.0,0.0,0.0,0.0,0.0,0.0,0.0,0.0,0.0,0.0,0.0,0.0,0.0,0.0,0.0,0.0,0.0,0.0,0.0,0.0,0.0,0.0,0.0,0.0,0.0,0.0,0.0,0.0,0.0,0.0,0.0,0.0,0.0,0.0,0.0,0.0,0.0,0.0,-0.5116,-0.3348,-0.1349,0.0894,0.1906,0.2556,0.279,0.0998,-0.1087,-0.3346,0.0,0.0,0.0,0.0,0.0,0.0,0.0,0.0,0.0,0.0,0.0,0.0,0.0,0.0,0.0,0.0,0.0,0.0,0.0,0.0,0.0,0.0,0.0,0.0,0.0,0.0,0.0,0.0,0.0,0.0,0.0,0.0,0.0,0.0,0.0,0.0,0.0,0.0,0.0,-0.2617,-0.246,0.0,0.0,0.0,0.0,0.0,0.0,0.0,0.0,-0.3516,0.0,0.0,0.0,0.0,0.0,0.0,0.0,0.0,0.0,0.0,0.0,0.0,0.0,0.0,0.0,0.0,0.0,0.0,0.0,0.0,0.0,0.0,0.0,0.0,0.0,0.0,0.0,0.0,0.0,0.0,0.0,0.0,0.0,0.0,0.0,0.0,0.0,0.0,0.0,0.0,0.0,0.0,0.0,0.0,0.0,0.0,0.0,0.0,0.0,0.0,0.0,0.0,0.0,0.0,0.0,-0.5429,-0.4032,-0.2071,0.0325,0.1607,0.2074,0.1786,0.0167,-0.2067,0.0,0.0,0.0,0.0,0.0,0.0,0.0,0.0,0.0,0.0,0.0,0.0,0.0,0.0,0.0,0.0,0.0,0.0,0.0,0.0,0.0,0.0,0.0,0.0,0.0,0.0,0.0,0.0,0.0,0.0,0.0,0.0,0.0,0.0,0.0,0.0,0.0,0.0,0.0,0.0,-0.3241,-0.3188,-0.3188,0.0,0.0,0.0,0.0,0.0,0.0,-0.4184,-0.4405,0.0,0.0,0.0,0.0,0.0,0.0,0.0,0.0,0.0,0.0,0.0,0.0,0.0,0.0,0.0,0.0,0.0,0.0,0.0,0.0,0.0,0.0,0.0,0.0,0.0,0.0,0.0,0.0,0.0,0.0,0.0,0.0,0.0,0.0,0.0,0.0,0.0,0.0,0.0,0.0,0.0,0.0,0.0,0.0,0.0,0.0,0.0,0.0,0.0,0.0,0.0,0.0,0.0,0.0,0.0,-0.571,-0.4456,-0.2647,-0.0278,0.1119,0.1457,0.0894,-0.0667,-0.2943,0.0,0.0,0.0,0.0,0.0,0.0,0.0,0.0,0.0,0.0,0.0,0.0,0.0,0.0,0.0,0.0,0.0,0.0,0.0,0.0,0.0,0.0,0.0,0.0,0.0,0.0,0.0,0.0,0.0,0.0,0.0,0.0,0.0,0.0,0.0,0.0,0.0,0.0,0.0,0.0,0.0,-0.3858,-0.3965,-0.4021,0.0,0.0,0.0,0.0,-0.473,-0.5068,0.0,0.0,0.0,0.0,0.0,0.0,0.0,0.0,0.0,0.0,0.0,0.0,0.0,0.0,0.0,0.0,0.0,0.0,0.0,0.0,0.0,0.0,0.0,0.0,0.0,0.0,0.0,0.0,0.0,0.0,0.0,0.0,0.0,0.0,0.0,0.0,0.0,0.0,0.0,0.0,0.0,0.0,0.0,0.0,0.0,0.0,0.0,0.0,0.0,0.0,0.0,0.0,0.0,0.0,0.0,0.0,-0.556,-0.412,-0.2548,-0.0893,-0.0112,0.0168,-0.0168,-0.167,-0.3493,0.0,0.0,0.0,0.0,0.0,0.0,0.0,0.0,0.0,0.0,0.0,0.0,0.0,0.0,0.0,0.0,0.0,0.0,0.0,0.0,0.0,0.0,0.0,0.0,0.0,0.0,0.0,0.0,0.0,0.0,0.0,0.0,0.0,0.0,0.0,0.0,0.0,0.0,0.0,0.0,0.0,-0.4577,-0.4577,-0.4684,-0.4894,0.0,0.0,-0.569,-0.5584,-0.5813,0.0,0.0,0.0,0.0,0.0,0.0,0.0,0.0,0.0,0.0,0.0,0.0,0.0,0.0,0.0,0.0,0.0,0.0,0.0,0.0,0.0,0.0,0.0,0.0,0.0,0.0,0.0,0.0,0.0,0.0,0.0,0.0,0.0,0.0,0.0,0.0,0.0,0.0,0.0,0.0,0.0,0.0,0.0,0.0,0.0,0.0,0.0,0.0,0.0,0.0,0.0,0.0,0.0,0.0,0.0,-0.7829,-0.6053,-0.4562,-0.3053,-0.1562,-0.1008,-0.0896,-0.1118,-0.3012,-0.4537,0.0,0.0,0.0,0.0,0.0,0.0,0.0,0.0,0.0,0.0,0.0,0.0,0.0,0.0,0.0,0.0,0.0,0.0,0.0,0.0,0.0,0.0,0.0,0.0,0.0,0.0,0.0,0.0,0.0,0.0,0.0,0.0,0.0,0.0,0.0,0.0,0.0,0.0,0.0,0.0,0.0,0.0,-0.5442,-0.5637,0.0,0.0,0.0,-0.6533,-0.6538,0.0,0.0,0.0,0.0,0.0,0.0,0.0,0.0,0.0,0.0,0.0,0.0,0.0,0.0,0.0,0.0,0.0,0.0,0.0,0.0,0.0,0.0,0.0,0.0,0.0,0.0,0.0,0.0,0.0,0.0,0.0,0.0,0.0,0.0,0.0,0.0,0.0,0.0,0.0,0.0,0.0,0.0,0.0,0.0,0.0,0.0,0.0,0.0,0.0,0.0,0.0,0.0,0.0,0.0,0.0,0.0,0.0,-0.6573,-0.5148,-0.3666,-0.2228,-0.1734,-0.1793,-0.235,-0.391,0.0,0.0,0.0,0.0,0.0,0.0,0.0,0.0,0.0,0.0,0.0,0.0,0.0,0.0,0.0,0.0,0.0,0.0,0.0,0.0,0.0,0.0,0.0,0.0,0.0,0.0,0.0,-0.5464,0.0,0.0,0.0,0.0,0.0,0.0,0.0,0.0,0.0,0.0,0.0,0.0,0.0,0.0,-0.5793,-0.6187,-0.647,-0.6791,0.0,0.0,-0.7406,-0.7345,-0.7345,-0.7285,0.0,0.0,0.0,0.0,0.0,0.0,0.0,0.0,0.0,0.0,0.0,0.0,0.0,0.0,0.0,0.0,0.0,0.0,0.0,0.0,0.0,0.0,0.0,0.0,0.0,0.0,0.0,0.0,0.0,0.0,0.0,0.0,0.0,0.0,0.0,0.0,0.0,0.0,0.0,0.0,0.0,0.0,0.0,0.0,0.0,0.0,0.0,0.0,0.0,0.0,0.0,0.0,0.0,0.0,0.0,-0.7058,-0.5588,-0.4161,-0.2726,-0.2347,-0.2631,-0.3699,-0.3959,-0.4769,0.0,0.0,0.0,0.0,0.0,0.0,0.0,0.0,0.0,0.0,0.0,0.0,0.0,0.0,0.0,0.0,0.0,0.0,0.0,0.0,0.0,0.0,0.0,0.0,0.0,0.0,0.0,0.0,0.0,0.0,0.0,0.0,0.0,0.0,0.0,0.0,0.0,0.0,0.0,0.0,0.0,-0.6418,-0.6544,-0.7003,-0.7456,0.0,0.0,-0.8309,-0.7881,-0.8,-0.7938,-0.7437,0.0,0.0,0.0,0.0,0.0,0.0,0.0,0.0,0.0,0.0,0.0,0.0,0.0,0.0,0.0,0.0,0.0,0.0,0.0,0.0,0.0,0.0,0.0,0.0,0.0,0.0,0.0,0.0,0.0,0.0,0.0,0.0,0.0,0.0,0.0,0.0,0.0,0.0,0.0,0.0,0.0,0.0,0.0,0.0,0.0,0.0,0.0,0.0,0.0,0.0,0.0,0.0,0.0,-0.8567,-0.723,-0.586,-0.4604,-0.3511,-0.3016,-0.3019,-0.3585,-0.3959,-0.467,0.0,0.0,0.0,0.0,0.0,0.0,0.0,0.0,0.0,0.0,0.0,0.0,0.0,0.0,0.0,0.0,0.0,0.0,0.0,0.0,0.0,0.0,0.0,0.0,0.0,0.0,0.0,0.0,-0.4239,-0.4073,-0.4079,0.0,0.0,0.0,0.0,0.0,0.0,0.0,0.0,0.0,0.0,-0.6827,-0.7183,-0.7685,0.0,0.0,-0.8684,-0.8747,-0.862,-0.8499,-0.8313,-0.8116,-0.7792,0.0,0.0,0.0,0.0,0.0,0.0,0.0,0.0,0.0,0.0,0.0,0.0,0.0,0.0,0.0,0.0,0.0,0.0,0.0,0.0,0.0,0.0,0.0,0.0,0.0,0.0,0.0,0.0,0.0,0.0,0.0,0.0,0.0,0.0,0.0,0.0,0.0,0.0,0.0,0.0,0.0,0.0,0.0,0.0,0.0,0.0,0.0,0.0,0.0,0.0,0.0,0.0,-0.8778,-0.761,-0.6298,-0.521,-0.4349,-0.3685,-0.3355,-0.3524,-0.3852,-0.445,0.0,0.0,0.0,0.0,0.0,0.0,0.0,0.0,0.0,0.0,0.0,0.0,0.0,0.0,0.0,0.0,0.0,0.0,0.0,0.0,0.0,0.0,0.0,0.0,0.0,0.0,0.0,0.0,-0.4021,-0.3907,-0.4021,0.0,0.0,0.0,0.0,0.0,0.0,0.0,0.0,0.0,0.0,-0.7175,-0.7576,-0.819,-0.87,-0.8952,-0.9087,-0.9151,-0.9081,-0.8894,-0.8705,-0.8517,0.0,0.0,0.0,0.0,0.0,0.0,0.0,0.0,0.0,0.0,0.0,0.0,0.0,0.0,0.0,0.0,0.0,0.0,0.0,0.0,0.0,0.0,0.0,0.0,0.0,0.0,0.0,0.0,0.0,0.0,0.0,0.0,0.0,0.0,0.0,0.0,0.0,0.0,0.0,0.0,0.0,0.0,0.0,0.0,0.0,0.0,0.0,0.0,0.0,0.0,0.0,0.0,0.0,-0.9204,-0.8368,-0.7063,-0.5923,-0.5109,-0.4233,-0.3796,-0.3796,-0.3796,-0.4184,-0.4901,0.0,0.0,0.0,0.0,0.0,0.0,0.0,0.0,0.0,0.0,0.0,0.0,0.0,0.0,0.0,0.0,0.0,0.0,0.0,0.0,0.0,0.0,0.0,0.0,0.0,0.0,-0.4477,-0.4135,-0.3965,0.0,0.0,0.0,0.0,0.0,0.0,0.0,0.0,0.0,0.0,-0.6949,-0.7466,-0.7685,-0.8408,-0.8882,-0.9028,-0.9291,-0.942,-0.9291,-0.9291,-0.9087,0.0,0.0,0.0,0.0,0.0,0.0,0.0,0.0,0.0,0.0,0.0,0.0,0.0,0.0,0.0,0.0,0.0,0.0,0.0,0.0,0.0,0.0,0.0,0.0,0.0,0.0,0.0,-1.789,-1.7397,0.0,0.0,0.0,0.0,0.0,0.0,0.0,0.0,0.0,0.0,0.0,-1.1276,-1.0871,0.0,0.0,0.0,0.0,0.0,0.0,0.0,0.0,0.0,0.0,0.0,0.0,-0.9354,-0.8521,-0.7337,-0.6362,-0.555,-0.4791,-0.4301,-0.4079,-0.3965,-0.4239,-0.4901,0.0,0.0,0.0,0.0,0.0,0.0,0.0,0.0,0.0,0.0,0.0,0.0,0.0,0.0,0.0,0.0,0.0,0.0,0.0,0.0,0.0,0.0,0.0,0.0,0.0,-0.419,0.0,0.0,0.0,0.0,0.0,0.0,0.0,0.0,0.0,0.0,0.0,-0.6103,-0.6316,-0.6974,-0.7477,-0.7793,-0.8419,-0.895,0.0,0.0,0.0,0.0,0.0,0.0,0.0,0.0,0.0,0.0,0.0,0.0,0.0,0.0,-0.7167,-0.6898,-0.6679,-0.6478,-0.6346,0.0,0.0,0.0,0.0,0.0,0.0,0.0,0.0,0.0,0.0,0.0,0.0,0.0,0.0,0.0,0.0,-1.7787,0.0,0.0,0.0,0.0,0.0,0.0,0.0,0.0,-1.151,-1.1124,-1.0777,-1.0316,-1.011,0.0,-0.994,-1.0043,0.0,0.0,0.0,0.0,0.0,0.0,0.0,0.0,-0.9451,-0.8725,-0.7664,-0.675,-0.5996,-0.5285,-0.4743,-0.4359,-0.4135,-0.4187,-0.457,-0.5069,-0.5618,0.0,0.0,0.0,0.0,0.0,0.0,0.0,0.0,0.0,0.0,0.0,0.0,0.0,0.0,0.0,0.0,0.0,0.0,0.0,0.0,0.0,0.0,0.0,-0.3965,0.0,0.0,0.0,0.0,0.0,0.0,0.0,0.0,0.0,-0.5889,-0.607,-0.634,-0.6641,-0.718,-0.7598,-0.7917,0.0,0.0,0.0,0.0,0.0,0.0,0.0,-1.0194,-1.013,-0.9782,-0.9567,-0.941,-0.9004,-0.8714,-0.8628,0.0,0.0,-0.7216,-0.6924,-0.6745,-0.6613,-0.6482,-0.6412,-0.6214,-0.6218,-0.6152,0.0,0.0,0.0,0.0,0.0,0.0,0.0,0.0,-2.0338,-1.9838,0.0,-1.8394,0.0,0.0,0.0,0.0,0.0,0.0,0.0,0.0,-1.1175,-1.0769,-1.0462,-1.0007,-0.974,-0.9614,-0.9614,-0.9614,-0.9666,-1.0205,0.0,0.0,0.0,0.0,0.0,0.0,-0.9555,-0.9026,-0.8043,-0.7139,-0.6436,-0.5714,-0.512,-0.4688,-0.4245,-0.4021,-0.4021,-0.457,-0.512,-0.5567,-0.6213,0.0,0.0,0.0,0.0,0.0,0.0,0.0,0.0,0.0,0.0,0.0,0.0,0.0,0.0,0.0,0.0,0.0,0.0,0.0,0.0,-0.419,0.0,0.0,0.0,0.0,0.0,0.0,0.0,0.0,0.0,0.0,-0.6375,-0.6424,-0.6582,-0.7096,0.0,0.0,0.0,0.0,-0.9394,-0.9416,-1.0119,-1.0508,-1.0363,-1.0363,-1.0293,-1.016,0.0,0.0,-0.969,-0.9466,-0.9253,-0.9098,-0.8672,-0.8253,-0.7706,-0.7248,-0.692,-0.6915,-0.6924,-0.6907,-0.6762,-0.6734,-0.6726,-2.4695,0.0,0.0,0.0,0.0,-2.2591,-2.2218,-2.1757,-2.1194,-2.0619,-1.9954,-1.9066,0.0,0.0,0.0,0.0,0.0,0.0,-1.2116,-1.1418,-1.0972,-1.0514,-1.0154,-0.9903,-0.9688,-0.9458,-0.9458,-0.951,-0.9614,-0.9888,-1.0213,-1.0616,0.0,0.0,0.0,0.0,-0.9725,-0.9249,-0.8427,-0.7676,-0.7079,-0.6312,-0.5609,-0.4849,-0.4519,-0.4301,-0.4135,-0.4463,-0.4739,-0.4963,-0.5668,0.0,0.0,0.0,0.0,0.0,0.0,0.0,0.0,0.0,0.0,0.0,0.0,0.0,0.0,0.0,0.0,0.0,0.0,0.0,-0.3805,-0.3855,-0.3965,0.0,0.0,0.0,0.0,0.0,0.0,0.0,0.0,0.0,-0.6876,-0.6818,-0.6876,0.0,0.0,-0.7846,-0.8194,-0.8813,-0.9457,-0.9879,0.0,0.0,0.0,-1.0882,-1.0888,-1.0815,-1.0674,-1.0551,-1.025,-0.9983,-0.9739,-0.9659,-0.9186,-0.8794,-0.8586,-0.7981,-0.7572,-0.7563,-0.7498,-0.7359,-0.7359,-0.7359,-0.7355,-2.5208,-2.4765,-2.4337,-2.3933,-2.359,-2.3365,-2.301,-2.2565,-2.1984,-2.1318,-2.0601,-1.9621,-1.8598,-1.7463,-1.6114,0.0,0.0,0.0,-1.2126,-1.1418,-1.0972,-1.0565,-1.0213,-0.9947,-0.974,-0.9517,-0.9524,-0.9569,-0.9614,-0.9784,-1.0058,-1.0411,0.0,0.0,-1.0667,-1.0154,-0.974,-0.9361,-0.8685,-0.7996,-0.7456,-0.6642,-0.5882,-0.523,-0.4846,-0.457,-0.4415,-0.4522,-0.4632,-0.4794,-0.5289,-0.5723,0.0,0.0,0.0,0.0,0.0,0.0,0.0,0.0,0.0,0.0,0.0,-0.5187,-0.5014,0.0,0.0,0.0,-0.4076,-0.3855,-0.3691,-0.3799,0.0,0.0,0.0,0.0,0.0,0.0,0.0,-0.6027,-0.6345,-0.6706,-0.7223,-0.7228,-0.7269,-0.7386,-0.7805,-0.8169,-0.8498,0.0,-0.9805,-1.0252,-1.0686,-1.1099,-1.1407,-1.1517,-1.1585,-1.1591,-1.152,-1.1278,-1.0975,-1.0744,-1.0512,-1.0341,-0.993,-0.9606,-0.953,-0.9039,-0.8532,-0.8089,-0.7877,-0.7806,-0.7664,-0.7668,-0.7668,-2.551,-2.5352,-2.4917,-2.4523,-2.4226,-2.4004,-2.362,-2.3165,-2.2643,-2.1943,-2.1133,-2.0081,-1.8933,-1.7693,-1.564,0.0,0.0,-1.2861,-1.2274,-1.1728,-1.1217,-1.0769,-1.0514,-1.0213,-0.9888,-0.9621,-0.974,-0.974,-0.9621,-0.9895,-1.0102,-1.0316,-1.0419,-1.0573,-1.0667,-1.011,-0.9688,-0.9413,-0.8791,-0.8209,-0.7723,-0.675,-0.6105,-0.5727,-0.523,-0.4956,-0.4798,-0.4798,-0.4798,-0.4901,-0.5183,-0.5517,-0.595,0.0,0.0,0.0,0.0,0.0,0.0,0.0,0.0,0.0,0.0,0.0,0.0,0.0,0.0,0.0,-0.3965,0.0,-0.3796,-0.3965,0.0,0.0,0.0,-0.4959,-0.5124,-0.5403,-0.5767,-0.6134,0.0,0.0,-0.7469,0.0,-0.7821,-0.7821,-0.8261,-0.868,-0.8915,-0.9738,-1.0333,-1.0603,-1.1157,-1.1636,-1.188,-1.2145,-1.2276,-1.2282,-1.2332,-1.2141,-1.173,-1.1576,-1.1433,-1.1089,-1.0789,-1.0449,-1.0384,-1.0181,-0.9741,-0.8729,-0.8437,-0.8207,-0.8101,-0.811,-0.8124,-2.5546,-2.5444,-2.5187,-2.4879,-2.4575,-2.4211,-2.3762,-2.3236,-2.2643,-2.1931,-2.1054,-2.0162,-1.8722,-1.6828,-1.5688,-1.4709,-1.3884,-1.3208,-1.255,-1.1977,-1.1569,-1.1175,-1.0828,-1.0514,-1.0205,-0.9895,-0.9844,-0.9799,-0.974,-0.9947,-1.0102,-1.0316,-1.0419,-1.0522,-1.0522,-1.0154,-0.9895,-0.9688,-0.9166,-0.8474,-0.7723,-0.7187,-0.6756,-0.6436,-0.61,-0.5723,-0.5399,-0.5403,-0.5293,-0.5069,-0.5344,-0.5626,-0.585,-0.6168,0.0,0.0,0.0,0.0,0.0,0.0,0.0,0.0,0.0,-0.5187,-0.4901,0.0,-0.4736,0.0,-0.4021,-0.3965,-0.3965,-0.4187,0.0,0.0,-0.4904,-0.5179,-0.5454,-0.5567,-0.5875,-0.6607,-0.6777,-0.712,-0.7797,-0.8332,-0.8642,-0.8647,-0.8756,-0.8996,-0.9346,-1.016,-1.0881,-1.1304,-1.1762,-1.2147,-1.2409,-1.2441,-1.2504,-1.2485,-1.2418,-1.2252,-1.2172,-1.1846,-1.1519,-1.1445,-1.1117,-1.0875,-1.0816,-1.074,-1.0525,-0.9963,-0.967,-0.9518,-0.9518,-0.9503,-0.9429,-2.5512,-2.5401,-2.5194,-2.4936,-2.4591,-2.4319,-2.3885,-2.3346,-2.2746,-2.2,-2.1101,-1.9798,-1.8313,-1.6727,-1.5832,-1.4994,-1.4165,-1.3505,-1.289,-1.2323,-1.1877,-1.1469,-1.1175,-1.0871,-1.0573,-1.0205,-1.0162,-1.011,-1.0007,-1.011,-1.0213,-1.0368,-1.047,-1.0522,-1.0462,-1.0154,-0.9947,-0.9799,-0.9218,-0.8593,-0.7943,-0.7563,-0.7246,-0.7031,-0.6707,-0.6381,-0.6105,-0.6,-0.5837,-0.5614,-0.5727,-0.5841,-0.5959,-0.6223,-0.6381,0.0,0.0,0.0,0.0,0.0,0.0,0.0,0.0,0.0,0.0,0.0,-0.4794,-0.447,-0.4359,-0.4301,-0.4301,-0.4467,-0.4688,-0.4853,-0.5073,-0.5293,-0.5567,-0.5732,-0.616,-0.679,-0.7076,-0.7481,-0.8125,-0.8716,-0.9175,-0.9417,-0.9599,-0.9879,-1.025,-1.0824,-1.1389,-1.1973,-1.2332,-1.2719,-1.2996,-1.3186,-1.3192,-1.3104,-1.294,-1.2776,-1.2694,-1.2359,-1.2105,-1.1946,-1.1781,-1.1621,-1.146,-1.1211,-1.105,-1.0961,-1.0705,-1.0466,-1.0116,-0.9994,-0.9994,-2.5401,-2.5273,-2.5056,-2.4785,-2.4456,-2.4264,-2.3906,-2.3392,-2.2797,-2.2012,-2.1006,-1.9214,-1.7921,-1.6993,-1.6051,-1.5232,-1.4466,-1.38,-1.3238,-1.2774,-1.2224,-1.1877,-1.1578,-1.1267,-1.0972,-1.0624,-1.0573,-1.0522,-1.0368,-1.0368,-1.0427,-1.0522,-1.0522,-1.0522,-1.047,-1.0205,-0.9955,-0.974,-0.9166,-0.8639,-0.8275,-0.7943,-0.7729,-0.7574,-0.7252,-0.6982,-0.6815,-0.6652,-0.649,-0.6317,-0.6159,-0.6168,-0.6228,-0.6386,-0.6436,0.0,-0.6864,0.0,0.0,0.0,0.0,0.0,0.0,0.0,0.0,-0.5128,-0.5018,-0.4802,-0.4746,-0.4746,-0.4746,-0.4802,-0.4908,-0.5069,-0.5293,-0.547,-0.5707,-0.605,-0.6482,-0.7007,-0.7415,-0.7894,-0.8565,-0.9025,-0.961,-1.0148,-1.0659,-1.1083,-1.1415,-1.1578,-1.1979,-1.2584,-1.2939,-1.3278,-1.3639,-1.3913,-1.4044,-1.3867,-1.3651,-1.35,-1.3243,-1.2985,-1.2807,-1.2641,-1.2561,-1.2567,-1.2227,-1.1863,-1.1695,-1.1788,-1.1614,-1.1209,-1.0481,-1.0285,-1.0162,-2.5264,-2.5126,-2.491,-2.4586,-2.4174,-2.3806,-2.3414,-2.2972,-2.2449,-2.1395,-2.0039,-1.8968,-1.8054,-1.7188,-1.6312,-1.5579,-1.4926,-1.4186,-1.3621,-1.3084,-1.2715,-1.2332,-1.1977,-1.1578,-1.1326,-1.1124,-1.0922,-1.082,-1.0769,-1.0667,-1.0616,-1.0667,-1.0573,-1.0522,-1.0462,0.0,0.0,0.0,-0.9316,-0.9008,-0.8699,-0.8421,-0.8215,-0.8055,-0.8008,0.0,-0.7359,-0.7306,-0.7144,-0.6766,-0.6712,0.0,0.0,0.0,0.0,0.0,0.0,0.0,0.0,0.0,0.0,0.0,-0.595,-0.5786,-0.5513,-0.5238,-0.5073,-0.5018,-0.5018,-0.5014,-0.5014,-0.5289,-0.5395,-0.5281,-0.5614,-0.6013,-0.6454,-0.6587,-0.7034,-0.7833,-0.8019,-0.8447,-0.9294,-0.9888,-1.0357,-1.0848,-1.1527,-1.2088,-1.2524,-1.2444,-1.259,-1.3108,-1.3572,-1.3924,-1.3997,-1.4295,-1.4436,-1.4369,-1.4379,-1.4218,-1.4034,-1.3785,-1.353,-1.3338,-1.298,-1.2783,-1.2901,-1.3027,-1.2913,-1.2637,-1.2541,-1.2221,-1.1235,-1.1043,-1.1134,-2.5049,0.0,-2.4629,-2.4317,0.0,-2.3441,-2.2954,-2.2485,-2.2034,-2.1023,-1.9624,-1.8884,-1.8094,-1.7271,-1.6582,-1.5856,-1.5187,-1.4512,-1.3952,-1.3467,-1.3017,-1.2627,-1.2283,-1.1968,-1.1669,-1.1427,-1.1175,-1.1074,-1.0972,-1.0871,-1.0769,-1.0726,-1.0624,-1.0573,-1.0522,-1.0419,-1.0146,-0.9614,-0.9465,-0.9263,-0.9008,-0.8798,-0.8633,-0.8586,0.0,0.0,0.0,0.0,0.0,0.0,0.0,0.0,0.0,0.0,0.0,-0.682,-0.6987,-0.6928,-0.6598,-0.6598,-0.6544,-0.6218,-0.6223,-0.6059,-0.5732,-0.5517,-0.5458,-0.5458,-0.5458,-0.5458,-0.5563,-0.5559,-0.5589,-0.5605,-0.6128,-0.6736,-0.7354,-0.7449,-0.7693,-0.8265,-0.8692,-0.9169,-0.9747,-1.0422,-1.1049,-1.155,-1.2022,-1.2616,-1.3087,-1.3098,-1.316,-1.3743,-1.4097,-1.4349,-1.4502,-1.4623,-1.4736,-1.4763,-1.4678,-1.4578,-1.4405,-1.4147,-1.3888,-1.3701,-1.332,-1.3132,-1.3332,-1.3647,-1.3671,-1.3162,-1.2871,-1.2717,-1.2093,-1.2048,-1.2054,-2.4847,-2.4636,-2.4371,-2.406,-2.3714,-2.3206,-2.2608,-2.1953,0.0,0.0,0.0,-1.8846,-1.8133,-1.7312,-1.6752,-1.6064,-1.5311,-1.4743,-1.4233,-1.3821,-1.3258,-1.2822,-1.2578,-1.2274,-1.1977,-1.1619,-1.1427,-1.1326,-1.1175,-1.1023,-1.0863,-1.0769,-1.0777,-1.0667,-1.0522,-1.0522,-1.0249,-0.9769,-0.9666,-0.9517,-0.9263,-0.9106,-0.9061,-0.9061,-0.8784,-0.8633,-0.8474,-0.8321,-0.8156,-0.7984,-0.7723,-0.7574,-0.7515,-0.7419,-0.7203,-0.6987,-0.7203,-0.7144,-0.6761,-0.6825,-0.6771,-0.649,-0.649,-0.6332,-0.6005,-0.5905,-0.59,-0.59,-0.5936,-0.6004,-0.611,-0.6023,-0.5974,-0.5997,-0.6721,-0.7538,-0.8337,-0.8354,-0.8391,-0.8731,-0.9285,-0.986,-1.0276,-1.0994,-1.1695,-1.221,-1.2643,-1.3034,-1.3641,-1.3732,-1.3884,-1.4455,-1.4696,-1.4852,-1.4972,-1.51,-1.5127,-1.5044,-1.4903,-1.4832,-1.4741,-1.4475,-1.4207,-1.4172,-1.3939,-1.3762,-1.3762,-1.4203,-1.4276,-1.367,-1.3383,-1.3193,-1.3193,-1.3193,-1.3152,-2.4726,-2.4512,-2.4229,-2.3903,-2.3522,-2.3157,-2.2429,-2.1462,-2.0747,-2.0054,-1.9457,-1.8808,-1.8147,-1.7434,-1.6808,-1.6163,-1.5546,-1.4926,-1.443,0.0,-1.3525,-1.3142,-1.2832,-1.248,-1.2175,-1.1977,-1.1778,-1.1578,-1.1427,-1.1326,-1.1175,-1.1023,-1.0922,-1.082,-1.0675,-1.0675,-1.0522,-1.0213,-0.9895,-0.9681,-0.9562,-0.9309,-0.9159,-0.9166,-0.9008,-0.8903,-0.8752,-0.8633,-0.8421,-0.8162,-0.7955,-0.7788,-0.767,-0.7574,-0.7419,-0.7263,-0.7311,-0.7155,-0.6928,-0.6885,-0.6825,-0.6652,-0.6766,-0.6766,-0.6598,-0.644,-0.6332,-0.6337,-0.6546,-0.6653,-0.6719,-0.7029,-0.7071,-0.6738,-0.7421,-0.8337,-0.9181,-0.9003,-0.9089,-0.9664,-0.9988,-1.0491,-1.123,-1.1893,-1.2439,-1.292,-1.3488,-1.4199,-1.4684,-1.4812,-1.484,-1.5043,-1.5346,-1.5417,-1.5376,-1.5547,-1.5593,-1.5337,-1.5524,-1.5538,-1.535,-1.5256,-1.5068,-1.4943,-1.4703,-1.4615,-1.4735,-1.4975,-1.4943,-1.4716,-1.4609,-1.4627,-1.4609,-1.4615,-1.4321,-2.4462,-2.4247,-2.4001,-2.3671,-2.3289,-2.2634,-2.1924,-2.1134,-2.0465,-1.998,-1.9551,-1.8921,-1.8305,-1.7625,-1.6976,-1.638,-1.5768,-1.5096,-1.4605,-1.4197,-1.3705,-1.3334,-1.2958,-1.2725,-1.248,-1.2234,-1.2026,-1.1828,-1.1678,-1.1519,-1.1326,-1.1226,-1.1023,-1.0871,-1.082,-1.0718,-1.0624,-1.0522,-1.0205,-0.9947,-0.9732,-0.9584,-0.9472,-0.9413,-0.9211,-0.9054,-0.9008,-0.885,-0.8639,-0.854,-0.8374,-0.8209,-0.8096,-0.7949,-0.7788,-0.7515,-0.7521,-0.7467,-0.7252,-0.7149,-0.7149,-0.7139,-0.7149,-0.7258,-0.7483,-0.7046,-0.6867,-0.6981,-0.71,-0.726,-0.7438,-0.7725,-0.7768,-0.7617,-0.8463,-0.9224,-0.9681,-0.9837,-0.9928,-1.0255,-1.0808,-1.1351,-1.1985,-1.2587,-1.312,-1.3717,-1.4391,-1.4979,-1.5361,-1.5592,-1.57,-1.5714,-1.5833,-1.598,-1.6028,-1.6174,-1.6099,-1.5919,-1.5934,-1.592,-1.5737,-1.5635,-1.5452,-1.5356,-1.5166,-1.4975,-1.5083,-1.5395,-1.5402,-1.5185,-1.5083,-1.5083,-1.5083,-1.5083,-1.4893,-2.4192,-2.4001,-2.3756,-2.3405,-2.2968,-2.2169,-2.1509,-2.1007,-2.0447,-2.0015,-1.9654,-1.9049,-1.8383,-1.776,-1.7199,-1.6607,-1.5988,-1.5322,-1.4777,-1.4419,-1.3905,-1.343,-1.3104,-1.292,-1.2735,-1.2372,-1.2234,-1.2076,-1.1877,-1.1678,-1.1519,-1.1318,-1.1124,-1.1023,-1.0981,-1.082,-1.0769,-1.0675,-1.047,-1.0265,-0.9903,-0.9851,-0.974,-0.9621,-0.9368,-0.9263,-0.9204,-0.9008,-0.8857,-0.8857,-0.8692,-0.858,-0.8474,-0.8328,-0.8109,-0.783,-0.7836,-0.7783,-0.7622,-0.7521,-0.7495,-0.7715,-0.7666,-0.7825,-0.8259,-0.7906,-0.765,-0.7767,-0.7862,-0.8038,-0.8326,-0.8423,-0.8503,-0.8545,-0.9419,-1.0153,-1.0438,-1.0613,-1.0801,-1.0953,-1.1597,-1.2134,-1.258,-1.3202,-1.3783,-1.4462,-1.5035,-1.5461,-1.5792,-1.6253,-1.6478,-1.6395,-1.6409,-1.6487,-1.664,-1.6662,-1.6574,-1.6312,-1.6312,-1.6218,-1.6021,-1.5832,-1.5642,-1.5642,-1.5452,-1.5363,-1.5274,-1.5586,-1.5688,-1.5471,-1.5458,-1.5458,-1.5553,-1.5553,-1.5363,-2.4016,-2.3834,-2.3598,-2.314,-2.2544,-2.2015,-2.1556,-2.1087,-2.0481,-2.0015,-1.9603,-1.8921,-1.8305,-1.7707,-1.7201,-1.6667,-1.6156,-1.5525,-1.5028,-1.4523,-1.4057,-1.3573,-1.318,-1.3007,-1.2725,-1.248,-1.2323,-1.2175,-1.1927,-1.1877,-1.1728,-1.1528,-1.1477,-1.1326,-1.1116,-1.1074,-1.0972,-1.0726,-1.0667,-1.0514,-1.0265,-0.9955,-0.9799,-0.9799,-0.9517,-0.9413,-0.9361,-0.9263,-0.9113,-0.9008,-0.8857,-0.8692,-0.8573,-0.8474,-0.8315,-0.8168,-0.8168,-0.8055,-0.7883,-0.7818,-0.8003,-0.8281,-0.8422,-0.8589,-0.8899,-0.9022,-0.8951,-0.8798,-0.8926,-0.9035,-0.9114,-0.9425,-0.9415,-0.9053,-0.9857,-1.0771,-1.1546,-1.1546,-1.1565,-1.1982,-1.2283,-1.2669,-1.3229,-1.3846,-1.4446,-1.5209,-1.5631,-1.5973,-1.6228,-1.6652,-1.6897,-1.7101,-1.7188,-1.7102,-1.6972,-1.6979,-1.6878,-1.6588,-1.6588,-1.6494,-1.64,-1.6312,-1.6123,-1.6028,-1.5927,-1.573,-1.5832,-1.594,-1.6157,-1.6109,-1.6279,-1.6434,-1.6501,-1.6455,-1.6286,-2.3768,-2.3598,-2.3348,-2.2892,-2.2254,-2.184,-2.1402,-2.0925,-2.0429,-1.9894,-1.9369,-1.8846,-1.8344,-1.7828,-1.7242,-1.6697,-1.6207,-1.5603,-1.5028,-1.4581,-1.4104,-1.3668,-1.3218,-1.3132,-1.29,-1.2627,-1.2578,-1.2382,-1.2126,-1.1977,-1.1778,-1.1528,-1.1528,-1.1427,-1.1217,-1.1124,-1.1015,-1.093,-1.0871,-1.0718,-1.0522,-1.0265,-1.0051,-0.9895,-0.9673,-0.951,-0.9517,-0.9309,-0.9159,-0.9106,-0.9061,-0.8956,-0.885,-0.8798,-0.8692,-0.8599,-0.8749,-0.8773,-0.8543,-0.8867,-0.9009,-0.9029,-0.9201,-0.944,-0.9781,-0.9874,-1.0,-1.0099,-0.9849,-0.9691,-0.9981,-1.0179,-1.0085,-0.9792,-1.0424,-1.1368,-1.2378,-1.2261,-1.2179,-1.2381,-1.2846,-1.3436,-1.4048,-1.4786,-1.5435,-1.5896,-1.6159,-1.6477,-1.6698,-1.693,-1.7157,-1.7296,-1.7333,-1.7239,-1.7153,-1.7145,-1.7059,-1.6878,-1.6885,-1.6784,-1.6581,-1.6588,-1.6407,-1.6414,-1.6224,-1.6218,-1.6298,-1.6682,-1.6896,-1.6896,-1.6953,-1.7211,-1.7216,-1.7168,-1.6981,-2.3504,-2.3342,-2.3028,-2.2554,-2.1998,-2.1648,-2.1214,-2.0695,-2.0277,-1.9752,-1.9169,-1.8717,-1.8319,-1.7922,-1.7338,-1.6782,-1.6269,-1.5647,-1.5074,-1.4627,-1.4208,-1.3716,-1.3314,-1.3218,-1.3035,-1.2725,-1.2676,-1.2578,-1.2274,-1.2076,-1.1828,-1.1578,-1.1519,-1.1477,-1.1326,-1.1175,-1.1124,-1.1065,-1.1015,-1.0871,-1.0718,-1.0522,-1.0316,-1.011,-0.9836,-0.9718,-0.9725,-0.9517,-0.9368,-0.9309,-0.9309,-0.9211,-0.9061,-0.9061,-0.9042,-0.9098,-0.9357,-0.9457,-0.9345,-0.9717,-0.988,-0.9831,-0.9962,-1.021,-1.0532,-1.0601,-1.0828,-1.1114,-1.0809,-1.0705,-1.064,-1.0819,-1.0742,-1.0562,-1.1208,-1.2041,-1.3028,-1.2989,-1.2999,-1.3107,-1.3695,-1.4223,-1.4818,-1.5612,-1.6232,-1.6282,-1.668,-1.6929,-1.71,-1.7383,-1.7512,-1.752,-1.752,-1.7419,-1.7333,-1.7333,-1.7246,-1.7153,-1.7066,-1.6965,-1.677,-1.6777,-1.6774,-1.6838,-1.6599,-1.6682,-1.6842,-1.7322,-1.7616,-1.7526,-1.7647,-1.7782,-1.7717,-1.7732,-1.7817,-2.3241,-2.3052,-2.2605,-2.222,-2.1797,-2.1464,-2.1023,-2.0494,-2.005,-1.9573,-1.9132,-1.8563,-1.8175,-1.7868,-1.7352,-1.685,-1.6281,-1.5724,-1.5198,-1.4662,-1.4208,-1.3773,-1.342,-1.3266,-1.3035,-1.2735,-1.2676,-1.2578,-1.2332,-1.2175,-1.1977,-1.1728,-1.1669,-1.1578,-1.1326,-1.1276,-1.1217,-1.1124,-1.1074,-1.1023,-1.0863,-1.0769,-1.0573,-1.0316,-1.0102,-0.9999,-0.9947,-0.9947,-0.9836,-0.9614,-0.9562,-0.9465,-0.9271,-0.9232,-0.9379,-0.9638,-1.0003,-1.0179,-1.0121,-1.0228,-1.0355,-1.0527,-1.0664,-1.0709,-1.1128,-1.1262,-1.1416,-1.1589,-1.1909,-1.1818,-1.1319,-1.1432,-1.1593,-1.1758,-1.2128,-1.2796,-1.3753,-1.3857,-1.4119,-1.4396,-1.4736,-1.5101,-1.5522,-1.6148,-1.6499,-1.6728,-1.7155,-1.7568,-1.7553,-1.7804,-1.7963,-1.7994,-1.7986,-1.7893,-1.7426,-1.7426,-1.7426,-1.7333,-1.734,-1.7268,-1.7246,-1.7182,-1.7165,-1.722,-1.718,-1.7225,-1.7471,-1.7789,-1.8016,-1.8144,-1.8173,-1.8309,-1.8389,-1.8251,-1.8273,-2.2927,-2.2632,-2.2271,-2.1974,-2.1634,-2.1325,-2.0893,-2.041,-1.9965,-1.9515,-1.8997,-1.85,-1.8042,-1.7611,-1.7199,-1.6765,-1.6281,-1.5647,-1.5119,-1.4697,-1.4197,-1.3773,-1.342,-1.3266,-1.3084,-1.2871,-1.2725,-1.2578,-1.2323,-1.2184,-1.1977,-1.1719,-1.1669,-1.1578,-1.1326,-1.1276,-1.1276,-1.1226,-1.1226,-1.1175,-1.1015,-1.0972,-1.0871,-1.0675,-1.0368,-1.0213,-1.0205,-1.0051,-0.9947,-0.9836,-0.9836,-0.9933,-1.0082,-1.0297,-1.0453,-1.0602,-1.09,-1.1019,-1.0983,-1.1219,-1.1382,-1.1377,-1.1714,-1.1848,-1.2074,-1.2318,-1.2518,-1.2598,-1.2666,-1.2615,-1.2512,-1.2491,-1.2565,-1.2711,-1.2848,-1.3413,-1.4333,-1.4641,-1.4683,-1.4958,-1.5335,-1.5754,-1.6102,-1.6643,-1.7009,-1.7164,-1.7478,-1.7817,-1.7957,-1.8025,-1.8087,-1.8087,-1.8087,-1.8087,-1.7893,-1.78,-1.78,-1.7714,-1.7736,-1.7777,-1.7727,-1.7625,-1.7683,-1.7848,-1.7829,-1.7894,-1.811,-1.8369,-1.8613,-1.8811,-1.8927,-1.8876,-1.8928,-1.8883,-1.892,-2.2615,-2.2287,-2.2044,-2.1751,-2.1481,-2.1151,-2.0712,-2.0273,-1.9839,-1.9384,-1.886,-1.8383,-1.7948,-1.7475,-1.6989,-1.6565,-1.6151,-1.5558,-1.5074,-1.4673,-1.4208,-1.381,-1.342,-1.3266,-1.3084,-1.2822,-1.2627,-1.2471,-1.2323,-1.2175,-1.1977,-1.1719,-1.1669,-1.1578,-1.1326,-1.1276,-1.1276,-1.1276,-1.1276,-1.1267,-1.1175,-1.1124,-1.1074,-1.0922,-1.0675,-1.0478,-1.0419,-1.0316,-1.0267,-1.0248,-1.0271,-1.0417,-1.0747,-1.1084,-1.1268,-1.1299,-1.159,-1.1714,-1.1616,-1.1936,-1.2103,-1.2092,-1.236,-1.2592,-1.2722,-1.3009,-1.3192,-1.3222,-1.3398,-1.3437,-1.346,-1.3537,-1.3508,-1.3437,-1.3517,-1.3977,-1.4844,-1.5177,-1.5381,-1.5606,-1.5911,-1.6226,-1.6476,-1.7067,-1.7407,-1.7494,-1.7901,-1.8208,-1.8311,-1.8365,-1.8365,-1.8365,-1.8365,-1.8365,-1.8272,-1.828,-1.8109,-1.8109,-1.8168,-1.8123,-1.817,-1.8075,-1.8177,-1.8343,-1.8474,-1.8618,-1.8728,-1.8905,-1.9206,-1.9428,-1.9494,-1.9485,-1.9575,-1.9524,-1.9472,-2.2287,-2.2084,-2.1869,-2.1587,-2.1294,-2.0925,-2.0512,-2.0065,-1.9632,-1.9213,-1.8745,-1.824,-1.7801,-1.7393,-1.6778,-1.6349,-1.5957,-1.5468,-1.5028,-1.4581,-1.4161,-1.3763,-1.3409,-1.3276,-1.2987,-1.2676,-1.2431,-1.2332,-1.2274,-1.2126,-1.1977,-1.1769,-1.1719,-1.1569,-1.1326,-1.1326,-1.1276,-1.1276,-1.1276,-1.1276,-1.1276,-1.1175,-1.1141,-1.1107,-1.1014,-1.0886,-1.0775,-1.0716,-1.0721,-1.0794,-1.0841,-1.0887,-1.1213,-1.1488,-1.168,-1.1719,-1.1989,-1.2089,-1.2104,-1.2197,-1.2374,-1.2598,-1.2649,-1.2929,-1.3235,-1.3419,-1.3525,-1.3648,-1.3889,-1.4117,-1.4164,-1.4403,-1.4356,-1.3792,-1.4271,-1.4708,-1.5031,-1.5568,-1.6077,-1.6498,-1.6585,-1.6632,-1.6873,-1.7278,-1.7683,-1.7914,-1.8269,-1.868,-1.8719,-1.8643,-1.8735,-1.8775,-1.8838,-1.8792,-1.8822,-1.8767,-1.8504,-1.8365,-1.8486,-1.8575,-1.855,-1.8589,-1.8813,-1.8974,-1.9078,-1.913,-1.9328,-1.9485,-1.9618,-1.9879,-1.9983,-1.9983,-1.9879,-1.9879,-1.9983,-2.2044,-2.1853,-2.1631,-2.1402,-2.1119,-2.0761,-2.0357,-1.999,-1.956,-1.9153,-1.863,-1.8108,-1.7625,-1.7089,-1.6565,-1.6057,-1.5647,-1.5244,-1.488,-1.4523,-1.4104,-1.3716,-1.343,-1.32,-1.2968,-1.2578,-1.2382,-1.2234,-1.2175,-1.2135,-1.2036,-1.1877,-1.1728,-1.1619,-1.1427,-1.1377,-1.1276,-1.1276,-1.1276,-1.1276,-1.1276,-1.1276,-1.1345,-1.1523,-1.1565,-1.1562,-1.1689,-1.1383,-1.1325,-1.1605,-1.1621,-1.1776,-1.2076,-1.2373,-1.2567,-1.2583,-1.2663,-1.2736,-1.2768,-1.2962,-1.3123,-1.3332,-1.3703,-1.4093,-1.4187,-1.4449,-1.4563,-1.4579,-1.4763,-1.489,-1.4885,-1.5225,-1.5211,-1.492,-1.5201,-1.557,-1.5902,-1.6269,-1.649,-1.6617,-1.673,-1.6833,-1.708,-1.7555,-1.7937,-1.8089,-1.8533,-1.8819,-1.8827,-1.8851,-1.8962,-1.9129,-1.9177,-1.9256,-1.9304,-1.9328,-1.9241,-1.9043,-1.9065,-1.9028,-1.9077,-1.9117,-1.9343,-1.9423,-1.9535,-1.9721,-1.9834,-1.9983,-2.0086,-2.0078,-2.0086,-2.0086,-2.0086,-2.0189,-2.0189,-2.1811,-2.1631,-2.1433,-2.1183,-2.0909,-2.0527,-2.015,-1.9762,-1.9362,-1.8912,-1.8397,-1.7922,-1.7434,-1.6921,-1.6448,-1.5957,-1.5468,-1.5006,-1.4697,-1.443,-1.401,-1.3621,-1.3324,-1.3017,-1.2735,-1.248,-1.2283,-1.2175,-1.2076,-1.2076,-1.2036,-1.1877,-1.1769,-1.1619,-1.1528,-1.1377,-1.1276,-1.1276,-1.1276,-1.1276,-1.131,-1.1413,-1.1601,-1.1771,-1.197,-1.218,-1.2439,-1.2159,-1.2031,-1.219,-1.2274,-1.2472,-1.2703,-1.2857,-1.2981,-1.2981,-1.2989,-1.303,-1.324,-1.3446,-1.3727,-1.4007,-1.4428,-1.4742,-1.4866,-1.5114,-1.5188,-1.5196,-1.5188,-1.5196,-1.5246,-1.5543,-1.5799,-1.5947,-1.6121,-1.6357,-1.6724,-1.692,-1.696,-1.7008,-1.7113,-1.729,-1.7568,-1.7989,-1.8248,-1.8474,-1.8696,-1.8819,-1.8859,-1.8955,-1.9161,-1.9368,-1.9471,-1.9598,-1.9781,-1.982,-1.982,-1.9707,-1.97,-1.9646,-1.9589,-1.9776,-1.9982,-1.9918,-1.9899,-2.0002,-2.0197,-2.0205,-2.03,-2.03,-2.0395,-2.0498,-2.0506,-2.0506,-2.0506,-2.1556,-2.1386,-2.123,-2.099,-2.0644,-2.0289,-1.9889,-1.9493,-1.9049,-1.8592,-1.8175,-1.7733,-1.7269,-1.6876,-1.6362,-1.5881,-1.5424,-1.4926,-1.4512,-1.4233,-1.3858,-1.3525,-1.3132,-1.2764,-1.248,-1.2332,-1.2175,-1.2076,-1.2076,-1.2076,-1.2026,-1.1877,-1.1778,-1.1628,-1.1528,-1.1377,-1.1276,-1.1276,-1.131,-1.1345,-1.1362,-1.1687,-1.1865,-1.1978,-1.2278,-1.2603,-1.2937,-1.2963,-1.2855,-1.263,-1.2862,-1.3003,-1.3025,-1.3042,-1.3042,-1.3111,-1.3058,-1.3318,-1.3551,-1.3894,-1.4162,-1.4714,-1.489,-1.4911,-1.5255,-1.5392,-1.5417,-1.5346,-1.5396,-1.5342,-1.5408,-1.5756,-1.618,-1.6649,-1.6796,-1.7058,-1.7309,-1.7383,-1.7335,-1.7417,-1.7738,-1.7994,-1.806,-1.8613,-1.8814,-1.8873,-1.9018,-1.9063,-1.914,-1.9309,-1.9431,-1.9654,-1.999,-2.0273,-2.0474,-2.0448,-2.0456,-2.0365,-2.0226,-2.0158,-2.0145,-2.0304,-2.0428,-2.0269,-2.0189,-2.03,-2.0403,-2.0514,-2.0617,-2.0609,-2.0712,-2.0925,-2.0814,-2.0712,-2.0712,-2.1309,-2.1167,-2.0958,-2.0728,-2.046,-2.015,-1.9812,-1.9398,-1.8988,-1.8553,-1.8149,-1.7652,-1.7186,-1.6723,-1.6175,-1.5659,-1.5198,-1.48,-1.4441,-1.4057,-1.3658,-1.3238,-1.2852,-1.2618,-1.2421,-1.2274,-1.2184,-1.2076,-1.2076,-1.2076,-1.2026,-1.1927,-1.1778,-1.1628,-1.1528,-1.1394,-1.1326,-1.1319,-1.1576,-1.1687,-1.1747,-1.2055,-1.2398,-1.268,-1.2766,-1.2997,-1.3331,-1.3502,-1.3502,-1.3245,-1.3322,-1.339,-1.3329,-1.3338,-1.3346,-1.3458,-1.3802,-1.4053,-1.4314,-1.4802,-1.526,-1.5469,-1.567,-1.5896,-1.5965,-1.5991,-1.5991,-1.5964,-1.6074,-1.6191,-1.622,-1.6614,-1.7192,-1.7505,-1.7544,-1.7493,-1.7594,-1.7481,-1.7482,-1.7821,-1.7962,-1.8277,-1.8659,-1.8899,-1.9148,-1.934,-1.9397,-1.9545,-1.9556,-1.9649,-1.9852,-2.054,-2.0942,-2.1007,-2.1154,-2.1034,-2.099,-2.1022,-2.0865,-2.0559,-2.0498,-2.0577,-2.0727,-2.0712,-2.0609,-2.0609,-2.0712,-2.0822,-2.0925,-2.0925,-2.0925,-2.0925,-2.0925,-2.0814,-2.0814,-2.1055,-2.0893,-2.0728,-2.0494,-2.022,-1.9884,-1.9508,-1.9139,-1.8745,-1.8372,-1.7949,-1.7529,-1.706,-1.6595,-1.6044,-1.5558,-1.5108,-1.4697,-1.4348,-1.3962,-1.3515,-1.3094,-1.2666,-1.2529,-1.2372,-1.2224,-1.2126,-1.2076,-1.2076,-1.2076,-1.1977,-1.1877,-1.1728,-1.1569,-1.1495,-1.155,-1.1507,-1.1584,-1.1867,-1.2072,-1.2098,-1.244,-1.2706,-1.2988,-1.31,-1.3322,-1.3623,-1.3761,-1.37,-1.3571,-1.3571,-1.3631,-1.364,-1.364,-1.3709,-1.3909,-1.4293,-1.4593,-1.5036,-1.5535,-1.581,-1.5987,-1.6235,-1.6245,-1.6272,-1.6281,-1.6298,-1.6465,-1.6668,-1.6779,-1.6959,-1.7362,-1.7761,-1.7992,-1.7951,-1.787,-1.787,-1.7941,-1.8019,-1.8255,-1.8549,-1.886,-1.9268,-1.9423,-1.9544,-1.9654,-1.9712,-1.9845,-1.9992,-2.0079,-2.0366,-2.0974,-2.1437,-2.1586,-2.1527,-2.1383,-2.1306,-2.1363,-2.1253,-2.0985,-2.0883,-2.0867,-2.0837,-2.0925,-2.0925,-2.0925,-2.0917,-2.0917,-2.0925,-2.0925,-2.0925,-2.0925,-2.0925,-2.1019,-2.1019,-2.0794,-2.0626,-2.046,-2.0204,-1.9919,-1.9574,-1.9176,-1.8784,-1.8436,-1.8082,-1.7666,-1.7337,-1.6905,-1.6436,-1.5969,-1.5525,-1.5062,-1.4605,-1.4186,-1.381,-1.342,-1.2987,-1.2578,-1.2529,-1.2372,-1.2175,-1.2076,-1.2076,-1.2026,-1.1977,-1.1877,-1.1778,-1.1578,-1.1521,-1.1575,-1.1713,-1.178,-1.1952,-1.2261,-1.244,-1.2526,-1.2817,-1.3048,-1.3117,-1.3322,-1.3511,-1.3769,-1.3873,-1.3857,-1.3631,-1.3726,-1.3865,-1.3882,-1.39,-1.4145,-1.4595,-1.4772,-1.5156,-1.5664,-1.5909,-1.6106,-1.6305,-1.6385,-1.6342,-1.643,-1.6483,-1.6652,-1.691,-1.7071,-1.7409,-1.7605,-1.7786,-1.7996,-1.8318,-1.8227,-1.8108,-1.8151,-1.8382,-1.8605,-1.8725,-1.9358,-1.9667,-1.9881,-2.0052,-2.0192,-1.9994,-2.002,-2.0315,-2.0515,-2.0591,-2.1003,-2.1519,-2.1804,-2.2013,-2.1912,-2.181,-2.17,-2.1607,-2.1599,-2.1363,-2.1175,-2.1073,-2.0995,-2.0917,-2.0925,-2.1019,-2.1019,-2.1019,-2.1019,-2.1121,-2.1224,-2.1121,-2.1019,-2.1121,-2.1216,-2.0543,-2.022,-2.017,-1.996,-1.9603,-1.9398,-1.9064,-1.863,-1.8333,-1.7935,-1.7529,-1.7128,-1.6693,-1.6275,-1.5881,-1.5424,-1.496,-1.4512,-1.4046,-1.3409,-1.3314,-1.2939,-1.2569,-1.2529,-1.2323,-1.2126,-1.2076,-1.2026,-1.1977,-1.1927,-1.1778,-1.1628,-1.1545,-1.1575,-1.1748,-1.1807,-1.2004,-1.2278,-1.2655,-1.2834,-1.2903,-1.3168,-1.3365,-1.3374,-1.3459,-1.3631,-1.3839,-1.4171,-1.4382,-1.4321,-1.4162,-1.4214,-1.4409,-1.4462,-1.4657,-1.5067,-1.5528,-1.5846,-1.6062,-1.6383,-1.6651,-1.6733,-1.6727,-1.676,-1.6788,-1.7079,-1.7171,-1.7343,-1.7701,-1.8082,-1.8371,-1.8488,-1.8532,-1.8664,-1.8714,-1.8715,-1.8668,-1.8645,-1.887,-1.9324,-1.9615,-1.9855,-2.0121,-2.018,-2.03,-2.0235,-2.0474,-2.0789,-2.094,-2.1181,-2.15,-2.1936,-2.2088,-2.2249,-2.2241,-2.2131,-2.203,-2.1928,-2.1912,-2.1912,-2.1623,-2.1326,-2.1326,-2.1121,-2.1019,-2.1019,-2.1216,-2.1224,-2.1326,-2.1428,-2.1522,-2.142,-2.142,-2.142,-2.142,-2.0547,-1.9975,-1.9925,-1.9711,-1.9398,-1.9139,-1.8836,-1.8411,-1.8095,-1.7733,-1.7352,-1.6989,-1.6565,-1.6144,-1.5792,-1.5334,-1.4869,-1.4316,-1.38,-1.3314,-1.3132,-1.291,-1.2569,-1.248,-1.2382,-1.2126,-1.2076,-1.2026,-1.1927,-1.1828,-1.1728,-1.1528,-1.1427,-1.1524,-1.1841,-1.2004,-1.2312,-1.2663,-1.3023,-1.3228,-1.3271,-1.3391,-1.3511,-1.3511,-1.3519,-1.3701,-1.4171,-1.4391,-1.4791,-1.4935,-1.4917,-1.4818,-1.4989,-1.5052,-1.5258,-1.5692,-1.5966,-1.6296,-1.6538,-1.6702,-1.6899,-1.6927,-1.7064,-1.7156,-1.7275,-1.755,-1.7807,-1.7952,-1.8315,-1.8638,-1.8939,-1.8949,-1.9003,-1.9048,-1.9079,-1.9169,-1.9382,-1.9298,-1.9239,-1.9692,-1.9889,-2.0069,-2.0232,-2.0275,-2.0463,-2.0557,-2.0668,-2.0994,-2.1437,-2.1663,-2.1883,-2.2238,-2.2458,-2.2552,-2.2544,-2.2443,-2.2342,-2.2232,-2.2224,-2.2224,-2.2131,-2.1928,-2.1623,-2.1522,-2.1318,-2.131,-2.1412,-2.1522,-2.153,-2.1623,-2.1623,-2.1725,-2.1725,-2.1623,-2.1623,-2.0546,-1.9762,-1.969,-1.9472,-1.9176,-1.8874,-1.8528,-1.8163,-1.7828,-1.7488,-1.7115,-1.6765,-1.6392,-1.6057,-1.5647,-1.5232,-1.4674,-1.4129,-1.3563,-1.3218,-1.3104,-1.2871,-1.2578,-1.248,-1.2332,-1.2126,-1.2076,-1.1977,-1.1868,-1.1719,-1.1578,-1.1469,-1.1377,-1.1541,-1.191,-1.2218,-1.2586,-1.3023,-1.3305,-1.3451,-1.3468,-1.3502,-1.3528,-1.3648,-1.3656,-1.4021,-1.455,-1.4862,-1.5141,-1.5697,-1.5835,-1.5798,-1.5724,-1.5622,-1.5842,-1.6367,-1.6382,-1.651,-1.6807,-1.6963,-1.7046,-1.7018,-1.7367,-1.7568,-1.7678,-1.7963,-1.8284,-1.855,-1.8729,-1.8948,-1.9338,-1.9405,-1.9516,-1.9606,-1.9511,-1.9621,-1.9913,-1.9955,-1.9829,-1.9864,-2.0052,-2.0215,-2.0257,-2.03,-2.0557,-2.0788,-2.0908,-2.1156,-2.1704,-2.2098,-2.2304,-2.2407,-2.2509,-2.2653,-2.2544,-2.2544,-2.2443,-2.2443,-2.2535,-2.2535,-2.2544,-2.2333,-2.203,-2.1818,-2.1717,-2.1717,-2.1717,-2.1835,-2.1835,-2.1827,-2.1928,-2.203,-2.1928,-2.1827,-2.1827,-2.0362,-1.9596,-1.945,-1.9176,-1.886,-1.85,-1.8214,-1.7922,-1.7597,-1.7253,-1.6918,-1.6491,-1.61,-1.5748,-1.5345,-1.488,-1.4362,-1.3847,-1.3467,-1.318,-1.3007,-1.2783,-1.2529,-1.2372,-1.2224,-1.1977,-1.1927,-1.1828,-1.1719,-1.1619,-1.1477,-1.1368,-1.1352,-1.161,-1.2107,-1.2406,-1.2766,-1.3262,-1.3459,-1.3502,-1.3511,-1.3562,-1.3691,-1.3913,-1.3964,-1.4386,-1.5,-1.5441,-1.5806,-1.6163,-1.6523,-1.6642,-1.651,-1.63,-1.6459,-1.6661,-1.6789,-1.6881,-1.6982,-1.7238,-1.7367,-1.7486,-1.7779,-1.7999,-1.8109,-1.8375,-1.8669,-1.8834,-1.9091,-1.9366,-1.9769,-1.9752,-1.987,-2.003,-2.0175,-2.0165,-2.0122,-2.0153,-2.0138,-2.0138,-2.0232,-2.0292,-2.03,-2.0394,-2.066,-2.0968,-2.1225,-2.1482,-2.1936,-2.2252,-2.2458,-2.2509,-2.2636,-2.2653,-2.2653,-2.2653,-2.2552,-2.2552,-2.2544,-2.2544,-2.2544,-2.2544,-2.2443,-2.2131,-2.192,-2.192,-2.1928,-2.2038,-2.2139,-2.2241,-2.2342,-2.2443,-2.2342,-2.2241,-2.2342,-2.0635,-1.9853,-1.9351,-1.8979,-1.8606,-1.8279,-1.7948,-1.7652,-1.7308,-1.696,-1.662,-1.6231,-1.5881,-1.5558,-1.5187,-1.4686,-1.414,-1.3658,-1.3409,-1.318,-1.291,-1.2676,-1.248,-1.2274,-1.2076,-1.1927,-1.1778,-1.1678,-1.1578,-1.1528,-1.1436,-1.1378,-1.1447,-1.185,-1.2321,-1.262,-1.2971,-1.3417,-1.3511,-1.3511,-1.3554,-1.3673,-1.393,-1.4076,-1.4388,-1.4776,-1.5362,-1.5615,-1.6066,-1.6528,-1.6798,-1.689,-1.6908,-1.6945,-1.6908,-1.6963,-1.7101,-1.7211,-1.7275,-1.7578,-1.7807,-1.7871,-1.8201,-1.8403,-1.8522,-1.877,-1.9081,-1.932,-1.9457,-1.9787,-2.0182,-2.0061,-2.0196,-2.0418,-2.0437,-2.0351,-2.0349,-2.0361,-2.0348,-2.0292,-2.0292,-2.03,-2.0335,-2.0497,-2.0771,-2.1105,-2.1465,-2.1824,-2.2184,-2.2372,-2.2653,-2.2653,-2.2653,-2.2653,-2.2653,-2.2653,-2.2653,-2.2653,-2.2653,-2.2653,-2.2653,-2.2653,-2.2544,-2.2434,-2.2232,-2.2131,-2.2241,-2.235,-2.2451,-2.2552,-2.2552,-2.2552,-2.2552,-2.2653,-2.2653,-2.0805,-1.9951,-1.9214,-1.8711,-1.8386,-1.8055,-1.7707,-1.7352,-1.7002,-1.665,-1.6349,-1.5957,-1.5614,-1.5334,-1.4915,-1.4408,-1.3926,-1.3515,-1.3266,-1.3084,-1.2813,-1.2569,-1.2372,-1.2175,-1.1977,-1.1778,-1.1578,-1.1477,-1.1477,-1.1477,-1.142,-1.1516,-1.173,-1.2089,-1.2492,-1.28,-1.3177,-1.3399,-1.3511,-1.3528,-1.3691,-1.3913,-1.4196,-1.4307,-1.4632,-1.5158,-1.5836,-1.5907,-1.6255,-1.6651,-1.6908,-1.6954,-1.7064,-1.7321,-1.7376,-1.7257,-1.7458,-1.7578,-1.7715,-1.7999,-1.8238,-1.8256,-1.8614,-1.8779,-1.8926,-1.9182,-1.9558,-1.9779,-1.9953,-2.0043,-2.0304,-2.0301,-2.0431,-2.0613,-2.0492,-2.0314,-2.0416,-2.0456,-2.0275,-2.0292,-2.0292,-2.0326,-2.0377,-2.06,-2.0883,-2.1242,-2.1602,-2.1987,-2.2312,-2.2424,-2.2653,-2.2653,-2.2653,-2.2653,-2.2653,-2.2653,-2.2653,-2.2653,-2.2653,-2.2653,-2.2653,-2.2653,-2.2544,-2.2544,-2.2544,-2.2443,-2.2552,-2.2653,-2.2552,-2.2552,-2.2653,-2.2653,-2.2653,-2.2653,-2.2653,-2.0491,-1.9684,-1.8874,-1.8347,-1.8042,-1.7707,-1.7352,-1.7044,-1.6693,-1.6392,-1.6032,-1.568,-1.5379,-1.5062,-1.4547,-1.4035,-1.3658,-1.3372,-1.3142,-1.2958,-1.2618,-1.2372,-1.2175,-1.1968,-1.1769,-1.1569,-1.1377,-1.1427,-1.1411,-1.1361,-1.1456,-1.1643,-1.1805,-1.2121,-1.2726,-1.293,-1.316,-1.3451,-1.3519,-1.3691,-1.3964,-1.4101,-1.4487,-1.4872,-1.5129,-1.5437,-1.6086,-1.62,-1.6419,-1.6802,-1.6917,-1.7092,-1.7358,-1.7458,-1.7706,-1.7871,-1.8027,-1.8064,-1.8119,-1.8412,-1.8641,-1.8705,-1.8971,-1.9182,-1.9259,-1.9514,-1.9825,-1.9597,-1.9913,-2.0292,-2.0425,-2.0437,-2.0483,-2.0571,-2.0613,-2.0459,-2.0482,-2.0391,-2.03,-2.0412,-2.0454,-2.0429,-2.0437,-2.0711,-2.1002,-2.1371,-2.1747,-2.2133,-2.2398,-2.2601,-2.2653,-2.2653,-2.2653,-2.2653,-2.2653,-2.2653,-2.2662,-2.2662,-2.2662,-2.2662,-2.2653,-2.2653,-2.2653,-2.2552,-2.2653,-2.2653,-2.2653,-2.2653,-2.2653,-2.2653,-2.2653,-2.2653,-2.2653,-2.2653,-2.2653,-2.0359,-2.0019,-1.8723,-1.8082,-1.7787,-1.7488,-1.7157,-1.682,-1.6479,-1.6132,-1.5768,-1.5424,-1.5017,-1.4547,-1.4082,-1.3705,-1.3467,-1.319,-1.3017,-1.2832,-1.248,-1.2234,-1.2085,-1.1819,-1.1569,-1.1444,-1.1302,-1.1285,-1.1293,-1.1268,-1.1267,-1.1576,-1.1802,-1.2128,-1.2764,-1.3025,-1.3186,-1.3432,-1.3663,-1.3922,-1.4161,-1.4495,-1.4872,-1.5215,-1.542,-1.5756,-1.6079,-1.6272,-1.6412,-1.6736,-1.6994,-1.7303,-1.7587,-1.7899,-1.8293,-1.8421,-1.8678,-1.8678,-1.855,-1.8843,-1.8971,-1.9054,-1.9219,-1.9304,-1.9498,-1.9861,-2.0057,-2.0103,-2.0161,-2.0428,-2.0633,-2.0651,-2.0659,-2.0692,-2.0572,-2.0482,-2.0391,-2.0309,-2.0343,-2.0489,-2.0643,-2.0711,-2.0797,-2.1037,-2.1336,-2.1645,-2.1978,-2.2312,-2.2576,-2.2619,-2.2653,-2.2653,-2.2653,-2.2653,-2.2653,-2.2653,-2.2578,-2.2586,-2.2603,-2.2696,-2.2662,-2.2653,-2.2765,-2.2722,-2.267,-2.2662,-2.267,-2.2653,-2.2653,-2.2653,-2.2653,-2.2653,-2.2653,-2.2653,-2.2653,-1.9892,-1.9837,-1.8467,-1.7787,-1.7544,-1.7186,-1.6892,-1.6565,-1.6175,-1.5824,-1.5424,-1.5017,-1.4512,-1.4082,-1.3705,-1.342,-1.3286,-1.2968,-1.2774,-1.2578,-1.2323,-1.2076,-1.1877,-1.1569,-1.1429,-1.137,-1.1216,-1.1287,-1.1329,-1.1321,-1.1346,-1.168,-1.2033,-1.2348,-1.2671,-1.3005,-1.3258,-1.3557,-1.4013,-1.4298,-1.4495,-1.4915,-1.5189,-1.542,-1.5617,-1.5876,-1.607,-1.6413,-1.6572,-1.6856,-1.7378,-1.7715,-1.7954,-1.833,-1.8678,-1.8843,-1.9072,-1.9081,-1.899,-1.9091,-1.9265,-1.9329,-1.9476,-1.9597,-1.9898,-2.012,-2.0323,-2.0314,-2.043,-2.0616,-2.0738,-2.0628,-2.0628,-2.0538,-2.0473,-2.0382,-2.0335,-2.0454,-2.0566,-2.0686,-2.0908,-2.1234,-2.1336,-2.1482,-2.1704,-2.1961,-2.2235,-2.2601,-2.2653,-2.2653,-2.2653,-2.2653,-2.267,-2.2679,-2.2687,-2.2687,-2.2603,-2.2715,-2.2732,-2.2818,-2.3006,-2.2937,-2.3023,-2.2903,-2.2842,-2.2732,-2.2826,-2.2689,-2.2653,-2.2653,-2.2653,-2.2653,-2.2653,-2.2653,-2.2653,-1.8805,-1.8681,-1.7976,-1.7516,-1.7186,-1.685,-1.6565,-1.6188,-1.5824,-1.5367,-1.4869,-1.4373,-1.3952,-1.3621,-1.3372,-1.3142,-1.292,-1.2774,-1.2567,-1.2311,-1.2094,-1.1917,-1.176,-1.1567,-1.1413,-1.15,-1.1391,-1.1426,-1.1559,-1.1519,-1.1817,-1.2323,-1.2299,-1.2586,-1.2874,-1.3096,-1.348,-1.3832,-1.4371,-1.4712,-1.4958,-1.5223,-1.5394,-1.5668,-1.5771,-1.5867,-1.6087,-1.6501,-1.6865,-1.7099,-1.7715,-1.8183,-1.8412,-1.8669,-1.8926,-1.9136,-1.9219,-1.9265,-1.9301,-1.9265,-1.9292,-1.9421,-1.9705,-2.0026,-2.0289,-2.0594,-2.0656,-2.05,-2.0544,-2.0532,-2.0456,-2.0382,-2.0391,-2.0394,-2.0446,-2.0506,-2.0591,-2.0771,-2.0865,-2.0934,-2.1182,-2.1542,-2.179,-2.1919,-2.1953,-2.2175,-2.2295,-2.2653,-2.2653,-2.2653,-2.2653,-2.2662,-2.2586,-2.2612,-2.2739,-2.2732,-2.2997,-2.3126,-2.3177,-2.3314,-2.346,-2.3468,-2.3331,-2.3331,-2.3203,-2.3143,-2.3057,-2.298,-2.2954,-2.2739,-2.2653,-2.2653,-2.2653,-2.2653,-2.2754,-1.8323,-1.771,-1.7277,-1.7005,-1.685,-1.6582,-1.6194,-1.5824,-1.5424,-1.4915,-1.4326,-1.3905,-1.3563,-1.3276,-1.3104,-1.2861,-1.2627,-1.2431,-1.2391,-1.2286,-1.2093,-1.2018,-1.185,-1.1783,-1.1693,-1.1683,-1.1558,-1.1608,-1.1847,-1.1813,-1.2102,-1.2381,-1.2416,-1.2615,-1.2889,-1.3363,-1.3776,-1.4145,-1.4588,-1.4959,-1.5206,-1.548,-1.5651,-1.5771,-1.5805,-1.5934,-1.6249,-1.6541,-1.6896,-1.74,-1.7983,-1.8397,-1.8751,-1.8926,-1.9109,-1.9283,-1.9311,-1.9439,-1.9567,-1.9494,-1.9412,-1.9806,-2.0255,-2.0629,-2.0725,-2.0808,-2.0829,-2.0668,-2.0532,-2.0473,-2.04,-2.0309,-2.0343,-2.0322,-2.0458,-2.0636,-2.0883,-2.1071,-2.1268,-2.1371,-2.161,-2.1919,-2.2133,-2.2329,-2.2338,-2.2372,-2.2576,-2.2653,-2.2653,-2.2679,-2.2687,-2.2681,-2.2732,-2.2869,-2.292,-2.316,-2.3443,-2.3528,-2.3605,-2.3742,-2.3853,-2.3657,-2.3554,-2.3605,-2.3639,-2.352,-2.3417,-2.3331,-2.3117,-2.2783,-2.2722,-2.2653,-2.2653,-2.2754,-2.2946,-1.7721,-1.7031,-1.671,-1.657,-1.6539,-1.6281,-1.5944,-1.5513,-1.5108,-1.4558,-1.3821,-1.3525,-1.3238,-1.2968,-1.282,-1.2729,-1.2594,-1.2443,-1.2418,-1.2343,-1.2253,-1.2121,-1.21,-1.2016,-1.1776,-1.1793,-1.1816,-1.1903,-1.217,-1.2178,-1.2461,-1.2605,-1.252,-1.2742,-1.3076,-1.3653,-1.4146,-1.4446,-1.4823,-1.5093,-1.5377,-1.5556,-1.5891,-1.5951,-1.6002,-1.6191,-1.6538,-1.6911,-1.7243,-1.7734,-1.8249,-1.8629,-1.8921,-1.9118,-1.9265,-1.9338,-1.9457,-1.9641,-1.9769,-1.9861,-1.9852,-2.0338,-2.0695,-2.0985,-2.1074,-2.1123,-2.1033,-2.0791,-2.0555,-2.0434,-2.0503,-2.0523,-2.0567,-2.0679,-2.0891,-2.1088,-2.1259,-2.1439,-2.1653,-2.1833,-2.2064,-2.2252,-2.2407,-2.2578,-2.2603,-2.2552,-2.2601,-2.2653,-2.2653,-2.2687,-2.2646,-2.2775,-2.2937,-2.3109,-2.3288,-2.358,-2.3845,-2.3922,-2.4008,-2.411,-2.4136,-2.3965,-2.3965,-2.4127,-2.4102,-2.3905,-2.3751,-2.3631,-2.3271,-2.2852,-2.2834,-2.2739,-2.2754,-2.2854,-2.3046,-1.7044,-1.6667,-1.6411,-1.6312,-1.6238,-1.5957,-1.5603,-1.521,-1.4789,-1.4186,-1.343,-1.3104,-1.2861,-1.2693,-1.2665,-1.2599,-1.2632,-1.2663,-1.265,-1.2465,-1.2325,-1.2201,-1.2051,-1.1906,-1.1953,-1.2081,-1.2043,-1.2142,-1.249,-1.2482,-1.2696,-1.3012,-1.3068,-1.3116,-1.3179,-1.3977,-1.4368,-1.451,-1.5093,-1.5317,-1.5508,-1.5735,-1.6028,-1.6182,-1.631,-1.6516,-1.685,-1.7345,-1.7681,-1.8115,-1.8617,-1.8946,-1.9228,-1.9311,-1.9384,-1.9393,-1.9732,-1.9925,-1.998,-2.0292,-2.0631,-2.0879,-2.1099,-2.131,-2.1514,-2.15,-2.1374,-2.1157,-2.0884,-2.085,-2.0812,-2.0883,-2.0951,-2.1043,-2.1258,-2.1516,-2.1687,-2.1922,-2.2038,-2.2141,-2.2347,-2.2653,-2.2681,-2.2792,-2.2835,-2.2766,-2.2705,-2.2687,-2.2782,-2.2885,-2.292,-2.3074,-2.328,-2.3468,-2.3699,-2.4008,-2.423,-2.4307,-2.4376,-2.4444,-2.453,-2.4496,-2.4556,-2.4667,-2.4513,-2.4256,-2.4085,-2.3922,-2.3711,-2.3618,-2.3108,-2.3045,-2.3033,-2.3108,-2.348,-1.6778,-1.6411,-1.602,-1.5768,-1.5647,-1.5525,-1.5222,-1.4754,-1.4129,-1.3563,-1.3055,-1.2774,-1.266,-1.2614,-1.2541,-1.2591,-1.2716,-1.2552,-1.2505,-1.27,-1.2488,-1.2388,-1.2225,-1.2139,-1.2106,-1.2095,-1.2096,-1.2243,-1.2513,-1.2584,-1.285,-1.3173,-1.3557,-1.3759,-1.3886,-1.4305,-1.4616,-1.4765,-1.5084,-1.5355,-1.5539,-1.5956,-1.6315,-1.6469,-1.661,-1.6901,-1.7321,-1.7718,-1.7996,-1.8417,-1.8913,-1.9109,-1.9341,-1.9512,-1.9714,-1.9797,-2.0099,-2.0448,-2.0714,-2.1053,-2.12,-2.1282,-2.1392,-2.1585,-2.1642,-2.1744,-2.1726,-2.1642,-2.1481,-2.1488,-2.1483,-2.132,-2.1283,-2.1556,-2.1727,-2.2004,-2.2158,-2.227,-2.2398,-2.2407,-2.2636,-2.2766,-2.2937,-2.3211,-2.3297,-2.3357,-2.3263,-2.3203,-2.3358,-2.3427,-2.3425,-2.3545,-2.3708,-2.3888,-2.4102,-2.4342,-2.4496,-2.4564,-2.4624,-2.4693,-2.4787,-2.4821,-2.4804,-2.4744,-2.4684,-2.4598,-2.4645,-2.4581,-2.4631,-2.4448,-2.4114,-2.3841,-2.3882,-2.3897,-2.4104,-1.6466,-1.6076,-1.568,-1.5334,-1.5119,-1.5085,-1.4754,-1.4197,-1.3563,-1.3035,-1.2744,-1.2572,-1.2466,-1.2491,-1.2565,-1.2633,-1.2819,-1.27,-1.2555,-1.2797,-1.2508,-1.239,-1.2342,-1.2313,-1.2174,-1.215,-1.221,-1.2371,-1.2531,-1.2603,-1.292,-1.3377,-1.3917,-1.4183,-1.4395,-1.4553,-1.4617,-1.4864,-1.516,-1.5516,-1.5761,-1.6181,-1.6619,-1.6798,-1.7013,-1.7355,-1.7709,-1.8031,-1.8268,-1.8736,-1.9039,-1.9263,-1.956,-1.9861,-2.0108,-2.0237,-2.0503,-2.0897,-2.1282,-2.1676,-2.175,-2.1658,-2.1823,-2.1915,-2.1925,-2.2144,-2.2206,-2.2164,-2.2079,-2.2039,-2.1961,-2.1777,-2.1853,-2.203,-2.2192,-2.2355,-2.2498,-2.2492,-2.2526,-2.2552,-2.2783,-2.2997,-2.3254,-2.3562,-2.3811,-2.3896,-2.3965,-2.3879,-2.3768,-2.3768,-2.3819,-2.3948,-2.405,-2.4179,-2.4367,-2.459,-2.4727,-2.4812,-2.4821,-2.4821,-2.4821,-2.4821,-2.4821,-2.4821,-2.4863,-2.5032,-2.5261,-2.5357,-2.5297,-2.5424,-2.5299,-2.504,-2.4825,-2.4697,-2.4696,-1.6107,-1.5748,-1.5447,-1.5074,-1.4708,-1.4605,-1.4176,-1.3563,-1.317,-1.2754,-1.233,-1.2516,-1.2474,-1.2369,-1.2668,-1.2845,-1.2881,-1.2879,-1.2728,-1.261,-1.2464,-1.2351,-1.2166,-1.2065,-1.2049,-1.2148,-1.2292,-1.2352,-1.2508,-1.296,-1.3279,-1.3592,-1.4063,-1.4455,-1.4652,-1.4773,-1.4775,-1.5016,-1.543,-1.5766,-1.6005,-1.6505,-1.6945,-1.7235,-1.7441,-1.7804,-1.8108,-1.8425,-1.87,-1.9021,-1.939,-1.9698,-1.998,-2.0319,-2.0457,-2.0668,-2.0979,-2.1392,-2.1722,-2.2116,-2.23,-2.2245,-2.2364,-2.2373,-2.2456,-2.261,-2.2717,-2.2713,-2.2658,-2.2558,-2.2514,-2.2414,-2.242,-2.2503,-2.2449,-2.2619,-2.2619,-2.2653,-2.2578,-2.2732,-2.3074,-2.3348,-2.3657,-2.3965,-2.4213,-2.429,-2.4324,-2.4264,-2.4153,-2.4008,-2.4085,-2.4264,-2.4359,-2.4444,-2.4616,-2.4753,-2.4795,-2.4821,-2.4821,-2.4821,-2.4821,-2.4821,-2.4812,-2.4915,-2.5128,-2.5331,-2.567,-2.5889,-2.6063,-2.61,-2.5992,-2.5865,-2.5539,-2.5267,-2.5181,-1.5888,-1.5558,-1.5074,-1.4697,-1.428,-1.3742,-1.3351,-1.3122,-1.2696,-1.2463,-1.2516,-1.2158,-1.2303,-1.2702,-1.2638,-1.2705,-1.2775,-1.274,-1.2581,-1.2436,-1.2251,-1.212,-1.1949,-1.1854,-1.1888,-1.2003,-1.2123,-1.2373,-1.2846,-1.3319,-1.357,-1.3765,-1.4263,-1.4633,-1.493,-1.5098,-1.5205,-1.5471,-1.5818,-1.5978,-1.6329,-1.6817,-1.7217,-1.7518,-1.7775,-1.8106,-1.8388,-1.8821,-1.9137,-1.948,-1.997,-2.0254,-2.0291,-2.0723,-2.1007,-2.1392,-2.1731,-2.2061,-2.2199,-2.2538,-2.2777,-2.2841,-2.2997,-2.2875,-2.2902,-2.3021,-2.3268,-2.3217,-2.3229,-2.3242,-2.3028,-2.2909,-2.2763,-2.265,-2.2653,-2.2653,-2.267,-2.2756,-2.2816,-2.3126,-2.346,-2.3768,-2.4068,-2.4324,-2.4556,-2.4641,-2.4658,-2.4581,-2.4504,-2.4359,-2.4324,-2.4496,-2.4573,-2.4633,-2.4684,-2.4812,-2.4812,-2.4821,-2.4821,-2.4821,-2.4821,-2.4812,-2.4915,-2.5128,-2.545,-2.5815,-2.6299,-2.64,-2.6354,-2.6464,-2.6381,-2.6299,-2.6171,-2.5888,-2.5687,-1.5603,-1.5232,-1.4731,-1.4222,-1.3637,-1.3074,-1.2773,-1.2719,-1.2466,-1.2326,-1.2281,-1.2229,-1.231,-1.2547,-1.2527,-1.2534,-1.2581,-1.2421,-1.2251,-1.1996,-1.1956,-1.1796,-1.1692,-1.1638,-1.1761,-1.1883,-1.2119,-1.2369,-1.2933,-1.3542,-1.3844,-1.394,-1.4381,-1.4828,-1.5158,-1.5498,-1.574,-1.5991,-1.6312,-1.6387,-1.6735,-1.7108,-1.7488,-1.7766,-1.8066,-1.8374,-1.8714,-1.9295,-1.963,-1.9951,-2.0455,-2.0741,-2.0869,-2.1255,-2.163,-2.1907,-2.2098,-2.2391,-2.2537,-2.2838,-2.3021,-2.3185,-2.3538,-2.3611,-2.3602,-2.3666,-2.3749,-2.3804,-2.3781,-2.3827,-2.3538,-2.3247,-2.2946,-2.2644,-2.2653,-2.2653,-2.2739,-2.2944,-2.3195,-2.3528,-2.3879,-2.4196,-2.447,-2.471,-2.4821,-2.4787,-2.477,-2.4744,-2.4718,-2.4658,-2.4616,-2.4701,-2.4744,-2.4787,-2.4821,-2.4821,-2.4932,-2.4821,-2.4821,-2.4821,-2.4812,-2.5026,-2.5119,-2.545,-2.578,-2.6154,-2.6518,-2.65,-2.6582,-2.6591,-2.6591,-2.6518,-2.6454,-2.6362,-2.6215,-1.5232,-1.4812,-1.4316,-1.3637,-1.2977,-1.2665,-1.2443,-1.2368,-1.2334,-1.221,-1.2052,-1.2362,-1.2406,-1.2349,-1.2429,-1.2358,-1.2243,-1.2065,-1.1879,-1.1582,-1.167,-1.1581,-1.1546,-1.1556,-1.1805,-1.2004,-1.2235,-1.2466,-1.2942,-1.3462,-1.3923,-1.4026,-1.4495,-1.4975,-1.5479,-1.572,-1.6028,-1.646,-1.6685,-1.6888,-1.7075,-1.7523,-1.801,-1.8151,-1.8482,-1.8815,-1.9243,-1.9716,-2.0077,-2.0525,-2.0888,-2.1145,-2.1484,-2.1786,-2.2153,-2.2391,-2.2562,-2.2717,-2.2984,-2.3268,-2.3423,-2.3703,-2.3923,-2.3996,-2.3987,-2.3969,-2.3996,-2.4005,-2.4026,-2.3845,-2.3646,-2.3347,-2.3046,-2.2736,-2.2636,-2.2644,-2.2696,-2.2988,-2.3522,-2.3836,-2.4196,-2.4487,-2.4624,-2.4821,-2.4821,-2.4821,-2.4821,-2.4821,-2.4821,-2.4821,-2.4821,-2.4821,-2.4923,-2.4923,-2.4923,-2.5034,-2.5043,-2.4932,-2.4932,-2.5043,-2.5145,-2.5238,-2.5441,-2.578,-2.6017,-2.6245,-2.6482,-2.6582,-2.6591,-2.6591,-2.6591,-2.6591,-2.6564,-2.6527,-2.649,-1.4823,-1.4455,-1.3647,-1.3016,-1.2607,-1.2457,-1.2226,-1.1954,-1.2178,-1.2257,-1.2258,-1.219,-1.2238,-1.2218,-1.2174,-1.2058,-1.1817,-1.1747,-1.1498,-1.1425,-1.1397,-1.1516,-1.1525,-1.1539,-1.1826,-1.2179,-1.2388,-1.2725,-1.3312,-1.3719,-1.3997,-1.437,-1.4741,-1.5152,-1.5637,-1.5871,-1.6234,-1.6786,-1.7115,-1.7284,-1.7448,-1.7836,-1.832,-1.8496,-1.8877,-1.9262,-1.9665,-2.0084,-2.0494,-2.0957,-2.1383,-2.1704,-2.2034,-2.2245,-2.2492,-2.2701,-2.3058,-2.324,-2.351,-2.3758,-2.3969,-2.4015,-2.4134,-2.4143,-2.4152,-2.4161,-2.417,-2.417,-2.4152,-2.3954,-2.3746,-2.3546,-2.3238,-2.2937,-2.2662,-2.2679,-2.2603,-2.3272,-2.3848,-2.4119,-2.4487,-2.4658,-2.4787,-2.4821,-2.4821,-2.4821,-2.4821,-2.4821,-2.4923,-2.4923,-2.4923,-2.4923,-2.5128,-2.5128,-2.5128,-2.5247,-2.5247,-2.5357,-2.5357,-2.5357,-2.5476,-2.5578,-2.578,-2.6017,-2.6245,-2.6473,-2.6582,-2.6582,-2.6591,-2.6591,-2.6591,-2.6591,-2.6591,-2.6564,-2.6573,-1.4569,-1.4093,-1.3228,-1.2723,-1.2471,-1.2279,-1.2128,-1.1983,-1.1969,-1.198,-1.2054,-1.1964,-1.1943,-1.1988,-1.1802,-1.1637,-1.1457,-1.1373,-1.1241,-1.1182,-1.1211,-1.1303,-1.1411,-1.1536,-1.1784,-1.2069,-1.2517,-1.2968,-1.3593,-1.4073,-1.4338,-1.4634,-1.4896,-1.5316,-1.5746,-1.6093,-1.6428,-1.6976,-1.7383,-1.7714,-1.7863,-1.828,-1.8583,-1.8862,-1.9341,-1.9722,-2.0157,-2.057,-2.0995,-2.1405,-2.1786,-2.2181,-2.252,-2.2804,-2.2988,-2.3349,-2.3643,-2.3813,-2.4039,-2.426,-2.4527,-2.4546,-2.4638,-2.4757,-2.4794,-2.4785,-2.4464,-2.4427,-2.4198,-2.4053,-2.3854,-2.3646,-2.3447,-2.3138,-2.2851,-2.269,-2.3107,-2.3619,-2.4153,-2.4479,-2.4701,-2.4735,-2.4821,-2.4821,-2.4821,-2.4821,-2.4821,-2.4821,-2.4923,-2.5136,-2.5136,-2.5136,-2.5348,-2.545,-2.5459,-2.5459,-2.5569,-2.5679,-2.5789,-2.5798,-2.5806,-2.5907,-2.6127,-2.6245,-2.6473,-2.6473,-2.6591,-2.6591,-2.6591,-2.6591,-2.6591,-2.6591,-2.6591,-2.6591,-2.6591,-1.4309,-1.3747,-1.291,-1.2516,-1.235,-1.2061,-1.2019,-1.2049,-1.183,-1.1647,-1.1564,-1.1593,-1.1553,-1.149,-1.1367,-1.1241,-1.1171,-1.1175,-1.1091,-1.1009,-1.1062,-1.1191,-1.1313,-1.1397,-1.1747,-1.2216,-1.2625,-1.3138,-1.3629,-1.4135,-1.4451,-1.4703,-1.5136,-1.559,-1.5937,-1.6262,-1.6552,-1.7175,-1.7733,-1.8217,-1.8421,-1.8676,-1.8956,-1.9376,-1.9852,-2.0316,-2.0633,-2.1105,-2.1509,-2.188,-2.219,-2.2593,-2.2933,-2.3235,-2.374,-2.4068,-2.4337,-2.4542,-2.4799,-2.4987,-2.5016,-2.5034,-2.5338,-2.5353,-2.5353,-2.5188,-2.4867,-2.4684,-2.4455,-2.4354,-2.4154,-2.3935,-2.3835,-2.3678,-2.3349,-2.3201,-2.3776,-2.417,-2.4436,-2.4846,-2.4906,-2.4932,-2.4932,-2.4932,-2.4932,-2.4932,-2.4932,-2.4923,-2.5034,-2.5348,-2.5459,-2.5569,-2.5789,-2.5789,-2.5798,-2.5907,-2.5907,-2.6017,-2.6136,-2.6026,-2.6136,-2.6245,-2.6354,-2.6473,-2.6591,-2.6591,-2.6591,-2.6591,-2.6591,-2.6691,-2.6591,-2.6591,-2.6591,-2.6591,-2.67,-1.4,-1.292,-1.2274,-1.207,-1.2026,-1.1847,-1.176,-1.1783,-1.1661,-1.1516,-1.1303,-1.1003,-1.094,-1.1206,-1.1203,-1.1163,-1.1001,-1.1069,-1.0946,-1.0872,-1.1082,-1.1224,-1.135,-1.1487,-1.1951,-1.2394,-1.2843,-1.3267,-1.375,-1.4198,-1.459,-1.4968,-1.5162,-1.5619,-1.6073,-1.6377,-1.6784,-1.7413,-1.8075,-1.8556,-1.8987,-1.9196,-1.9485,-1.9858,-2.026,-2.0561,-2.0997,-2.1563,-2.1889,-2.2254,-2.2612,-2.3015,-2.3441,-2.3805,-2.4207,-2.4758,-2.513,-2.5336,-2.5543,-2.5657,-2.5657,-2.5591,-2.5795,-2.5623,-2.5623,-2.55,-2.5307,-2.5307,-2.5142,-2.5087,-2.4957,-2.4808,-2.4593,-2.4544,-2.4315,-2.458,-2.5058,-2.4966,-2.4998,-2.5318,-2.5459,-2.5467,-2.5467,-2.5467,-2.5467,-2.5357,-2.5357,-2.5357,-2.5357,-2.5569,-2.578,-2.6008,-2.6127,-2.6127,-2.6127,-2.6245,-2.6364,-2.6364,-2.6364,-2.6364,-2.6364,-2.6482,-2.6591,-2.6591,-2.6591,-2.6591,-2.6591,-2.6691,-2.6691,-2.6691,-2.6691,-2.6591,-2.6582,-2.6691,-2.68]},{"header":{"parameterUnit":"m.s-1","parameterCategory":1,"la1":31.0,"la2":29.5877,"lo1":-88.7671,"lo2":-86.6584,"dy":0.0162,"dx":0.0185,"nx":115,"ny":88,"refTime":"2023-06-23T12:00:00:Z","depth":0,"parameterNumber":3,"parameterNumberName":"V-component_of_WINDS"},"data":[0.0,0.0,0.0,0.0,0.0,0.0,0.0,0.0,0.0,0.0,0.0,0.0,0.0,0.0,0.0,0.0,0.0,0.0,0.0,0.0,0.0,0.0,0.0,0.0,0.0,0.0,0.0,0.0,0.0,0.0,0.0,0.0,0.0,0.0,0.0,0.0,0.0,0.0,0.0,0.0,0.0,0.0,0.0,0.0,0.0,0.0,0.0,0.0,0.0,0.0,0.0,0.0,0.0,0.0,0.0,0.0,0.0,0.0,0.0,0.0,0.0,0.0,0.0,0.0,0.0,0.0,0.0,0.0,0.0,0.0,0.0,0.0,0.0,0.0,0.0,0.0,0.0,0.0,0.0,0.0,0.0,0.0,0.0,0.0,0.0,0.0,0.0,0.0,0.0,0.0,0.0,0.0,0.0,0.0,0.0,0.0,0.0,0.0,0.0,0.0,0.0,0.0,0.0,0.0,0.0,0.0,0.0,0.0,0.0,0.0,0.0,0.0,0.0,0.0,0.0,0.0,0.0,0.0,0.0,0.0,0.0,0.0,0.0,0.0,0.0,0.0,0.0,0.0,0.0,0.0,0.0,0.0,0.0,0.0,0.0,0.0,0.0,0.0,0.0,0.0,0.0,0.0,0.0,0.0,0.0,0.0,0.0,0.0,0.0,0.0,0.0,0.0,0.0,0.0,0.0,0.0,0.0,0.0,0.0,0.0,0.0,0.0,0.0,0.0,0.0,0.0,0.0,0.0,0.0,0.0,0.0,0.0,0.0,0.0,0.0,0.0,0.0,0.0,0.0,0.0,0.0,0.0,0.0,0.0,0.0,0.0,0.0,0.0,0.0,0.0,0.0,0.0,0.0,0.0,0.0,0.0,0.0,0.0,0.0,0.0,0.0,0.0,0.0,0.0,0.0,0.0,0.0,0.0,0.0,0.0,0.0,0.0,0.0,0.0,0.0,0.0,0.0,0.0,0.0,0.0,0.0,0.0,0.0,0.0,0.0,0.0,0.0,0.0,0.0,0.0,0.0,0.0,0.0,0.0,0.0,0.0,0.0,0.0,0.0,0.0,0.0,0.0,0.0,0.0,0.0,0.0,0.0,0.0,0.0,0.0,0.0,0.0,0.0,0.0,0.0,0.0,0.0,0.0,0.0,0.0,0.0,0.0,0.0,0.0,0.0,0.0,0.0,0.0,0.0,0.0,0.0,0.0,0.0,0.0,0.0,0.0,0.0,0.0,0.0,0.0,0.0,0.0,0.0,0.0,0.0,0.0,0.0,0.0,0.0,0.0,0.0,0.0,0.0,0.0,0.0,0.0,0.0,0.0,0.0,0.0,0.0,0.0,0.0,0.0,0.0,0.0,0.0,0.0,0.0,0.0,0.0,0.0,0.0,0.0,0.0,0.0,0.0,0.0,0.0,0.0,0.0,0.0,0.0,0.0,0.0,0.0,0.0,0.0,0.0,0.0,0.0,0.0,0.0,0.0,0.0,0.0,0.0,0.0,0.0,0.0,0.0,0.0,0.0,0.0,0.0,0.0,0.0,0.0,0.0,0.0,0.0,0.0,0.0,0.0,0.0,0.0,0.0,0.0,0.0,0.0,0.0,0.0,0.0,0.0,0.0,0.0,0.0,0.0,0.0,0.0,0.0,0.0,0.0,0.0,0.0,0.0,0.0,0.0,0.0,0.0,0.0,0.0,0.0,0.0,0.0,0.0,0.0,0.0,0.0,0.0,0.0,0.0,0.0,0.0,0.0,0.0,0.0,0.0,0.0,0.0,0.0,0.0,0.0,0.0,0.0,0.0,0.0,0.0,0.0,0.0,0.0,0.0,0.0,0.0,0.0,0.0,0.0,0.0,0.0,0.0,0.0,0.0,0.0,0.0,0.0,0.0,0.0,0.0,0.0,0.0,0.0,0.0,0.0,0.0,0.0,0.0,0.0,0.0,0.0,0.0,0.0,0.0,0.0,0.0,0.0,0.0,0.0,0.0,0.0,0.0,0.0,0.0,0.0,0.0,0.0,0.0,0.0,0.0,0.0,0.0,0.0,0.0,0.0,0.0,0.0,0.0,0.0,0.0,0.0,0.0,0.0,0.0,0.0,0.0,0.0,0.0,0.0,0.0,0.0,0.0,0.0,0.0,0.0,0.0,0.0,0.0,0.0,0.0,0.0,0.0,0.0,0.0,0.0,0.0,0.0,0.0,0.0,0.0,0.0,0.0,0.0,0.0,0.0,0.0,0.0,0.0,0.0,0.0,0.0,0.0,0.0,0.0,0.0,0.0,0.0,0.0,0.0,0.0,0.0,0.0,0.0,0.0,0.0,0.0,0.0,0.0,0.0,0.0,0.0,0.0,0.0,0.0,0.0,0.0,0.0,0.0,0.0,0.0,0.0,0.0,0.0,0.0,0.0,0.0,0.0,0.0,0.0,0.0,0.0,0.0,0.0,0.0,0.0,0.0,0.0,0.0,0.0,0.0,0.0,0.0,0.0,0.0,0.0,0.0,0.0,0.0,0.0,0.0,0.0,0.0,0.0,0.0,0.0,0.0,0.0,0.0,0.0,0.0,0.0,0.0,0.0,0.0,0.0,0.0,0.0,0.0,0.0,0.0,0.0,0.0,0.0,0.0,0.0,0.0,0.0,0.0,0.0,0.0,0.0,0.0,0.0,0.0,0.0,0.0,0.0,0.0,0.0,0.0,0.0,0.0,0.0,0.0,0.0,0.0,0.0,0.0,0.0,0.0,0.0,0.0,0.0,0.0,0.0,0.0,0.0,0.0,0.0,0.0,0.0,0.0,0.0,0.0,0.0,0.0,0.0,0.0,0.0,0.0,0.0,0.0,0.0,0.0,0.0,0.0,0.0,0.0,0.0,0.0,0.0,0.0,0.0,0.0,0.0,0.0,0.0,0.0,0.0,0.0,0.0,0.0,0.0,0.0,0.0,0.0,0.0,0.0,0.0,0.0,0.0,0.0,0.0,0.0,0.0,0.0,0.0,0.0,0.0,0.0,0.0,0.0,0.0,0.0,0.0,0.0,0.0,0.0,0.0,0.0,0.0,0.0,0.0,0.0,0.0,0.0,0.0,0.0,0.0,0.0,0.0,0.0,0.0,0.0,0.0,0.0,0.0,0.0,0.0,0.0,0.0,0.0,0.0,0.0,0.0,0.0,0.0,0.0,0.0,0.0,0.0,0.0,0.0,0.0,0.0,0.0,0.0,0.0,0.0,0.0,0.0,0.0,0.0,0.0,0.0,0.0,0.0,0.0,0.0,0.0,0.0,0.0,0.0,0.0,0.0,0.0,0.0,0.0,0.0,0.0,0.0,0.0,0.0,0.0,0.0,0.0,0.0,0.0,0.0,0.0,0.0,0.0,0.0,0.0,0.0,0.0,0.0,0.0,0.0,0.0,0.0,0.0,0.0,0.0,0.0,0.0,0.0,0.0,0.0,0.0,0.0,0.0,0.0,0.0,0.0,0.0,0.0,0.0,0.0,0.0,0.0,0.0,0.0,0.0,0.0,0.0,0.0,0.0,0.0,0.0,0.0,0.0,0.0,0.0,0.0,0.0,0.0,0.0,0.0,0.0,0.0,0.0,0.0,0.0,0.0,0.0,0.0,0.0,0.0,0.0,0.0,0.0,0.0,0.0,0.0,0.0,0.0,0.0,0.0,0.0,0.0,0.0,0.0,0.0,0.0,0.0,0.0,0.0,0.0,0.0,0.0,0.0,0.0,0.0,0.0,0.0,0.0,0.0,0.0,0.0,0.0,0.0,0.0,0.0,0.0,0.0,0.0,0.0,0.0,0.0,0.0,0.0,0.0,0.0,0.0,0.0,0.0,0.0,0.0,0.0,0.0,0.0,0.0,0.0,0.0,0.0,0.0,0.0,0.0,0.0,0.0,0.0,0.0,0.0,0.0,0.0,0.0,0.0,0.0,0.0,0.0,0.0,0.0,0.0,0.0,0.0,0.0,0.0,0.0,0.0,0.0,0.0,0.0,0.0,0.0,0.0,0.0,0.0,0.0,0.0,0.0,0.0,0.0,0.0,0.0,0.0,0.0,0.0,0.0,0.0,0.0,0.0,0.0,0.0,0.0,0.0,0.0,0.0,0.0,0.0,0.0,0.0,0.0,0.0,0.0,0.0,0.0,0.0,0.0,0.0,0.0,0.0,0.0,0.0,0.0,0.0,0.0,0.0,0.0,0.0,0.0,0.0,0.0,0.0,0.0,0.0,0.0,0.0,0.0,0.0,0.0,0.0,0.0,0.0,0.0,0.0,0.0,0.0,-1.1108,0.0,0.0,0.0,0.0,0.0,0.0,0.0,0.0,0.0,0.0,0.0,0.0,0.0,0.0,0.0,0.0,0.0,0.0,0.0,0.0,0.0,0.0,0.0,0.0,0.0,0.0,0.0,0.0,0.0,0.0,0.0,0.0,0.0,0.0,0.0,0.0,0.0,0.0,0.0,0.0,0.0,0.0,0.0,0.0,0.0,0.0,0.0,0.0,0.0,0.0,0.0,0.0,0.0,0.0,0.0,0.0,0.0,0.0,0.0,0.0,0.0,0.0,0.0,0.0,0.0,0.0,0.0,0.0,0.0,0.0,0.0,0.0,0.0,0.0,0.0,0.0,0.0,0.0,0.0,0.0,0.0,0.0,0.0,0.0,0.0,0.0,0.0,0.0,0.0,0.0,0.0,0.0,0.0,0.0,0.0,0.0,0.0,0.0,0.0,0.0,0.0,0.0,0.0,0.0,0.0,0.0,0.0,0.0,0.0,0.0,-1.4015,-1.3332,-1.2669,-1.2215,-1.2039,0.0,0.0,0.0,0.0,0.0,0.0,0.0,0.0,0.0,0.0,0.0,0.0,0.0,0.0,0.0,0.0,0.0,0.0,0.0,0.0,0.0,0.0,0.0,0.0,0.0,0.0,0.0,0.0,0.0,0.0,0.0,0.0,0.0,0.0,0.0,0.0,0.0,0.0,0.0,0.0,0.0,0.0,0.0,0.0,0.0,0.0,0.0,0.0,0.0,0.0,0.0,0.0,0.0,0.0,0.0,0.0,0.0,0.0,0.0,0.0,0.0,0.0,0.0,0.0,0.0,0.0,0.0,0.0,0.0,0.0,0.0,0.0,0.0,0.0,0.0,0.0,0.0,0.0,0.0,0.0,0.0,0.0,0.0,0.0,0.0,0.0,0.0,0.0,0.0,0.0,0.0,0.0,0.0,0.0,0.0,0.0,0.0,0.0,0.0,0.0,0.0,0.0,0.0,0.0,0.0,0.0,0.0,0.0,0.0,0.0,0.0,0.0,-1.3453,-1.3161,-1.3214,0.0,0.0,0.0,0.0,0.0,0.0,0.0,0.0,0.0,0.0,0.0,0.0,0.0,0.0,0.0,0.0,0.0,0.0,0.0,0.0,0.0,0.0,0.0,0.0,0.0,0.0,0.0,0.0,0.0,0.0,0.0,0.0,0.0,0.0,0.0,0.0,0.0,0.0,0.0,0.0,0.0,0.0,0.0,0.0,0.0,0.0,0.0,0.0,0.0,0.0,0.0,0.0,0.0,0.0,0.0,0.0,0.0,0.0,0.0,0.0,0.0,0.0,0.0,0.0,0.0,0.0,0.0,0.0,0.0,0.0,0.0,0.0,0.0,0.0,0.0,0.0,0.0,0.0,0.0,0.0,0.0,0.0,0.0,0.0,0.0,0.0,0.0,0.0,0.0,0.0,0.0,0.0,0.0,0.0,0.0,0.0,0.0,0.0,0.0,0.0,0.0,0.0,0.0,0.0,0.0,0.0,0.0,0.0,0.0,0.0,-1.561,-1.5849,-1.5314,0.0,-1.453,0.0,0.0,0.0,0.0,0.0,0.0,0.0,0.0,0.0,0.0,0.0,0.0,0.0,0.0,0.0,0.0,0.0,0.0,0.0,0.0,0.0,0.0,0.0,0.0,0.0,0.0,0.0,0.0,0.0,0.0,0.0,0.0,0.0,0.0,0.0,0.0,0.0,0.0,0.0,0.0,0.0,0.0,0.0,0.0,0.0,0.0,0.0,0.0,0.0,0.0,0.0,0.0,0.0,0.0,0.0,0.0,0.0,0.0,0.0,0.0,0.0,0.0,0.0,0.0,0.0,0.0,0.0,0.0,0.0,0.0,0.0,0.0,0.0,0.0,0.0,0.0,0.0,0.0,0.0,0.0,0.0,0.0,0.0,0.0,0.0,0.0,0.0,0.0,0.0,0.0,0.0,0.0,0.0,0.0,0.0,0.0,0.0,0.0,0.0,0.0,0.0,0.0,0.0,0.0,0.0,0.0,0.0,0.0,0.0,0.0,-1.6483,-1.6453,-1.621,-1.595,0.0,0.0,0.0,0.0,0.0,0.0,0.0,0.0,0.0,0.0,0.0,0.0,0.0,0.0,0.0,0.0,0.0,0.0,0.0,0.0,0.0,0.0,0.0,0.0,0.0,0.0,0.0,0.0,0.0,0.0,0.0,0.0,0.0,0.0,0.0,0.0,0.0,0.0,0.0,0.0,0.0,0.0,0.0,0.0,0.0,0.0,0.0,0.0,0.0,0.0,0.0,0.0,0.0,0.0,0.0,0.0,0.0,0.0,0.0,0.0,0.0,0.0,0.0,0.0,0.0,0.0,0.0,0.0,0.0,0.0,0.0,0.0,0.0,0.0,0.0,0.0,0.0,0.0,0.0,0.0,0.0,0.0,0.0,0.0,0.0,0.0,0.0,0.0,0.0,0.0,0.0,0.0,0.0,0.0,0.0,0.0,0.0,0.0,0.0,0.0,0.0,0.0,0.0,0.0,0.0,0.0,0.0,0.0,0.0,0.0,-1.7279,-1.7354,-1.7266,-1.7107,-1.7016,-1.697,0.0,0.0,0.0,0.0,0.0,0.0,0.0,0.0,0.0,0.0,0.0,0.0,0.0,0.0,0.0,0.0,0.0,0.0,0.0,0.0,0.0,0.0,0.0,0.0,0.0,0.0,0.0,0.0,0.0,0.0,0.0,0.0,0.0,0.0,0.0,0.0,0.0,0.0,0.0,0.0,0.0,0.0,0.0,0.0,0.0,0.0,0.0,0.0,0.0,0.0,0.0,0.0,0.0,0.0,0.0,0.0,0.0,0.0,0.0,0.0,0.0,0.0,0.0,0.0,0.0,0.0,0.0,0.0,0.0,0.0,0.0,0.0,0.0,0.0,0.0,0.0,0.0,0.0,0.0,0.0,0.0,0.0,0.0,0.0,0.0,0.0,0.0,0.0,0.0,0.0,0.0,0.0,0.0,0.0,0.0,0.0,0.0,0.0,0.0,0.0,0.0,0.0,0.0,0.0,0.0,0.0,0.0,0.0,-1.8507,-1.8366,-1.836,-1.8556,-1.8301,-1.8149,0.0,0.0,0.0,0.0,0.0,0.0,0.0,0.0,0.0,0.0,0.0,0.0,0.0,0.0,0.0,0.0,0.0,0.0,0.0,0.0,0.0,0.0,0.0,0.0,0.0,0.0,0.0,0.0,0.0,0.0,0.0,0.0,0.0,0.0,0.0,0.0,0.0,0.0,0.0,0.0,0.0,0.0,0.0,0.0,0.0,0.0,0.0,0.0,0.0,0.0,0.0,0.0,0.0,0.0,0.0,0.0,0.0,0.0,0.0,0.0,0.0,0.0,0.0,0.0,0.0,0.0,0.0,0.0,0.0,0.0,0.0,0.0,0.0,0.0,0.0,0.0,0.0,0.0,0.0,0.0,0.0,0.0,0.0,0.0,0.0,0.0,0.0,0.0,0.0,0.0,0.0,0.0,0.0,0.0,0.0,0.0,0.0,0.0,0.0,0.0,0.0,0.0,0.0,0.0,0.0,0.0,0.0,0.0,0.0,-1.861,-1.8839,-1.8883,-1.8807,-1.8582,-1.8426,0.0,0.0,0.0,0.0,0.0,0.0,0.0,0.0,0.0,0.0,0.0,0.0,0.0,0.0,0.0,0.0,0.0,0.0,0.0,0.0,0.0,0.0,0.0,0.0,0.0,0.0,0.0,0.0,0.0,0.0,0.0,0.0,0.0,0.0,0.0,0.0,0.0,0.0,0.0,0.0,0.0,0.0,0.0,0.0,0.0,0.0,0.0,0.0,0.0,0.0,0.0,0.0,0.0,0.0,0.0,0.0,0.0,0.0,0.0,0.0,0.0,0.0,0.0,0.0,0.0,0.0,0.0,0.0,0.0,0.0,0.0,0.0,0.0,0.0,0.0,0.0,0.0,0.0,0.0,0.0,0.0,0.0,0.0,0.0,0.0,0.0,0.0,0.0,0.0,0.0,0.0,0.0,0.0,0.0,0.0,0.0,0.0,0.0,0.0,0.0,0.0,0.0,0.0,0.0,0.0,0.0,0.0,0.0,0.0,-1.8934,0.0,-1.9198,-1.8967,-1.8751,-1.8544,0.0,0.0,0.0,0.0,0.0,0.0,0.0,0.0,0.0,0.0,0.0,0.0,0.0,0.0,0.0,0.0,0.0,0.0,0.0,0.0,0.0,0.0,0.0,0.0,0.0,0.0,0.0,0.0,0.0,0.0,0.0,0.0,0.0,0.0,0.0,0.0,0.0,0.0,0.0,0.0,0.0,0.0,0.0,0.0,0.0,0.0,0.0,0.0,0.0,0.0,0.0,0.0,0.0,0.0,0.0,0.0,0.0,0.0,0.0,0.0,0.0,0.0,0.0,0.0,0.0,0.0,0.0,0.0,0.0,0.0,0.0,0.0,0.0,0.0,0.0,0.0,0.0,0.0,0.0,0.0,0.0,0.0,0.0,0.0,0.0,0.0,0.0,0.0,0.0,0.0,0.0,0.0,0.0,0.0,0.0,0.0,0.0,0.0,0.0,0.0,0.0,0.0,0.0,0.0,0.0,0.0,0.0,0.0,-1.9005,-1.9572,-1.9475,-1.9314,-1.9104,-1.8789,-1.8545,0.0,0.0,0.0,0.0,0.0,0.0,0.0,0.0,0.0,0.0,0.0,0.0,0.0,0.0,0.0,0.0,0.0,0.0,0.0,0.0,0.0,0.0,0.0,0.0,0.0,0.0,0.0,0.0,0.0,0.0,0.0,0.0,0.0,0.0,0.0,0.0,0.0,0.0,0.0,0.0,0.0,0.0,0.0,0.0,0.0,0.0,0.0,0.0,0.0,0.0,0.0,0.0,0.0,0.0,0.0,0.0,0.0,0.0,0.0,0.0,0.0,0.0,0.0,0.0,0.0,0.0,0.0,0.0,0.0,0.0,0.0,0.0,0.0,0.0,0.0,0.0,0.0,0.0,0.0,0.0,0.0,0.0,0.0,0.0,0.0,0.0,0.0,0.0,0.0,0.0,0.0,0.0,0.0,0.0,0.0,0.0,0.0,0.0,0.0,0.0,0.0,0.0,0.0,0.0,0.0,0.0,0.0,0.0,0.0,-1.9656,-1.9577,-1.9448,-1.9256,-1.8964,-1.8698,0.0,0.0,0.0,0.0,0.0,0.0,0.0,0.0,0.0,0.0,0.0,0.0,0.0,0.0,0.0,0.0,0.0,0.0,0.0,0.0,0.0,0.0,0.0,0.0,0.0,0.0,0.0,0.0,0.0,0.0,0.0,0.0,0.0,0.0,0.0,0.0,0.0,0.0,0.0,0.0,0.0,0.0,0.0,0.0,0.0,0.0,0.0,0.0,0.0,0.0,0.0,0.0,0.0,0.0,0.0,0.0,0.0,0.0,0.0,0.0,0.0,0.0,0.0,0.0,0.0,0.0,0.0,0.0,0.0,0.0,0.0,0.0,0.0,0.0,0.0,0.0,0.0,0.0,0.0,0.0,0.0,0.0,0.0,0.0,0.0,0.0,0.0,0.0,0.0,0.0,0.0,0.0,0.0,0.0,0.0,0.0,0.0,0.0,0.0,0.0,0.0,0.0,0.0,0.0,0.0,0.0,0.0,0.0,0.0,-2.0313,-2.0247,-1.9951,-1.9457,-1.9491,-1.9199,-1.8607,0.0,0.0,0.0,0.0,0.0,0.0,0.0,0.0,0.0,0.0,0.0,0.0,0.0,0.0,0.0,0.0,0.0,0.0,0.0,0.0,0.0,0.0,0.0,0.0,0.0,0.0,0.0,0.0,0.0,0.0,0.0,0.0,0.0,0.0,0.0,0.0,0.0,0.0,0.0,0.0,0.0,0.0,0.0,0.0,0.0,0.0,0.0,0.0,0.0,0.0,0.0,0.0,0.0,0.0,0.0,0.0,0.0,0.0,0.0,0.0,0.0,0.0,0.0,0.0,0.0,0.0,0.0,0.0,0.0,0.0,0.0,0.0,0.0,0.0,0.0,0.0,0.0,0.0,0.0,0.0,0.0,0.0,0.0,0.0,0.0,0.0,0.0,0.0,0.0,0.0,0.0,0.0,0.0,0.0,0.0,0.0,0.0,0.0,0.0,0.0,0.0,0.0,0.0,0.0,0.0,0.0,0.0,0.0,-2.1372,-2.1338,-2.0849,-1.9949,-2.034,-2.0037,0.0,0.0,0.0,0.0,0.0,0.0,0.0,0.0,0.0,0.0,0.0,0.0,0.0,0.0,0.0,0.0,0.0,0.0,0.0,0.0,0.0,0.0,0.0,0.0,0.0,0.0,0.0,0.0,0.0,0.0,0.0,0.0,0.0,0.0,0.0,0.0,0.0,0.0,0.0,0.0,0.0,0.0,0.0,0.0,0.0,0.0,0.0,0.0,0.0,0.0,0.0,0.0,0.0,0.0,0.0,0.0,0.0,0.0,0.0,0.0,0.0,0.0,0.0,0.0,0.0,0.0,0.0,0.0,0.0,0.0,0.0,0.0,0.0,0.0,0.0,0.0,0.0,0.0,0.0,0.0,0.0,0.0,0.0,0.0,0.0,0.0,0.0,0.0,0.0,0.0,0.0,0.0,0.0,0.0,0.0,0.0,0.0,0.0,0.0,0.0,0.0,0.0,0.0,0.0,0.0,0.0,0.0,0.0,0.0,-2.1455,-2.2115,-2.2286,-2.1914,-2.1825,-2.1197,0.0,0.0,0.0,0.0,0.0,0.0,0.0,0.0,0.0,0.0,0.0,0.0,0.0,0.0,0.0,0.0,0.0,0.0,0.0,0.0,0.0,0.0,0.0,0.0,0.0,0.0,0.0,0.0,0.0,0.0,0.0,0.0,0.0,0.0,0.0,0.0,0.0,0.0,0.0,0.0,0.0,0.0,0.0,0.0,0.0,0.0,0.0,0.0,0.0,0.0,0.0,0.0,0.0,0.0,0.0,0.0,0.0,0.0,0.0,0.0,0.0,0.0,0.0,0.0,0.0,0.0,0.0,0.0,0.0,0.0,0.0,0.0,0.0,0.0,0.0,0.0,0.0,0.0,0.0,0.0,0.0,0.0,0.0,0.0,0.0,0.0,0.0,0.0,0.0,0.0,0.0,0.0,0.0,0.0,0.0,0.0,0.0,0.0,0.0,0.0,0.0,0.0,0.0,0.0,0.0,0.0,0.0,0.0,-2.0745,-2.1991,-2.2589,-2.3198,-2.3817,-2.3217,-2.2153,0.0,0.0,0.0,0.0,0.0,0.0,0.0,0.0,0.0,0.0,0.0,0.0,0.0,0.0,0.0,0.0,0.0,0.0,0.0,0.0,0.0,0.0,0.0,0.0,0.0,0.0,0.0,0.0,0.0,0.0,0.0,0.0,0.0,0.0,0.0,0.0,0.0,0.0,0.0,0.0,0.0,0.0,0.0,0.0,0.0,0.0,0.0,0.0,0.0,0.0,0.0,0.0,0.0,0.0,0.0,0.0,0.0,0.0,0.0,0.0,0.0,0.0,0.0,0.0,0.0,0.0,0.0,0.0,0.0,0.0,0.0,0.0,0.0,0.0,0.0,0.0,0.0,0.0,0.0,0.0,0.0,0.0,0.0,0.0,0.0,0.0,0.0,0.0,0.0,0.0,0.0,0.0,0.0,0.0,0.0,0.0,0.0,0.0,0.0,0.0,0.0,0.0,0.0,0.0,0.0,0.0,0.0,0.0,-2.1094,-2.2687,-2.2921,-2.3772,-2.5289,-2.4448,-2.3043,0.0,0.0,0.0,0.0,0.0,0.0,0.0,0.0,0.0,0.0,0.0,0.0,0.0,0.0,0.0,0.0,0.0,0.0,0.0,0.0,0.0,0.0,0.0,0.0,0.0,0.0,0.0,0.0,0.0,0.0,0.0,0.0,0.0,0.0,0.0,0.0,0.0,0.0,0.0,0.0,0.0,0.0,0.0,0.0,0.0,0.0,0.0,0.0,0.0,0.0,0.0,0.0,0.0,0.0,0.0,0.0,0.0,0.0,0.0,0.0,0.0,0.0,0.0,0.0,0.0,0.0,0.0,0.0,0.0,0.0,0.0,0.0,0.0,0.0,0.0,0.0,0.0,0.0,0.0,0.0,0.0,0.0,0.0,0.0,0.0,0.0,0.0,0.0,0.0,0.0,0.0,0.0,0.0,0.0,0.0,0.0,0.0,0.0,0.0,0.0,0.0,0.0,0.0,0.0,0.0,0.0,0.0,0.0,-2.1662,-2.2749,-2.347,-2.4348,-2.5374,-2.5089,-2.4304,0.0,0.0,0.0,0.0,0.0,0.0,0.0,0.0,0.0,0.0,0.0,0.0,0.0,0.0,0.0,0.0,0.0,0.0,0.0,0.0,0.0,0.0,0.0,0.0,0.0,0.0,0.0,0.0,0.0,0.0,0.0,0.0,0.0,0.0,0.0,0.0,0.0,0.0,0.0,0.0,0.0,0.0,0.0,0.0,0.0,0.0,0.0,0.0,-2.5691,0.0,0.0,0.0,0.0,0.0,0.0,0.0,0.0,0.0,0.0,0.0,0.0,0.0,0.0,0.0,0.0,0.0,0.0,0.0,0.0,0.0,0.0,0.0,0.0,0.0,0.0,0.0,0.0,0.0,0.0,0.0,0.0,0.0,0.0,0.0,0.0,0.0,0.0,0.0,0.0,0.0,0.0,0.0,0.0,0.0,0.0,0.0,0.0,0.0,0.0,0.0,0.0,0.0,0.0,0.0,0.0,0.0,0.0,0.0,-2.2067,-2.3338,-2.3855,-2.449,-2.5309,-2.5281,-2.4749,0.0,0.0,0.0,0.0,0.0,0.0,0.0,0.0,0.0,0.0,0.0,0.0,0.0,0.0,0.0,0.0,0.0,0.0,0.0,0.0,0.0,0.0,0.0,0.0,0.0,0.0,0.0,0.0,0.0,0.0,0.0,0.0,0.0,0.0,0.0,0.0,0.0,0.0,0.0,0.0,0.0,0.0,0.0,0.0,0.0,0.0,0.0,0.0,0.0,0.0,0.0,0.0,0.0,0.0,0.0,0.0,0.0,0.0,0.0,0.0,0.0,0.0,0.0,0.0,0.0,0.0,0.0,0.0,0.0,0.0,0.0,0.0,0.0,0.0,0.0,0.0,0.0,0.0,0.0,0.0,0.0,0.0,0.0,0.0,0.0,0.0,0.0,0.0,0.0,0.0,0.0,0.0,0.0,0.0,0.0,0.0,0.0,0.0,0.0,0.0,0.0,0.0,0.0,0.0,0.0,0.0,0.0,-2.1603,-2.2578,-2.394,-2.4216,-2.4652,-2.5322,-2.5312,-2.484,-2.3825,0.0,0.0,0.0,0.0,0.0,0.0,0.0,0.0,0.0,0.0,0.0,0.0,0.0,0.0,0.0,0.0,0.0,0.0,0.0,0.0,0.0,0.0,0.0,0.0,0.0,0.0,0.0,0.0,0.0,0.0,0.0,0.0,0.0,0.0,0.0,0.0,0.0,0.0,-2.4399,-2.5122,0.0,0.0,0.0,0.0,0.0,0.0,0.0,0.0,-2.5529,0.0,0.0,0.0,0.0,0.0,0.0,0.0,0.0,0.0,0.0,0.0,0.0,0.0,0.0,0.0,0.0,0.0,0.0,0.0,0.0,0.0,0.0,0.0,0.0,0.0,0.0,0.0,0.0,0.0,0.0,0.0,0.0,0.0,0.0,0.0,0.0,0.0,0.0,0.0,0.0,0.0,0.0,0.0,0.0,0.0,0.0,0.0,0.0,0.0,0.0,0.0,0.0,0.0,0.0,0.0,0.0,-2.1107,-2.2743,-2.3751,-2.4085,-2.4908,-2.5379,-2.5473,-2.541,-2.4898,-2.3809,0.0,0.0,0.0,0.0,0.0,0.0,0.0,0.0,0.0,0.0,0.0,0.0,0.0,0.0,0.0,0.0,0.0,0.0,0.0,0.0,0.0,0.0,0.0,0.0,0.0,0.0,0.0,0.0,0.0,0.0,0.0,0.0,0.0,0.0,0.0,0.0,0.0,0.0,0.0,-2.5432,-2.5546,0.0,0.0,0.0,0.0,0.0,0.0,0.0,0.0,-2.5422,0.0,0.0,0.0,0.0,0.0,0.0,0.0,0.0,0.0,0.0,0.0,0.0,0.0,0.0,0.0,0.0,0.0,0.0,0.0,0.0,0.0,0.0,0.0,0.0,0.0,0.0,0.0,0.0,0.0,0.0,0.0,0.0,0.0,0.0,0.0,0.0,0.0,0.0,0.0,0.0,0.0,0.0,0.0,0.0,0.0,0.0,0.0,0.0,0.0,0.0,0.0,0.0,0.0,0.0,0.0,-2.2398,-2.3465,-2.4287,-2.4822,-2.5359,-2.5639,-2.5543,-2.5449,-2.4875,0.0,0.0,0.0,0.0,0.0,0.0,0.0,0.0,0.0,0.0,0.0,0.0,0.0,0.0,0.0,0.0,0.0,0.0,0.0,0.0,0.0,0.0,0.0,0.0,0.0,0.0,0.0,0.0,0.0,0.0,0.0,0.0,0.0,0.0,0.0,0.0,0.0,0.0,0.0,0.0,-2.5478,-2.5505,-2.5505,0.0,0.0,0.0,0.0,0.0,0.0,-2.534,-2.5303,0.0,0.0,0.0,0.0,0.0,0.0,0.0,0.0,0.0,0.0,0.0,0.0,0.0,0.0,0.0,0.0,0.0,0.0,0.0,0.0,0.0,0.0,0.0,0.0,0.0,0.0,0.0,0.0,0.0,0.0,0.0,0.0,0.0,0.0,0.0,0.0,0.0,0.0,0.0,0.0,0.0,0.0,0.0,0.0,0.0,0.0,0.0,0.0,0.0,0.0,0.0,0.0,0.0,0.0,0.0,-2.3556,-2.4044,-2.4663,-2.5467,-2.564,-2.5662,-2.5609,-2.546,-2.4865,0.0,0.0,0.0,0.0,0.0,0.0,0.0,0.0,0.0,0.0,0.0,0.0,0.0,0.0,0.0,0.0,0.0,0.0,0.0,0.0,0.0,0.0,0.0,0.0,0.0,0.0,0.0,0.0,0.0,0.0,0.0,0.0,0.0,0.0,0.0,0.0,0.0,0.0,0.0,0.0,0.0,-2.5432,-2.5395,-2.5387,0.0,0.0,0.0,0.0,-2.5522,-2.5477,0.0,0.0,0.0,0.0,0.0,0.0,0.0,0.0,0.0,0.0,0.0,0.0,0.0,0.0,0.0,0.0,0.0,0.0,0.0,0.0,0.0,0.0,0.0,0.0,0.0,0.0,0.0,0.0,0.0,0.0,0.0,0.0,0.0,0.0,0.0,0.0,0.0,0.0,0.0,0.0,0.0,0.0,0.0,0.0,0.0,0.0,0.0,0.0,0.0,0.0,0.0,0.0,0.0,0.0,0.0,0.0,-2.3612,-2.4619,-2.5302,-2.557,-2.5664,-2.5663,-2.5605,-2.5473,-2.4853,0.0,0.0,0.0,0.0,0.0,0.0,0.0,0.0,0.0,0.0,0.0,0.0,0.0,0.0,0.0,0.0,0.0,0.0,0.0,0.0,0.0,0.0,0.0,0.0,0.0,0.0,0.0,0.0,0.0,0.0,0.0,0.0,0.0,0.0,0.0,0.0,0.0,0.0,0.0,0.0,0.0,-2.5312,-2.5312,-2.5273,-2.5472,0.0,0.0,-2.6206,-2.6269,-2.6219,0.0,0.0,0.0,0.0,0.0,0.0,0.0,0.0,0.0,0.0,0.0,0.0,0.0,0.0,0.0,0.0,0.0,0.0,0.0,0.0,0.0,0.0,0.0,0.0,0.0,0.0,0.0,0.0,0.0,0.0,0.0,0.0,0.0,0.0,0.0,0.0,0.0,0.0,0.0,0.0,0.0,0.0,0.0,0.0,0.0,0.0,0.0,0.0,0.0,0.0,0.0,0.0,0.0,0.0,0.0,-2.3742,-2.4276,-2.4918,-2.5324,-2.5538,-2.5644,-2.5668,-2.5601,-2.5447,-2.4783,0.0,0.0,0.0,0.0,0.0,0.0,0.0,0.0,0.0,0.0,0.0,0.0,0.0,0.0,0.0,0.0,0.0,0.0,0.0,0.0,0.0,0.0,0.0,0.0,0.0,0.0,0.0,0.0,0.0,0.0,0.0,0.0,0.0,0.0,0.0,0.0,0.0,0.0,0.0,0.0,0.0,0.0,-2.5879,-2.6237,0.0,0.0,0.0,-2.6954,-2.6973,0.0,0.0,0.0,0.0,0.0,0.0,0.0,0.0,0.0,0.0,0.0,0.0,0.0,0.0,0.0,0.0,0.0,0.0,0.0,0.0,0.0,0.0,0.0,0.0,0.0,0.0,0.0,0.0,0.0,0.0,0.0,0.0,0.0,0.0,0.0,0.0,0.0,0.0,0.0,0.0,0.0,0.0,0.0,0.0,0.0,0.0,0.0,0.0,0.0,0.0,0.0,0.0,0.0,0.0,0.0,0.0,0.0,-2.4747,-2.5023,-2.5282,-2.5469,-2.5605,-2.564,-2.5576,-2.5404,0.0,0.0,0.0,0.0,0.0,0.0,0.0,0.0,0.0,0.0,0.0,0.0,0.0,0.0,0.0,0.0,0.0,0.0,0.0,0.0,0.0,0.0,0.0,0.0,0.0,0.0,0.0,-2.4395,0.0,0.0,0.0,0.0,0.0,0.0,0.0,0.0,0.0,0.0,0.0,0.0,0.0,0.0,-2.6403,-2.6274,-2.6949,-2.7494,0.0,0.0,-2.7638,-2.7654,-2.7654,-2.767,0.0,0.0,0.0,0.0,0.0,0.0,0.0,0.0,0.0,0.0,0.0,0.0,0.0,0.0,0.0,0.0,0.0,0.0,0.0,0.0,0.0,0.0,0.0,0.0,0.0,0.0,0.0,0.0,0.0,0.0,0.0,0.0,0.0,0.0,0.0,0.0,0.0,0.0,0.0,0.0,0.0,0.0,0.0,0.0,0.0,0.0,0.0,0.0,0.0,0.0,0.0,0.0,0.0,0.0,0.0,-2.4613,-2.4948,-2.5206,-2.5401,-2.5537,-2.5568,-2.5514,-2.5357,-2.5118,0.0,0.0,0.0,0.0,0.0,0.0,0.0,0.0,0.0,0.0,0.0,0.0,0.0,0.0,0.0,0.0,0.0,0.0,0.0,0.0,0.0,0.0,0.0,0.0,0.0,0.0,0.0,0.0,0.0,0.0,0.0,0.0,0.0,0.0,0.0,0.0,0.0,0.0,0.0,0.0,0.0,-2.6479,-2.6247,-2.6836,-2.7584,0.0,0.0,-2.8277,-2.842,-2.8366,-2.8383,-2.8499,0.0,0.0,0.0,0.0,0.0,0.0,0.0,0.0,0.0,0.0,0.0,0.0,0.0,0.0,0.0,0.0,0.0,0.0,0.0,0.0,0.0,0.0,0.0,0.0,0.0,0.0,0.0,0.0,0.0,0.0,0.0,0.0,0.0,0.0,0.0,0.0,0.0,0.0,0.0,0.0,0.0,0.0,0.0,0.0,0.0,0.0,0.0,0.0,0.0,0.0,0.0,0.0,0.0,-2.4192,-2.4604,-2.4886,-2.5148,-2.5383,-2.5486,-2.5506,-2.5511,-2.5357,-2.5196,0.0,0.0,0.0,0.0,0.0,0.0,0.0,0.0,0.0,0.0,0.0,0.0,0.0,0.0,0.0,0.0,0.0,0.0,0.0,0.0,0.0,0.0,0.0,0.0,0.0,0.0,0.0,0.0,-2.5331,-2.5359,-2.5397,0.0,0.0,0.0,0.0,0.0,0.0,0.0,0.0,0.0,0.0,-2.6639,-2.6808,-2.7947,0.0,0.0,-2.9083,-2.9064,-2.9102,-2.9158,-2.9231,-2.9266,-2.9334,0.0,0.0,0.0,0.0,0.0,0.0,0.0,0.0,0.0,0.0,0.0,0.0,0.0,0.0,0.0,0.0,0.0,0.0,0.0,0.0,0.0,0.0,0.0,0.0,0.0,0.0,0.0,0.0,0.0,0.0,0.0,0.0,0.0,0.0,0.0,0.0,0.0,0.0,0.0,0.0,0.0,0.0,0.0,0.0,0.0,0.0,0.0,0.0,0.0,0.0,0.0,0.0,-2.4116,-2.451,-2.4799,-2.505,-2.5313,-2.5418,-2.5483,-2.548,-2.5393,-2.5236,0.0,0.0,0.0,0.0,0.0,0.0,0.0,0.0,0.0,0.0,0.0,0.0,0.0,0.0,0.0,0.0,0.0,0.0,0.0,0.0,0.0,0.0,0.0,0.0,0.0,0.0,0.0,0.0,-2.5387,-2.5385,-2.5387,0.0,0.0,0.0,0.0,0.0,0.0,0.0,0.0,0.0,0.0,-2.7013,-2.7552,-2.8799,-2.9608,-2.9512,-2.9491,-2.9471,-2.9472,-2.955,-2.9626,-2.9701,0.0,0.0,0.0,0.0,0.0,0.0,0.0,0.0,0.0,0.0,0.0,0.0,0.0,0.0,0.0,0.0,0.0,0.0,0.0,0.0,0.0,0.0,0.0,0.0,0.0,0.0,0.0,0.0,0.0,0.0,0.0,0.0,0.0,0.0,0.0,0.0,0.0,0.0,0.0,0.0,0.0,0.0,0.0,0.0,0.0,0.0,0.0,0.0,0.0,0.0,0.0,0.0,0.0,-2.3978,-2.4303,-2.4632,-2.4911,-2.5111,-2.5293,-2.5401,-2.5401,-2.5401,-2.534,-2.5212,0.0,0.0,0.0,0.0,0.0,0.0,0.0,0.0,0.0,0.0,0.0,0.0,0.0,0.0,0.0,0.0,0.0,0.0,0.0,0.0,0.0,0.0,0.0,0.0,0.0,0.0,-2.539,-2.5388,-2.5395,0.0,0.0,0.0,0.0,0.0,0.0,0.0,0.0,0.0,0.0,-2.687,-2.7622,-2.8433,-2.9082,-2.9513,-2.953,-2.9468,-2.9427,-2.9468,-2.9468,-2.9491,0.0,0.0,0.0,0.0,0.0,0.0,0.0,0.0,0.0,0.0,0.0,0.0,0.0,0.0,0.0,0.0,0.0,0.0,0.0,0.0,0.0,0.0,0.0,0.0,0.0,0.0,0.0,-1.7126,-1.7626,0.0,0.0,0.0,0.0,0.0,0.0,0.0,0.0,0.0,0.0,0.0,-2.3119,-2.3313,0.0,0.0,0.0,0.0,0.0,0.0,0.0,0.0,0.0,0.0,0.0,0.0,-2.3899,-2.4229,-2.4572,-2.4823,-2.5037,-2.5233,-2.5361,-2.5397,-2.5395,-2.5331,-2.5212,0.0,0.0,0.0,0.0,0.0,0.0,0.0,0.0,0.0,0.0,0.0,0.0,0.0,0.0,0.0,0.0,0.0,0.0,0.0,0.0,0.0,0.0,0.0,0.0,0.0,-2.5379,0.0,0.0,0.0,0.0,0.0,0.0,0.0,0.0,0.0,0.0,0.0,-2.6434,-2.7086,-2.8233,-2.8912,-2.8586,-2.912,-2.9737,0.0,0.0,0.0,0.0,0.0,0.0,0.0,0.0,0.0,0.0,0.0,0.0,0.0,0.0,-3.0738,-3.0179,-3.0128,-3.0152,-3.018,0.0,0.0,0.0,0.0,0.0,0.0,0.0,0.0,0.0,0.0,0.0,0.0,0.0,0.0,0.0,0.0,-1.85,0.0,0.0,0.0,0.0,0.0,0.0,0.0,0.0,-2.296,-2.3193,-2.3378,-2.3585,-2.3674,0.0,-2.3703,-2.366,0.0,0.0,0.0,0.0,0.0,0.0,0.0,0.0,-2.384,-2.4135,-2.4493,-2.476,-2.4974,-2.5134,-2.5282,-2.537,-2.5388,-2.536,-2.5274,-2.5198,-2.5082,0.0,0.0,0.0,0.0,0.0,0.0,0.0,0.0,0.0,0.0,0.0,0.0,0.0,0.0,0.0,0.0,0.0,0.0,0.0,0.0,0.0,0.0,0.0,-2.5395,0.0,0.0,0.0,0.0,0.0,0.0,0.0,0.0,0.0,-2.6842,-2.7102,-2.7461,-2.7932,-2.9068,-2.9647,-2.9038,0.0,0.0,0.0,0.0,0.0,0.0,0.0,-3.1846,-3.1886,-3.1995,-3.204,-3.2025,-3.2466,-3.2808,-3.277,0.0,0.0,-3.0646,-3.0293,-3.0113,-3.0142,-3.0171,-3.0166,-3.0207,-3.0226,-3.024,0.0,0.0,0.0,0.0,0.0,0.0,0.0,0.0,-1.5395,-1.6065,0.0,-1.7841,0.0,0.0,0.0,0.0,0.0,0.0,0.0,0.0,-2.3168,-2.336,-2.3499,-2.3718,-2.3807,-2.3795,-2.3795,-2.3795,-2.3774,-2.3611,0.0,0.0,0.0,0.0,0.0,0.0,-2.3798,-2.3983,-2.4392,-2.4692,-2.4884,-2.5,-2.5168,-2.5292,-2.537,-2.5387,-2.5387,-2.5274,-2.5168,-2.5113,-2.4921,0.0,0.0,0.0,0.0,0.0,0.0,0.0,0.0,0.0,0.0,0.0,0.0,0.0,0.0,0.0,0.0,0.0,0.0,0.0,0.0,-2.5379,0.0,0.0,0.0,0.0,0.0,0.0,0.0,0.0,0.0,0.0,-2.7613,-2.8103,-2.8508,-2.8726,0.0,0.0,0.0,0.0,-3.0725,-3.08,-3.1377,-3.1867,-3.1894,-3.1894,-3.1916,-3.198,0.0,0.0,-3.3245,-3.2741,-3.2538,-3.3372,-3.294,-3.2201,-3.1493,-3.0779,-3.0274,-3.0255,-3.0293,-3.0217,-3.0189,-3.0376,-3.0338,-0.5645,0.0,0.0,0.0,0.0,-1.1886,-1.257,-1.3464,-1.4228,-1.505,-1.6015,-1.7092,0.0,0.0,0.0,0.0,0.0,0.0,-2.2668,-2.3028,-2.3265,-2.3476,-2.3634,-2.3761,-2.3828,-2.3858,-2.3858,-2.3837,-2.3795,-2.3725,-2.3629,-2.343,0.0,0.0,0.0,0.0,-2.3771,-2.3939,-2.4303,-2.453,-2.4689,-2.4855,-2.5043,-2.5241,-2.5303,-2.5361,-2.5388,-2.5313,-2.5262,-2.5239,-2.505,0.0,0.0,0.0,0.0,0.0,0.0,0.0,0.0,0.0,0.0,0.0,0.0,0.0,0.0,0.0,0.0,0.0,0.0,0.0,-2.5459,-2.5412,-2.5395,0.0,0.0,0.0,0.0,0.0,0.0,0.0,0.0,0.0,-2.9201,-2.8954,-2.892,0.0,0.0,-3.0067,-3.0581,-3.0734,-3.1175,-3.2313,0.0,0.0,0.0,-3.3491,-3.351,-3.3533,-3.3599,-3.372,-3.4057,-3.3974,-3.3963,-3.425,-3.3692,-3.311,-3.2902,-3.231,-3.1846,-3.1808,-3.1844,-3.1876,-3.1876,-3.1876,-3.1857,-0.3767,-0.5774,-0.7441,-0.8711,-0.9651,-1.0281,-1.1099,-1.2061,-1.3014,-1.4043,-1.5174,-1.6391,-1.7572,-1.8727,-1.9899,0.0,0.0,0.0,-2.2685,-2.3028,-2.3265,-2.3453,-2.3629,-2.3721,-2.3807,-2.3855,-2.3873,-2.3834,-2.3795,-2.3768,-2.3696,-2.3522,0.0,0.0,-2.3407,-2.3634,-2.3807,-2.3917,-2.4191,-2.4428,-2.4578,-2.479,-2.4981,-2.5145,-2.5222,-2.5274,-2.5361,-2.5322,-2.5302,-2.5252,-2.5153,-2.5038,0.0,0.0,0.0,0.0,0.0,0.0,0.0,0.0,0.0,0.0,0.0,-2.5214,-2.5209,0.0,0.0,0.0,-2.5378,-2.5412,-2.5456,-2.5421,0.0,0.0,0.0,0.0,0.0,0.0,0.0,-2.7471,-2.8041,-2.876,-2.9801,-2.9539,-2.9428,-2.9902,-3.0179,-3.0487,-3.0904,0.0,-3.207,-3.3015,-3.3636,-3.416,-3.4593,-3.4927,-3.5131,-3.515,-3.5194,-3.5231,-3.5347,-3.5418,-3.5487,-3.5477,-3.5208,-3.4934,-3.4955,-3.4641,-3.3904,-3.2746,-3.2496,-3.2514,-3.2547,-3.2566,-3.2566,-0.2625,-0.3732,-0.5638,-0.709,-0.8047,-0.8856,-0.9784,-1.0864,-1.1913,-1.312,-1.4389,-1.576,-1.7122,-1.8482,-2.02,0.0,0.0,-2.2276,-2.2605,-2.2893,-2.3126,-2.336,-2.3476,-2.3629,-2.3725,-2.3813,-2.3807,-2.3807,-2.3813,-2.3743,-2.3656,-2.3585,-2.3539,-2.3471,-2.3407,-2.3674,-2.3828,-2.3896,-2.4153,-2.4357,-2.4495,-2.476,-2.4947,-2.5057,-2.5145,-2.5201,-2.5271,-2.5271,-2.5271,-2.5212,-2.5195,-2.5144,-2.5025,0.0,0.0,0.0,0.0,0.0,0.0,0.0,0.0,0.0,0.0,0.0,0.0,0.0,0.0,0.0,-2.5395,0.0,-2.5401,-2.5395,0.0,0.0,0.0,-2.522,-2.5187,-2.5149,-2.5749,-2.7388,0.0,0.0,-2.968,0.0,-2.9973,-2.9973,-3.0563,-3.1036,-3.1091,-3.2355,-3.3276,-3.3376,-3.4593,-3.5546,-3.5506,-3.6036,-3.6424,-3.6443,-3.6591,-3.6552,-3.6645,-3.6714,-3.682,-3.6844,-3.7014,-3.7051,-3.713,-3.7024,-3.6354,-3.345,-3.292,-3.2918,-3.3105,-3.3143,-3.32,-0.246,-0.335,-0.4611,-0.5973,-0.7396,-0.8455,-0.954,-1.0712,-1.1913,-1.3178,-1.4538,-1.5752,-1.7382,-1.9273,-2.0261,-2.1007,-2.1584,-2.1982,-2.2409,-2.2764,-2.2952,-2.3168,-2.3354,-2.3476,-2.3611,-2.3743,-2.3765,-2.3804,-2.3807,-2.3721,-2.3656,-2.3585,-2.3539,-2.3494,-2.3494,-2.3634,-2.3743,-2.3828,-2.4034,-2.4266,-2.4495,-2.4657,-2.4779,-2.4884,-2.4929,-2.5038,-2.513,-2.5149,-2.5172,-2.5198,-2.5141,-2.512,-2.5089,-2.4972,0.0,0.0,0.0,0.0,0.0,0.0,0.0,0.0,0.0,-2.5214,-2.5212,0.0,-2.5243,0.0,-2.5387,-2.5395,-2.5395,-2.536,0.0,0.0,-2.5231,-2.5176,-2.5118,-2.5113,-2.5704,-2.7258,-2.7437,-2.8036,-2.9616,-3.0301,-3.0641,-3.0659,-3.0791,-3.1372,-3.2593,-3.3493,-3.425,-3.4791,-3.5669,-3.6303,-3.6297,-3.6389,-3.6574,-3.6518,-3.6582,-3.6618,-3.6644,-3.6731,-3.6814,-3.6858,-3.6937,-3.7009,-3.7108,-3.715,-3.7009,-3.6233,-3.609,-3.6151,-3.6151,-3.6094,-3.6134,-0.2963,-0.3796,-0.4783,-0.5987,-0.7343,-0.8137,-0.9228,-1.0517,-1.1715,-1.3024,-1.4435,-1.6176,-1.784,-1.9413,-2.0174,-2.0828,-2.1401,-2.1823,-2.2215,-2.2579,-2.2816,-2.3003,-2.3168,-2.3313,-2.3471,-2.3611,-2.3652,-2.3674,-2.3718,-2.3674,-2.3629,-2.3562,-2.3517,-2.3494,-2.3499,-2.3634,-2.3721,-2.3804,-2.4014,-2.4266,-2.4445,-2.4545,-2.466,-2.4723,-2.4813,-2.4898,-2.4947,-2.4993,-2.5032,-2.5063,-2.5057,-2.5051,-2.5063,-2.4959,-2.4898,0.0,0.0,0.0,0.0,0.0,0.0,0.0,0.0,0.0,0.0,0.0,-2.5252,-2.5351,-2.537,-2.5361,-2.5361,-2.5332,-2.5292,-2.5261,-2.5217,-2.5172,-2.5113,-2.5076,-2.5658,-2.7233,-2.7361,-2.7921,-2.9548,-3.0396,-3.0974,-3.1289,-3.1643,-3.2313,-3.3527,-3.433,-3.5052,-3.5784,-3.6591,-3.7202,-3.7478,-3.7495,-3.7514,-3.7524,-3.7581,-3.7637,-3.7664,-3.7755,-3.7817,-3.7888,-3.794,-3.8009,-3.8078,-3.8153,-3.822,-3.8225,-3.8277,-3.806,-3.7426,-3.7297,-3.7297,-0.3796,-0.4684,-0.5555,-0.6583,-0.7652,-0.8178,-0.9117,-1.0415,-1.1616,-1.2966,-1.4505,-1.6777,-1.8316,-1.9207,-2.0,-2.0679,-2.1246,-2.1661,-2.2032,-2.2349,-2.2632,-2.2816,-2.297,-2.3102,-2.3265,-2.3448,-2.3471,-2.3494,-2.3562,-2.3562,-2.3557,-2.3494,-2.3494,-2.3494,-2.3517,-2.3611,-2.3739,-2.3807,-2.4034,-2.4228,-2.4376,-2.4445,-2.4513,-2.4582,-2.4679,-2.4757,-2.4783,-2.4827,-2.487,-2.4874,-2.4934,-2.4972,-2.4977,-2.4917,-2.4884,0.0,-2.4749,0.0,0.0,0.0,0.0,0.0,0.0,0.0,0.0,-2.5206,-2.5228,-2.529,-2.5301,-2.5301,-2.5301,-2.529,-2.525,-2.5198,-2.5172,-2.5194,-2.5222,-2.5202,-2.5759,-2.7339,-2.7433,-2.799,-2.9626,-3.0469,-3.119,-3.1942,-3.2804,-3.361,-3.4365,-3.5113,-3.5803,-3.6546,-3.7312,-3.8022,-3.8516,-3.875,-3.8848,-3.8891,-3.9091,-3.9206,-3.9293,-3.9379,-3.9417,-3.9491,-3.9537,-3.9556,-3.9682,-3.9731,-3.9802,-3.9795,-3.9846,-3.9414,-3.8116,-3.7725,-3.7596,-0.4625,-0.5226,-0.6095,-0.7224,-0.8442,-0.9377,-1.0364,-1.1266,-1.2316,-1.3961,-1.594,-1.7229,-1.8212,-1.9006,-1.9788,-2.0395,-2.0925,-2.1433,-2.1797,-2.2101,-2.236,-2.2596,-2.2764,-2.297,-2.3095,-2.3193,-2.3289,-2.3336,-2.336,-2.3407,-2.343,-2.3407,-2.3471,-2.3494,-2.3499,0.0,0.0,0.0,-2.3955,-2.4094,-2.4228,-2.4284,-2.4375,-2.4429,-2.4465,0.0,-2.4647,-2.4663,-2.4711,-2.4817,-2.4832,0.0,0.0,0.0,0.0,0.0,0.0,0.0,0.0,0.0,0.0,0.0,-2.5025,-2.5063,-2.5125,-2.5184,-2.5217,-2.5228,-2.5228,-2.5209,-2.5209,-2.5153,-2.5111,-2.5115,-2.5063,-2.5291,-2.5887,-2.5934,-2.6484,-2.8007,-2.8198,-2.8746,-3.0163,-3.1123,-3.1875,-3.2659,-3.3956,-3.5106,-3.5864,-3.614,-3.6565,-3.7274,-3.8063,-3.8517,-3.8719,-3.9276,-3.9662,-3.9748,-4.0325,-4.0714,-4.0757,-4.0903,-4.103,-4.1051,-4.1166,-4.1166,-4.1232,-4.1315,-4.1269,-4.1334,-4.1343,-4.0929,-3.9508,-3.9156,-3.9151,-0.5496,0.0,-0.7004,-0.8019,0.0,-1.0254,-1.1258,-1.2209,-1.3044,-1.4584,-1.6539,-1.738,-1.8173,-1.893,-1.9588,-2.0204,-2.0712,-2.1214,-2.1587,-2.1869,-2.2209,-2.2432,-2.2623,-2.2747,-2.2902,-2.3045,-2.3168,-2.3217,-2.3265,-2.3313,-2.336,-2.3401,-2.3448,-2.3471,-2.3494,-2.3539,-2.3616,-2.3795,-2.3876,-2.3976,-2.4094,-2.4171,-2.421,-2.4247,0.0,0.0,0.0,0.0,0.0,0.0,0.0,0.0,0.0,0.0,0.0,-2.4802,-2.4776,-2.4772,-2.4842,-2.4842,-2.4856,-2.494,-2.4959,-2.4999,-2.5076,-2.5144,-2.5137,-2.5137,-2.5137,-2.5137,-2.5094,-2.5075,-2.5208,-2.5545,-2.5525,-2.5815,-2.6519,-2.6634,-2.7052,-2.8127,-2.8652,-2.9302,-3.0451,-3.1607,-3.2551,-3.3308,-3.4426,-3.5625,-3.6701,-3.6988,-3.7421,-3.8541,-3.8995,-3.9423,-3.9845,-4.0175,-4.0487,-4.0561,-4.0882,-4.1167,-4.1248,-4.1379,-4.1508,-4.1549,-4.1611,-4.1651,-4.1649,-4.169,-4.1765,-4.1744,-4.1773,-4.1595,-4.0825,-4.0675,-4.0694,-0.6426,-0.7122,-0.7919,-0.8817,-0.9762,-1.0821,-1.2021,-1.3256,0.0,0.0,0.0,-1.7421,-1.8133,-1.8893,-1.9442,-2.0015,-2.0597,-2.1055,-2.1402,-2.1694,-2.2065,-2.2321,-2.246,-2.2605,-2.2764,-2.2927,-2.3045,-2.3095,-2.3168,-2.3241,-2.3295,-2.336,-2.3378,-2.3407,-2.3494,-2.3494,-2.3571,-2.3732,-2.3774,-2.3855,-2.3976,-2.4036,-2.4074,-2.4074,-2.4135,-2.421,-2.4266,-2.4339,-2.4375,-2.4391,-2.4495,-2.4582,-2.458,-2.465,-2.4714,-2.4776,-2.4714,-2.4711,-2.4798,-2.4821,-2.4836,-2.487,-2.487,-2.4931,-2.5012,-2.5076,-2.5057,-2.5057,-2.5209,-2.5253,-2.5208,-2.5329,-2.5621,-2.6237,-2.6223,-2.6507,-2.727,-2.7326,-2.7661,-2.8558,-2.9225,-2.9901,-3.0936,-3.2157,-3.3257,-3.4007,-3.4972,-3.6056,-3.7477,-3.7985,-3.8407,-3.9447,-3.9836,-4.0258,-4.0859,-4.1207,-4.128,-4.1332,-4.1507,-4.1595,-4.1627,-4.1741,-4.1853,-4.2051,-4.1964,-4.2043,-4.2043,-4.2143,-4.2057,-4.2073,-4.2124,-4.2164,-4.2164,-4.2164,-4.2033,-0.709,-0.767,-0.8402,-0.9235,-1.0167,-1.1108,-1.2433,-1.4071,-1.5073,-1.5952,-1.6765,-1.7462,-1.8147,-1.886,-1.942,-1.996,-2.0444,-2.0925,-2.1294,0.0,-2.1857,-2.2089,-2.2338,-2.2515,-2.2659,-2.2764,-2.2868,-2.297,-2.3045,-2.3095,-2.3168,-2.3241,-2.3289,-2.3336,-2.3424,-2.3424,-2.3494,-2.3629,-2.3743,-2.381,-2.3816,-2.3937,-2.4016,-2.4034,-2.4094,-2.4133,-2.4209,-2.421,-2.4284,-2.4393,-2.4482,-2.4515,-2.4512,-2.4582,-2.465,-2.4717,-2.4682,-2.4748,-2.4772,-2.4825,-2.4821,-2.4827,-2.4817,-2.4817,-2.4842,-2.4903,-2.4931,-2.495,-2.5542,-2.5958,-2.5981,-2.6465,-2.6858,-2.7024,-2.6987,-2.727,-2.8047,-2.8125,-2.861,-2.9965,-3.029,-3.0905,-3.2158,-3.3125,-3.3945,-3.4788,-3.6076,-3.7478,-3.8757,-3.9355,-3.9429,-3.9707,-4.0239,-4.0693,-4.1126,-4.1583,-4.1983,-4.2139,-4.2653,-4.2981,-4.3048,-4.3082,-4.3148,-4.3398,-4.3315,-4.3365,-4.3407,-4.349,-4.3398,-4.3352,-4.3347,-4.3402,-4.3347,-4.3365,-4.3113,-0.7889,-0.8349,-0.9033,-0.9865,-1.0736,-1.2098,-1.3304,-1.4525,-1.5421,-1.6107,-1.6625,-1.7338,-1.7988,-1.8655,-1.9273,-1.9782,-2.0273,-2.0778,-2.1151,-2.145,-2.1721,-2.1974,-2.222,-2.2377,-2.2515,-2.2649,-2.2738,-2.2842,-2.2919,-2.2977,-2.3095,-2.3144,-2.3241,-2.3313,-2.3336,-2.3383,-2.3448,-2.3494,-2.3611,-2.3721,-2.3789,-2.3871,-2.3894,-2.3896,-2.3996,-2.4056,-2.4094,-2.4152,-2.4228,-2.4284,-2.4321,-2.4357,-2.4374,-2.4464,-2.4515,-2.458,-2.4599,-2.4615,-2.4679,-2.4729,-2.4729,-2.4692,-2.4729,-2.4901,-2.5263,-2.4982,-2.4972,-2.5386,-2.5819,-2.618,-2.6597,-2.6942,-2.7315,-2.7702,-2.768,-2.7972,-2.8725,-2.9188,-2.9672,-3.0428,-3.1167,-3.2053,-3.3154,-3.389,-3.4859,-3.5969,-3.7489,-3.8769,-3.9501,-4.0354,-4.0899,-4.0935,-4.1245,-4.1628,-4.2028,-4.2411,-4.2774,-4.2862,-4.319,-4.3444,-4.3532,-4.3548,-4.3634,-4.3667,-4.3734,-4.38,-4.3804,-4.3778,-4.3796,-4.3789,-4.3804,-4.3804,-4.3804,-4.3804,-4.356,-0.8626,-0.9033,-0.9658,-1.0482,-1.1451,-1.2929,-1.4035,-1.4709,-1.5478,-1.6064,-1.6565,-1.7227,-1.7908,-1.8553,-1.9101,-1.9617,-2.01,-2.0613,-2.1007,-2.1277,-2.1617,-2.1915,-2.2135,-2.2265,-2.2394,-2.2552,-2.2649,-2.2712,-2.2816,-2.2919,-2.2977,-2.3077,-2.3193,-2.3241,-2.3283,-2.3336,-2.336,-2.3424,-2.3517,-2.3607,-2.3761,-2.3783,-2.3807,-2.3813,-2.3935,-2.3976,-2.3978,-2.4094,-2.417,-2.417,-2.4209,-2.4229,-2.4266,-2.4358,-2.4411,-2.4461,-2.4479,-2.4497,-2.4547,-2.4599,-2.4708,-2.4845,-2.4881,-2.52,-2.58,-2.5461,-2.5417,-2.6014,-2.6332,-2.6707,-2.7232,-2.755,-2.7811,-2.839,-2.8565,-2.8872,-2.9476,-3.018,-3.0715,-3.093,-3.1861,-3.2892,-3.3872,-3.4619,-3.5672,-3.7189,-3.8664,-3.9504,-3.9835,-4.0997,-4.1832,-4.2159,-4.2195,-4.2395,-4.3069,-4.3124,-4.3178,-4.334,-4.334,-4.3376,-4.3428,-4.3497,-4.3566,-4.3566,-4.3634,-4.3686,-4.3738,-4.371,-4.3695,-4.3689,-4.3652,-4.3652,-4.3618,-4.3618,-4.3686,-0.9159,-0.9569,-1.0138,-1.1099,-1.2304,-1.3228,-1.3999,-1.4697,-1.5433,-1.6064,-1.6595,-1.7338,-1.7988,-1.8577,-1.902,-1.9515,-2.0041,-2.0509,-2.0876,-2.123,-2.1542,-2.1827,-2.2044,-2.2192,-2.2377,-2.2515,-2.2579,-2.2659,-2.279,-2.2816,-2.2893,-2.2995,-2.302,-2.3095,-2.3175,-2.3217,-2.3265,-2.3401,-2.3407,-2.3476,-2.3607,-2.3739,-2.3804,-2.3804,-2.3855,-2.3896,-2.3917,-2.3976,-2.4054,-2.4094,-2.417,-2.4209,-2.421,-2.4266,-2.4321,-2.4412,-2.4412,-2.4429,-2.4444,-2.4424,-2.4816,-2.5485,-2.5542,-2.5857,-2.6597,-2.6577,-2.6559,-2.6878,-2.7473,-2.7807,-2.8049,-2.8584,-2.8977,-2.9154,-2.9675,-3.0207,-3.0275,-3.0881,-3.1561,-3.2261,-3.2419,-3.3003,-3.4462,-3.5375,-3.644,-3.7881,-3.8932,-3.9784,-4.0419,-4.1216,-4.2086,-4.2594,-4.2811,-4.2867,-4.3086,-4.3104,-4.3123,-4.3214,-4.3214,-4.3251,-4.3286,-4.334,-4.3411,-4.3446,-4.3463,-4.3513,-4.3497,-4.3499,-4.3503,-4.3666,-4.3541,-4.3378,-4.3269,-4.3433,-4.3559,-0.9784,-1.0138,-1.0702,-1.1601,-1.2783,-1.3515,-1.4233,-1.4926,-1.5534,-1.6182,-1.6837,-1.7421,-1.7948,-1.8461,-1.8983,-1.9464,-1.9925,-2.0426,-2.0876,-2.1215,-2.1511,-2.1768,-2.1998,-2.2073,-2.2231,-2.2432,-2.246,-2.2569,-2.2685,-2.2764,-2.2868,-2.2995,-2.2995,-2.3045,-2.3126,-2.3193,-2.3223,-2.3307,-2.3313,-2.3383,-2.3494,-2.3607,-2.3678,-2.3743,-2.3792,-2.3837,-2.3855,-2.3937,-2.4016,-2.4036,-2.4074,-2.4113,-2.4152,-2.4171,-2.4209,-2.4284,-2.4707,-2.4948,-2.4986,-2.5391,-2.5796,-2.6223,-2.6164,-2.6473,-2.7243,-2.7313,-2.7475,-2.7938,-2.8006,-2.8144,-2.8581,-2.8946,-2.9289,-2.9697,-3.006,-3.0405,-3.0831,-3.1528,-3.2145,-3.2465,-3.3249,-3.4109,-3.5211,-3.6367,-3.7494,-3.8614,-3.9498,-4.0275,-4.1071,-4.1904,-4.2466,-4.281,-4.29,-4.2938,-4.2994,-4.2975,-4.3031,-4.3123,-4.3141,-4.316,-4.3196,-4.3214,-4.3305,-4.3323,-4.3394,-4.3376,-4.3304,-4.3743,-4.4017,-4.4017,-4.4455,-4.4545,-4.427,-4.4435,-4.4528,-1.0403,-1.0761,-1.1418,-1.2246,-1.3218,-1.3858,-1.4512,-1.5244,-1.57,-1.6355,-1.7034,-1.753,-1.8002,-1.8397,-1.8921,-1.9391,-1.9823,-2.0392,-2.0843,-2.1183,-2.1466,-2.1738,-2.194,-2.1998,-2.213,-2.2377,-2.2405,-2.246,-2.2605,-2.2712,-2.2842,-2.297,-2.2977,-2.302,-2.3095,-2.3168,-2.3193,-2.3199,-2.3223,-2.3313,-2.3383,-2.3494,-2.3585,-2.3674,-2.3747,-2.3753,-2.3771,-2.3855,-2.3935,-2.3937,-2.3937,-2.3996,-2.4074,-2.4074,-2.4185,-2.4498,-2.5193,-2.5635,-2.5676,-2.6164,-2.6603,-2.683,-2.6823,-2.7127,-2.7798,-2.7981,-2.8208,-2.8579,-2.8529,-2.8631,-2.8842,-2.913,-2.9512,-3.0033,-3.0381,-3.0964,-3.1452,-3.2353,-3.3001,-3.3063,-3.4111,-3.5204,-3.5995,-3.723,-3.8474,-3.9067,-4.0022,-4.0871,-4.154,-4.2226,-4.2806,-4.2824,-4.2824,-4.2844,-4.29,-4.29,-4.2956,-4.2994,-4.3049,-4.3068,-4.3123,-4.3142,-4.3415,-4.3579,-4.3524,-4.3743,-4.4163,-4.4543,-4.4722,-4.4778,-4.5087,-4.5433,-4.4976,-4.5306,-4.5231,-1.1023,-1.1368,-1.2274,-1.2958,-1.3621,-1.414,-1.4789,-1.5513,-1.602,-1.657,-1.7076,-1.7693,-1.8175,-1.8503,-1.8936,-1.9384,-1.9839,-2.0308,-2.0728,-2.1135,-2.1466,-2.1724,-2.1899,-2.1969,-2.213,-2.2394,-2.2405,-2.246,-2.2596,-2.2659,-2.2764,-2.2893,-2.2902,-2.297,-2.3095,-2.3119,-2.3126,-2.3193,-2.3217,-2.3241,-2.3295,-2.336,-2.3471,-2.3585,-2.3656,-2.37,-2.3721,-2.3721,-2.3747,-2.3795,-2.3816,-2.3876,-2.3994,-2.4051,-2.4433,-2.5108,-2.5889,-2.6344,-2.6366,-2.6472,-2.68,-2.7424,-2.7601,-2.7898,-2.8615,-2.8773,-2.8796,-2.8685,-2.9293,-2.9435,-2.9107,-2.9587,-3.0006,-3.0236,-3.1391,-3.2073,-3.2206,-3.3454,-3.4297,-3.433,-3.4929,-3.5792,-3.6568,-3.8043,-3.887,-3.9409,-4.0416,-4.1387,-4.1605,-4.2199,-4.2577,-4.2649,-4.2631,-4.267,-4.2862,-4.2862,-4.2862,-4.29,-4.2918,-4.301,-4.2956,-4.3066,-4.3577,-4.3996,-4.4179,-4.4581,-4.5219,-4.5451,-4.5446,-4.5479,-4.5551,-4.5602,-4.5802,-4.5457,-4.5512,-1.1619,-1.2224,-1.2793,-1.3334,-1.3915,-1.4384,-1.4971,-1.5591,-1.6095,-1.6667,-1.7256,-1.7787,-1.8279,-1.8721,-1.9101,-1.9457,-1.9839,-2.0392,-2.081,-2.1087,-2.145,-2.1724,-2.1899,-2.1969,-2.2101,-2.2293,-2.2377,-2.246,-2.2579,-2.2676,-2.2764,-2.2876,-2.2902,-2.297,-2.3095,-2.3119,-2.3119,-2.3144,-2.3144,-2.3168,-2.3223,-2.3265,-2.3313,-2.3424,-2.3562,-2.3629,-2.3611,-2.3678,-2.3721,-2.3747,-2.3747,-2.3981,-2.449,-2.5014,-2.5393,-2.5755,-2.6477,-2.6935,-2.7013,-2.7423,-2.782,-2.816,-2.8634,-2.8959,-2.9331,-2.9737,-3.0035,-3.0044,-3.0206,-3.0269,-3.0206,-3.0342,-3.0713,-3.1265,-3.1799,-3.2582,-3.336,-3.4078,-3.4591,-3.5026,-3.5693,-3.6448,-3.7255,-3.8276,-3.9118,-3.9711,-4.0682,-4.1471,-4.2049,-4.2465,-4.2609,-4.2609,-4.2609,-4.2609,-4.267,-4.2709,-4.2709,-4.2765,-4.282,-4.3183,-4.333,-4.3625,-4.4044,-4.4735,-4.4974,-4.5137,-4.5682,-4.6041,-4.6069,-4.6558,-4.6553,-4.6427,-4.6848,-4.6445,-4.6535,-1.2215,-1.2803,-1.318,-1.3658,-1.415,-1.4605,-1.5187,-1.5768,-1.6281,-1.685,-1.7434,-1.7908,-1.8344,-1.8822,-1.9288,-1.9654,-1.9945,-2.046,-2.0843,-2.1151,-2.1466,-2.1678,-2.1899,-2.1969,-2.2101,-2.2321,-2.2432,-2.2497,-2.2579,-2.2659,-2.2764,-2.2876,-2.2902,-2.297,-2.3095,-2.3119,-2.3119,-2.3119,-2.3119,-2.3102,-2.3168,-2.3193,-2.3217,-2.3289,-2.3424,-2.3534,-2.3539,-2.3585,-2.3755,-2.3997,-2.4051,-2.4392,-2.5165,-2.5955,-2.6386,-2.6458,-2.714,-2.7597,-2.7702,-2.8118,-2.8514,-2.8837,-2.9296,-2.9665,-2.997,-3.0463,-3.0704,-3.0776,-3.0998,-3.1088,-3.1141,-3.1321,-3.1631,-3.2043,-3.2433,-3.3129,-3.4139,-3.4697,-3.5375,-3.6107,-3.6593,-3.7095,-3.7667,-3.856,-3.9328,-3.9994,-4.0924,-4.1877,-4.2364,-4.249,-4.249,-4.249,-4.249,-4.249,-4.253,-4.2548,-4.2663,-4.2663,-4.3062,-4.3484,-4.3866,-4.418,-4.4708,-4.5399,-4.5725,-4.5793,-4.6065,-4.6499,-4.6946,-4.7488,-4.7355,-4.7042,-4.7258,-4.7428,-4.7301,-1.2803,-1.3074,-1.3467,-1.3952,-1.443,-1.4926,-1.5457,-1.6032,-1.662,-1.7073,-1.7557,-1.8082,-1.8514,-1.8898,-1.9472,-1.9833,-2.015,-2.0527,-2.0876,-2.1215,-2.1497,-2.1708,-2.1882,-2.1986,-2.2158,-2.2405,-2.2542,-2.2596,-2.2605,-2.2685,-2.2764,-2.285,-2.2876,-2.2952,-2.3095,-2.3095,-2.3119,-2.3119,-2.3119,-2.3119,-2.3119,-2.3168,-2.3228,-2.3287,-2.3353,-2.3478,-2.3508,-2.3513,-2.3939,-2.4676,-2.4784,-2.5189,-2.5942,-2.6738,-2.7187,-2.7277,-2.7905,-2.8308,-2.8344,-2.8389,-2.8802,-2.9322,-2.9619,-3.0094,-3.0621,-3.0861,-3.0921,-3.1017,-3.138,-3.1706,-3.1813,-3.2349,-3.2626,-3.2295,-3.3216,-3.4028,-3.4569,-3.5592,-3.6755,-3.7274,-3.747,-3.7577,-3.7898,-3.8808,-3.9718,-4.0235,-4.1274,-4.2203,-4.2292,-4.2369,-4.2328,-4.2417,-4.256,-4.2708,-4.2524,-4.2399,-4.2557,-4.2745,-4.3288,-4.376,-4.4237,-4.4602,-4.5418,-4.6091,-4.6344,-4.647,-4.6663,-4.7042,-4.7071,-4.7407,-4.7363,-4.7363,-4.7407,-4.7407,-4.7363,-1.318,-1.3457,-1.3847,-1.4233,-1.4651,-1.5153,-1.5691,-1.6188,-1.6705,-1.717,-1.7679,-1.8187,-1.8655,-1.9147,-1.9654,-2.0096,-2.0392,-2.0695,-2.0958,-2.123,-2.1511,-2.1738,-2.1915,-2.2077,-2.2237,-2.246,-2.2569,-2.2649,-2.2659,-2.2703,-2.2755,-2.2816,-2.2893,-2.2927,-2.3045,-2.307,-2.3119,-2.3119,-2.3119,-2.3119,-2.3119,-2.3119,-2.339,-2.389,-2.3978,-2.4239,-2.4784,-2.441,-2.4566,-2.5319,-2.5354,-2.5691,-2.6499,-2.7308,-2.7735,-2.7771,-2.7949,-2.8109,-2.818,-2.8607,-2.8963,-2.9425,-3.0243,-3.0924,-3.1311,-3.1706,-3.1955,-3.1991,-3.2207,-3.2299,-3.2474,-3.3027,-3.3377,-3.3315,-3.3746,-3.4565,-3.5508,-3.6542,-3.7256,-3.7542,-3.7577,-3.7809,-3.8362,-3.9198,-3.9818,-4.0628,-4.1627,-4.2269,-4.2287,-4.2341,-4.259,-4.2965,-4.3072,-4.3251,-4.3358,-4.3411,-4.3471,-4.3537,-4.3847,-4.4289,-4.4671,-4.5312,-4.6128,-4.6603,-4.6873,-4.7029,-4.7299,-4.7363,-4.732,-4.7302,-4.732,-4.732,-4.732,-4.7276,-4.7276,-1.3563,-1.3847,-1.4186,-1.4558,-1.4983,-1.5468,-1.5957,-1.6436,-1.6905,-1.7406,-1.7922,-1.8397,-1.886,-1.9295,-1.9777,-2.015,-2.0527,-2.0844,-2.1087,-2.1294,-2.1573,-2.1797,-2.1957,-2.2209,-2.2394,-2.2515,-2.2623,-2.2659,-2.2712,-2.2712,-2.2755,-2.2816,-2.285,-2.2927,-2.2995,-2.307,-2.3119,-2.3119,-2.3119,-2.3119,-2.319,-2.34,-2.3786,-2.4269,-2.4541,-2.5112,-2.5789,-2.5491,-2.5508,-2.5994,-2.6322,-2.6747,-2.7242,-2.7731,-2.7996,-2.7996,-2.8014,-2.8103,-2.8393,-2.8835,-2.9437,-3.0039,-3.0942,-3.1614,-3.188,-3.2411,-3.257,-3.2588,-3.257,-3.2588,-3.2694,-3.3332,-3.388,-3.4199,-3.4571,-3.5279,-3.6486,-3.7127,-3.7431,-3.7537,-3.7769,-3.816,-3.8549,-3.9473,-4.0042,-4.1011,-4.1747,-4.2269,-4.2358,-4.2573,-4.3036,-4.35,-4.3732,-4.4018,-4.4428,-4.4517,-4.4517,-4.4525,-4.4507,-4.4915,-4.5323,-4.6029,-4.6791,-4.6924,-4.7165,-4.7122,-4.7294,-4.7312,-4.7249,-4.7249,-4.7187,-4.7143,-4.716,-4.716,-4.716,-1.3999,-1.4222,-1.4523,-1.4903,-1.5345,-1.578,-1.625,-1.6723,-1.7227,-1.772,-1.8175,-1.8606,-1.9011,-1.9413,-1.9848,-2.0235,-2.0561,-2.0925,-2.1214,-2.1402,-2.1648,-2.1857,-2.2073,-2.2332,-2.2515,-2.2596,-2.2659,-2.2712,-2.2712,-2.2712,-2.2738,-2.2816,-2.2868,-2.2944,-2.2995,-2.307,-2.3119,-2.3119,-2.319,-2.326,-2.3295,-2.3962,-2.4462,-2.4559,-2.5173,-2.584,-2.6525,-2.6578,-2.6651,-2.6932,-2.7427,-2.7727,-2.7933,-2.7968,-2.7968,-2.7957,-2.8003,-2.8399,-2.8894,-2.9294,-2.9859,-3.1023,-3.1394,-3.1794,-3.2345,-3.2453,-3.2506,-3.2539,-3.2645,-3.2714,-3.2855,-3.3598,-3.4306,-3.4905,-3.5613,-3.6374,-3.712,-3.7279,-3.7388,-3.7565,-3.804,-3.8589,-3.873,-3.9916,-4.0577,-4.1174,-4.173,-4.2074,-4.2489,-4.2863,-4.3387,-4.3886,-4.4377,-4.4743,-4.5187,-4.5392,-4.541,-4.5472,-4.5427,-4.5543,-4.5783,-4.6418,-4.6981,-4.7178,-4.7276,-4.7249,-4.7205,-4.7178,-4.7133,-4.7116,-4.707,-4.6998,-4.7025,-4.707,-4.707,-1.4373,-1.4616,-1.488,-1.5198,-1.5558,-1.5957,-1.6405,-1.6863,-1.7323,-1.776,-1.8228,-1.8683,-1.9087,-1.9493,-1.9975,-2.0407,-2.0728,-2.1038,-2.131,-2.1542,-2.1751,-2.2032,-2.226,-2.2415,-2.2525,-2.2605,-2.2676,-2.2712,-2.2712,-2.2712,-2.2738,-2.279,-2.2868,-2.2944,-2.2995,-2.3105,-2.3095,-2.3207,-2.3734,-2.3962,-2.4085,-2.4717,-2.5419,-2.5998,-2.6174,-2.6648,-2.7332,-2.7379,-2.7379,-2.7461,-2.7619,-2.776,-2.7789,-2.7806,-2.7824,-2.79,-2.8298,-2.8654,-2.9026,-2.9852,-3.0606,-3.1025,-3.1602,-3.2057,-3.2197,-3.2249,-3.2249,-3.2371,-3.2774,-3.3196,-3.3442,-3.4445,-3.5445,-3.6292,-3.6576,-3.6882,-3.7094,-3.7276,-3.7491,-3.8001,-3.8302,-3.8974,-3.9787,-4.03,-4.0831,-4.1474,-4.1835,-4.2154,-4.2665,-4.3116,-4.3561,-4.4556,-4.5166,-4.5567,-4.5886,-4.6156,-4.6326,-4.6397,-4.6318,-4.6177,-4.6311,-4.6489,-4.6829,-4.707,-4.7116,-4.7116,-4.707,-4.7043,-4.6998,-4.6998,-4.6998,-4.6998,-4.6998,-4.7025,-4.7025,-1.4743,-1.4971,-1.5198,-1.5513,-1.5869,-1.6318,-1.6735,-1.7157,-1.7557,-1.7975,-1.8425,-1.8798,-1.9199,-1.9603,-2.008,-2.046,-2.0794,-2.1087,-2.1373,-2.1603,-2.184,-2.2118,-2.2388,-2.2487,-2.2552,-2.2632,-2.2685,-2.2712,-2.2712,-2.2712,-2.2764,-2.2816,-2.2893,-2.2952,-2.3055,-2.342,-2.3593,-2.3751,-2.4331,-2.4752,-2.4805,-2.5507,-2.6051,-2.663,-2.6858,-2.7315,-2.7624,-2.76,-2.763,-2.7672,-2.7672,-2.7642,-2.7659,-2.7659,-2.7799,-2.8049,-2.8512,-2.8952,-2.9669,-3.0489,-3.1029,-3.1377,-3.1864,-3.2056,-3.2108,-3.2126,-3.2161,-3.2667,-3.3068,-3.3471,-3.4014,-3.5014,-3.6015,-3.6685,-3.7009,-3.7048,-3.7048,-3.7404,-3.7778,-3.8272,-3.8889,-3.9541,-4.0623,-4.0722,-4.1205,-4.1672,-4.1796,-4.2316,-4.2873,-4.3306,-4.3926,-4.4979,-4.5711,-4.6029,-4.6165,-4.6383,-4.6482,-4.6607,-4.6635,-4.6585,-4.6631,-4.6595,-4.6801,-4.6998,-4.6998,-4.6998,-4.698,-4.698,-4.6998,-4.6998,-4.6998,-4.6998,-4.6998,-4.6934,-4.6934,-1.5108,-1.5402,-1.5558,-1.5856,-1.6275,-1.6718,-1.7115,-1.7516,-1.7882,-1.824,-1.8697,-1.9003,-1.9362,-1.9762,-2.0166,-2.0509,-2.0827,-2.1151,-2.1433,-2.1678,-2.1899,-2.2158,-2.246,-2.2487,-2.2552,-2.2659,-2.2712,-2.2712,-2.2738,-2.2764,-2.2816,-2.2868,-2.297,-2.3107,-2.3342,-2.3884,-2.4286,-2.4506,-2.5138,-2.5507,-2.5682,-2.6279,-2.6753,-2.6894,-2.7315,-2.7549,-2.7617,-2.7674,-2.7792,-2.7794,-2.7682,-2.7657,-2.7692,-2.7727,-2.8062,-2.8644,-2.8992,-2.9586,-3.0577,-3.089,-3.1272,-3.1828,-3.1985,-3.2073,-3.2072,-3.2176,-3.2506,-3.301,-3.3323,-3.3984,-3.4739,-3.5479,-3.6094,-3.6741,-3.6961,-3.7128,-3.7216,-3.769,-3.8146,-3.8392,-3.9691,-4.0323,-4.0762,-4.1113,-4.1631,-4.1683,-4.1974,-4.2591,-4.3253,-4.3907,-4.4534,-4.537,-4.597,-4.6411,-4.6459,-4.6507,-4.6537,-4.6602,-4.6584,-4.6607,-4.6735,-4.6781,-4.688,-4.698,-4.6998,-4.6934,-4.6934,-4.6934,-4.6934,-4.6888,-4.6842,-4.6888,-4.6934,-4.6888,-4.6824,-1.548,-1.5869,-1.5901,-1.6163,-1.6595,-1.6863,-1.724,-1.7679,-1.8016,-1.8411,-1.8798,-1.9191,-1.9545,-1.9919,-2.0235,-2.0561,-2.0877,-2.1214,-2.1526,-2.1882,-2.194,-2.2186,-2.2443,-2.2487,-2.2579,-2.2685,-2.2712,-2.2738,-2.2764,-2.279,-2.2868,-2.2944,-2.303,-2.3342,-2.3954,-2.4208,-2.4611,-2.5173,-2.5946,-2.6314,-2.6455,-2.6999,-2.7403,-2.742,-2.7596,-2.7642,-2.7757,-2.8115,-2.838,-2.8258,-2.7944,-2.7896,-2.8279,-2.8383,-2.8766,-2.9412,-2.9988,-3.0439,-3.0855,-3.1304,-3.1649,-3.1804,-3.1962,-3.1856,-3.1908,-3.2461,-3.281,-3.3315,-3.4185,-3.5109,-3.5861,-3.6284,-3.6568,-3.683,-3.733,-3.7743,-3.7854,-3.8018,-3.869,-3.9621,-4.0217,-4.0709,-4.1253,-4.1376,-4.1622,-4.1719,-4.2211,-4.2861,-4.3656,-4.4406,-4.5076,-4.5734,-4.6051,-4.6385,-4.6368,-4.6398,-4.6447,-4.6495,-4.6459,-4.6459,-4.6637,-4.6795,-4.6795,-4.6888,-4.6934,-4.6934,-4.6824,-4.6842,-4.6795,-4.6749,-4.6684,-4.6731,-4.6731,-4.6731,-4.6731,-1.6053,-1.6175,-1.6207,-1.6466,-1.6863,-1.7157,-1.7488,-1.7935,-1.8254,-1.8606,-1.8936,-1.9288,-1.9654,-2.0025,-2.0304,-2.0628,-2.0942,-2.1324,-2.1661,-2.194,-2.2073,-2.2248,-2.2443,-2.2515,-2.2569,-2.2685,-2.2712,-2.2738,-2.279,-2.2842,-2.2893,-2.2995,-2.3045,-2.3498,-2.4278,-2.4611,-2.5243,-2.5963,-2.67,-2.7122,-2.721,-2.7455,-2.7701,-2.7701,-2.7719,-2.7782,-2.8115,-2.8397,-2.8719,-2.8843,-2.8655,-2.8618,-2.8947,-2.9069,-2.9467,-3.0144,-3.0508,-3.0974,-3.1267,-3.1578,-3.1783,-3.1834,-3.2093,-3.2265,-3.249,-3.3007,-3.3667,-3.412,-3.4812,-3.5613,-3.6381,-3.6596,-3.67,-3.7182,-3.7648,-3.8238,-3.8874,-3.9133,-3.9445,-4.0375,-4.0779,-4.1148,-4.1481,-4.1569,-4.1955,-4.2148,-4.2377,-4.3044,-4.4197,-4.4912,-4.5369,-4.5848,-4.6046,-4.6239,-4.6221,-4.627,-4.6319,-4.635,-4.6332,-4.6332,-4.6398,-4.6495,-4.6637,-4.6684,-4.6778,-4.676,-4.6713,-4.6684,-4.6702,-4.6637,-4.6637,-4.659,-4.659,-4.6637,-4.6637,-1.6712,-1.6436,-1.6522,-1.6778,-1.7115,-1.7447,-1.7814,-1.8242,-1.8542,-1.8836,-1.9176,-1.9457,-1.9797,-2.0096,-2.0392,-2.0679,-2.1055,-2.1448,-2.1811,-2.1998,-2.2135,-2.2293,-2.246,-2.2515,-2.2596,-2.2685,-2.2712,-2.2764,-2.2799,-2.2876,-2.297,-2.3003,-2.307,-2.3664,-2.4418,-2.505,-2.5805,-2.67,-2.728,-2.7578,-2.7613,-2.7683,-2.7736,-2.7982,-2.7999,-2.8277,-2.8711,-2.9012,-2.9242,-2.9679,-2.9782,-2.9868,-2.9886,-2.9851,-3.011,-3.0782,-3.0973,-3.1215,-3.161,-3.1903,-3.2059,-3.2007,-3.2662,-3.3041,-3.3248,-3.3783,-3.4387,-3.4887,-3.5411,-3.5825,-3.637,-3.6688,-3.7093,-3.7663,-3.8086,-3.8928,-3.994,-4.0464,-4.0656,-4.0727,-4.1113,-4.1446,-4.1534,-4.1622,-4.2148,-4.2622,-4.2868,-4.3377,-4.4501,-4.5308,-4.573,-4.594,-4.6151,-4.6189,-4.6221,-4.6221,-4.627,-4.627,-4.6204,-4.6204,-4.6221,-4.6301,-4.6447,-4.6525,-4.6572,-4.6572,-4.6572,-4.656,-4.656,-4.6542,-4.6495,-4.6447,-4.6495,-4.6542,-4.6542,-1.6935,-1.6663,-1.6833,-1.7115,-1.7434,-1.7787,-1.8135,-1.8478,-1.8788,-1.9078,-1.9376,-1.9741,-2.0061,-2.0339,-2.0644,-2.0958,-2.1293,-2.1631,-2.1869,-2.2044,-2.2192,-2.2366,-2.2487,-2.2552,-2.2632,-2.2764,-2.279,-2.2842,-2.2876,-2.2927,-2.302,-2.3052,-2.3147,-2.3804,-2.4822,-2.5437,-2.6174,-2.7192,-2.7596,-2.7683,-2.7701,-2.7806,-2.807,-2.8526,-2.8631,-2.9012,-2.96,-3.0142,-3.0525,-3.0559,-3.1076,-3.13,-3.1215,-3.0818,-3.0955,-3.1334,-3.1576,-3.1748,-3.1938,-3.2421,-3.2662,-3.2886,-3.3438,-3.3852,-3.4059,-3.4559,-3.5111,-3.5421,-3.5904,-3.6422,-3.718,-3.7344,-3.7767,-3.8477,-3.9172,-3.9791,-4.0359,-4.0867,-4.1288,-4.1288,-4.1481,-4.1604,-4.1622,-4.1815,-4.2359,-4.2991,-4.3518,-4.4044,-4.4975,-4.5624,-4.6046,-4.6151,-4.6154,-4.6189,-4.6189,-4.6189,-4.6239,-4.6239,-4.6221,-4.6221,-4.6221,-4.6221,-4.627,-4.6398,-4.6477,-4.6477,-4.6495,-4.6464,-4.6416,-4.6368,-4.6319,-4.627,-4.6319,-4.6368,-4.6319,-1.7702,-1.7411,-1.7271,-1.7391,-1.7733,-1.8042,-1.8344,-1.8683,-1.9055,-1.9339,-1.9632,-1.9955,-2.0235,-2.046,-2.0712,-2.1071,-2.1464,-2.1751,-2.1882,-2.2044,-2.2248,-2.2405,-2.2515,-2.2605,-2.2712,-2.279,-2.2868,-2.2919,-2.297,-2.2995,-2.3063,-2.32,-2.347,-2.4295,-2.5261,-2.5875,-2.6595,-2.7508,-2.7701,-2.7701,-2.7789,-2.8035,-2.8561,-2.886,-2.9337,-2.9799,-3.0314,-3.0646,-3.1028,-3.125,-3.1593,-3.1765,-3.18,-3.1869,-3.18,-3.1903,-3.2162,-3.2369,-3.249,-3.3059,-3.349,-3.3611,-3.4231,-3.4611,-3.4835,-3.5301,-3.5887,-3.6335,-3.6594,-3.7215,-3.7956,-3.813,-3.8589,-3.9222,-3.9894,-4.0376,-4.0814,-4.1288,-4.149,-4.1604,-4.1604,-4.1622,-4.1692,-4.2026,-4.2587,-4.3272,-4.4009,-4.4746,-4.5484,-4.587,-4.6189,-4.6189,-4.6189,-4.6189,-4.6189,-4.6189,-4.6189,-4.6189,-4.6189,-4.6189,-4.6189,-4.6189,-4.6221,-4.6253,-4.635,-4.6398,-4.6368,-4.6337,-4.6288,-4.6239,-4.6239,-4.6239,-4.6239,-4.6189,-4.6189,-1.8487,-1.8122,-1.7684,-1.7679,-1.7989,-1.8293,-1.8577,-1.8936,-1.9302,-1.9581,-1.9833,-2.015,-2.0441,-2.0628,-2.0909,-2.1261,-2.165,-2.184,-2.1969,-2.2101,-2.2304,-2.2443,-2.2552,-2.2659,-2.2764,-2.2868,-2.297,-2.302,-2.302,-2.302,-2.3157,-2.348,-2.405,-2.4787,-2.5612,-2.6244,-2.7016,-2.7473,-2.7701,-2.7736,-2.807,-2.8526,-2.9105,-2.9334,-3.0001,-3.0569,-3.1081,-3.122,-3.1393,-3.1649,-3.18,-3.1886,-3.2093,-3.2576,-3.2679,-3.2455,-3.2835,-3.3059,-3.3317,-3.3852,-3.43,-3.4335,-3.5007,-3.5318,-3.5594,-3.6077,-3.6784,-3.7396,-3.7724,-3.8096,-3.8797,-3.8997,-3.9458,-4.0023,-4.0436,-4.0744,-4.1173,-4.148,-4.1569,-4.1604,-4.1604,-4.1674,-4.178,-4.2236,-4.2816,-4.3553,-4.429,-4.508,-4.5747,-4.5975,-4.6189,-4.6189,-4.6189,-4.6189,-4.6189,-4.6189,-4.6189,-4.6189,-4.6189,-4.6189,-4.6189,-4.6189,-4.6221,-4.6221,-4.6221,-4.627,-4.6239,-4.6189,-4.6239,-4.6239,-4.6189,-4.6189,-4.6189,-4.6189,-4.6189,-1.8777,-1.8355,-1.7989,-1.8029,-1.8279,-1.8577,-1.8936,-1.9265,-1.9545,-1.9797,-2.0065,-2.0342,-2.0595,-2.0827,-2.1166,-2.1509,-2.1751,-2.1928,-2.2089,-2.222,-2.2415,-2.2552,-2.2659,-2.2747,-2.285,-2.2952,-2.307,-2.3045,-2.314,-2.3165,-2.3488,-2.4005,-2.4339,-2.4989,-2.6237,-2.6658,-2.6981,-2.7578,-2.7719,-2.807,-2.8631,-2.8912,-2.9702,-3.0492,-3.1019,-3.1303,-3.1742,-3.1794,-3.188,-3.1768,-3.1817,-3.2145,-3.2645,-3.2835,-3.33,-3.3611,-3.3904,-3.3973,-3.4076,-3.4628,-3.5059,-3.518,-3.568,-3.6077,-3.6412,-3.6895,-3.7482,-3.7646,-3.8252,-3.898,-3.9658,-3.9894,-4.0418,-4.0812,-4.1119,-4.1261,-4.1533,-4.1577,-4.1622,-4.185,-4.1938,-4.1885,-4.1903,-4.2464,-4.3061,-4.3816,-4.4589,-4.5378,-4.5923,-4.6084,-4.6189,-4.6189,-4.6189,-4.6189,-4.6189,-4.6189,-4.6207,-4.6207,-4.6207,-4.6207,-4.6189,-4.6189,-4.6189,-4.6239,-4.6189,-4.6189,-4.6189,-4.6189,-4.6189,-4.6189,-4.6189,-4.6189,-4.6189,-4.6189,-4.6189,-1.932,-1.8997,-1.8399,-1.824,-1.85,-1.8836,-1.9139,-1.9435,-1.9726,-2.001,-2.0273,-2.0561,-2.086,-2.1166,-2.1479,-2.1721,-2.1869,-2.2061,-2.2209,-2.2338,-2.2515,-2.2649,-2.2729,-2.2825,-2.2952,-2.308,-2.3172,-2.3527,-2.3545,-2.3492,-2.3622,-2.4406,-2.4882,-2.557,-2.676,-2.7155,-2.749,-2.7848,-2.817,-2.8544,-2.9035,-2.972,-3.0492,-3.1194,-3.1616,-3.1951,-3.2074,-3.2108,-3.2037,-3.1979,-3.213,-3.2541,-3.3076,-3.3662,-3.4404,-3.4645,-3.5128,-3.5128,-3.4887,-3.5439,-3.568,-3.5835,-3.6146,-3.6498,-3.7059,-3.775,-3.8529,-3.9033,-3.9355,-3.9877,-4.0495,-4.0749,-4.0986,-4.1276,-4.1488,-4.1533,-4.1577,-4.1639,-4.171,-4.2008,-4.2324,-4.2464,-4.264,-4.3131,-4.3746,-4.4378,-4.5062,-4.5747,-4.6032,-4.6119,-4.6189,-4.6189,-4.6189,-4.6189,-4.6189,-4.6189,-4.6291,-4.6309,-4.6344,-4.6277,-4.6207,-4.6189,-4.6417,-4.633,-4.6224,-4.6207,-4.6224,-4.6189,-4.6189,-4.6189,-4.6189,-4.6189,-4.6189,-4.6189,-4.6189,-1.9633,-1.9494,-1.871,-1.85,-1.8731,-1.9087,-1.9347,-1.9654,-1.9975,-2.0254,-2.0561,-2.086,-2.1214,-2.1479,-2.1721,-2.1899,-2.2003,-2.2237,-2.2349,-2.246,-2.2579,-2.2712,-2.2816,-2.2952,-2.3175,-2.3443,-2.3647,-2.4067,-2.4435,-2.4417,-2.447,-2.5047,-2.5658,-2.633,-2.702,-2.7575,-2.7953,-2.8264,-2.889,-2.9316,-2.972,-3.058,-3.1142,-3.1616,-3.2019,-3.2371,-3.2232,-3.2387,-3.235,-3.2379,-3.2855,-3.3317,-3.3766,-3.4473,-3.5128,-3.5439,-3.587,-3.5887,-3.5714,-3.5904,-3.6232,-3.6353,-3.6628,-3.7051,-3.7819,-3.8651,-3.925,-3.9869,-4.0314,-4.068,-4.1143,-4.1373,-4.1373,-4.1418,-4.1515,-4.156,-4.1692,-4.1938,-4.2166,-4.2412,-4.2868,-4.3535,-4.3746,-4.4044,-4.4501,-4.5027,-4.5589,-4.6084,-4.6189,-4.6189,-4.6189,-4.6189,-4.6224,-4.6242,-4.6259,-4.6259,-4.6344,-4.6572,-4.6607,-4.6783,-4.6908,-4.7029,-4.7204,-4.6958,-4.6575,-4.6607,-4.68,-4.652,-4.6189,-4.6189,-4.6189,-4.6189,-4.6189,-4.6189,-4.6189,-1.9473,-1.9429,-1.886,-1.8784,-1.9087,-1.9384,-1.9654,-1.999,-2.0254,-2.0579,-2.0942,-2.1309,-2.1587,-2.1797,-2.1928,-2.2089,-2.2265,-2.2349,-2.2556,-2.2674,-2.2746,-2.3016,-2.3206,-2.3455,-2.3661,-2.4247,-2.4428,-2.4928,-2.5511,-2.5572,-2.593,-2.6579,-2.6526,-2.7146,-2.7766,-2.8244,-2.8582,-2.8999,-2.9628,-3.0331,-3.0668,-3.1212,-3.1563,-3.2125,-3.2335,-3.2354,-3.2267,-3.2737,-3.3099,-3.3023,-3.3671,-3.4197,-3.4628,-3.5111,-3.5594,-3.599,-3.6146,-3.6232,-3.6301,-3.6232,-3.6284,-3.6525,-3.706,-3.7862,-3.8563,-3.9351,-3.9891,-4.0234,-4.076,-4.1181,-4.148,-4.156,-4.1577,-4.1815,-4.192,-4.2043,-4.2219,-4.2587,-4.278,-4.2921,-4.343,-4.4167,-4.4676,-4.494,-4.501,-4.5466,-4.5712,-4.6189,-4.6189,-4.6189,-4.6189,-4.6207,-4.6309,-4.6362,-4.6365,-4.6607,-4.7151,-4.7415,-4.752,-4.7801,-4.8099,-4.8117,-4.7836,-4.7836,-4.7573,-4.745,-4.7274,-4.7116,-4.6803,-4.6365,-4.6189,-4.6189,-4.6189,-4.6189,-4.614,-1.9393,-1.9243,-1.9188,-1.9221,-1.9384,-1.9588,-1.9909,-2.0254,-2.0561,-2.0909,-2.134,-2.1617,-2.1811,-2.1986,-2.2135,-2.2276,-2.2432,-2.2542,-2.2942,-2.3352,-2.3606,-2.3973,-2.4295,-2.4566,-2.4933,-2.5197,-2.5362,-2.5768,-2.6453,-2.6532,-2.7023,-2.7326,-2.7245,-2.7842,-2.8447,-2.9154,-2.9543,-2.9823,-3.0413,-3.1014,-3.1177,-3.1739,-3.209,-3.2335,-3.2406,-3.2669,-3.2949,-3.3175,-3.3522,-3.3966,-3.4545,-3.4967,-3.5266,-3.5594,-3.5939,-3.6266,-3.6318,-3.6559,-3.6801,-3.6663,-3.6508,-3.7249,-3.8094,-3.9002,-3.9392,-4.0186,-4.0659,-4.1004,-4.1181,-4.1515,-4.1595,-4.1639,-4.171,-4.2132,-4.2414,-4.2545,-4.2816,-4.3202,-4.3605,-4.3816,-4.4308,-4.494,-4.5378,-4.5782,-4.58,-4.587,-4.6032,-4.6189,-4.6189,-4.6242,-4.6259,-4.6502,-4.6607,-4.6888,-4.6993,-4.7485,-4.8064,-4.824,-4.8398,-4.8679,-4.8907,-4.8503,-4.8293,-4.8398,-4.8468,-4.8222,-4.8012,-4.7836,-4.7397,-4.6713,-4.633,-4.6189,-4.6189,-4.614,-4.6023,-1.9339,-1.925,-1.9479,-1.9573,-1.9624,-1.9839,-2.0135,-2.0494,-2.0794,-2.1183,-2.1694,-2.1857,-2.2032,-2.2237,-2.266,-2.2846,-2.3076,-2.3402,-2.3856,-2.4224,-2.4576,-2.4989,-2.5368,-2.5623,-2.5691,-2.6027,-2.6231,-2.6577,-2.7335,-2.7353,-2.7825,-2.8146,-2.812,-2.862,-2.9198,-3.0309,-3.0685,-3.0804,-3.1253,-3.1643,-3.1702,-3.2071,-3.2581,-3.2704,-3.2809,-3.3196,-3.3721,-3.4104,-3.4396,-3.4805,-3.5243,-3.5596,-3.5773,-3.5956,-3.6232,-3.637,-3.6594,-3.6939,-3.718,-3.7353,-3.7335,-3.8249,-3.8922,-3.9675,-4.0268,-4.0793,-4.1059,-4.1248,-4.1453,-4.1665,-4.1805,-4.2078,-4.2404,-4.2871,-4.3072,-4.3237,-4.3588,-4.3957,-4.4395,-4.4764,-4.5238,-4.5624,-4.594,-4.6291,-4.6344,-4.6239,-4.6084,-4.6189,-4.6189,-4.6259,-4.6432,-4.6695,-4.7029,-4.738,-4.7748,-4.8345,-4.8889,-4.9047,-4.9223,-4.9434,-4.9486,-4.9135,-4.9135,-4.9469,-4.9416,-4.9012,-4.8696,-4.8451,-4.7713,-4.6853,-4.6558,-4.6365,-4.614,-4.609,-4.5972,-1.9265,-1.9515,-1.9732,-1.9788,-1.9874,-2.015,-2.0426,-2.0744,-2.1023,-2.1433,-2.1915,-2.2135,-2.2389,-2.2664,-2.3326,-2.3695,-2.4009,-2.4587,-2.5098,-2.5277,-2.5411,-2.5579,-2.5844,-2.6126,-2.6534,-2.6819,-2.7049,-2.7433,-2.8219,-2.8201,-2.8683,-2.9226,-2.9351,-2.9458,-2.9601,-3.0848,-3.1529,-3.1657,-3.2183,-3.2294,-3.2332,-3.244,-3.2862,-3.3178,-3.3441,-3.3863,-3.4547,-3.4979,-3.5269,-3.5553,-3.5954,-3.6201,-3.6163,-3.6318,-3.6456,-3.6473,-3.7111,-3.7473,-3.7577,-3.8163,-3.8801,-3.9267,-3.9681,-4.0077,-4.0676,-4.1081,-4.1279,-4.1522,-4.166,-4.2048,-4.2437,-4.2816,-4.3195,-4.3627,-4.3827,-4.4115,-4.4466,-4.4699,-4.5185,-4.5396,-4.5817,-4.6189,-4.6502,-4.673,-4.6818,-4.6677,-4.6295,-4.6259,-4.6452,-4.6663,-4.6993,-4.7309,-4.7731,-4.8117,-4.8591,-4.9223,-4.9679,-4.9837,-4.9978,-5.0118,-5.0294,-5.0224,-5.0346,-5.0575,-5.0259,-4.9732,-4.9381,-4.9047,-4.8346,-4.763,-4.6858,-4.6475,-4.6197,-4.6095,-4.6082,-1.9472,-1.9732,-2.005,-2.0273,-2.0392,-2.0509,-2.076,-2.1071,-2.1448,-2.1811,-2.2163,-2.2349,-2.2839,-2.3354,-2.3836,-2.4316,-2.4823,-2.5038,-2.5497,-2.6184,-2.6329,-2.6872,-2.7139,-2.7264,-2.7513,-2.7816,-2.7986,-2.8327,-2.9125,-2.9115,-2.9554,-3.0116,-3.063,-3.0903,-3.1189,-3.1943,-3.2446,-3.24,-3.2533,-3.2557,-3.2578,-3.2897,-3.3265,-3.3581,-3.4056,-3.4653,-3.5317,-3.5731,-3.5898,-3.6145,-3.6527,-3.6513,-3.6567,-3.6697,-3.7077,-3.7232,-3.7801,-3.8456,-3.8957,-3.9595,-3.9871,-4.0026,-4.0233,-4.0595,-4.0918,-4.1549,-4.1734,-4.202,-4.2387,-4.2865,-4.3325,-4.3471,-4.388,-4.4443,-4.4794,-4.5115,-4.5431,-4.5659,-4.5923,-4.594,-4.6154,-4.6677,-4.7029,-4.759,-4.7766,-4.7889,-4.7696,-4.7573,-4.7627,-4.7768,-4.8029,-4.8275,-4.8608,-4.8977,-4.9416,-4.9908,-5.0224,-5.0364,-5.0487,-5.0627,-5.082,-5.0891,-5.0855,-5.0733,-5.061,-5.0434,-4.9976,-4.9572,-4.9133,-4.8503,-4.7841,-4.73,-4.7126,-4.69,-4.6551,-1.9711,-2.003,-2.0342,-2.0628,-2.081,-2.0859,-2.1071,-2.145,-2.1811,-2.213,-2.2411,-2.2798,-2.3323,-2.3994,-2.4659,-2.5063,-2.5712,-2.6184,-2.647,-2.7134,-2.7289,-2.7665,-2.8049,-2.8318,-2.8165,-2.8452,-2.8766,-2.9143,-2.9521,-2.9872,-3.0438,-3.1135,-3.1816,-3.2232,-3.2523,-3.288,-3.283,-3.2805,-3.2885,-3.3085,-3.3229,-3.3547,-3.4073,-3.4442,-3.4881,-3.5387,-3.591,-3.6164,-3.6242,-3.6574,-3.6769,-3.6807,-3.6982,-3.7353,-3.7818,-3.806,-3.856,-3.9301,-4.0026,-4.0767,-4.0905,-4.0733,-4.1043,-4.1216,-4.1453,-4.2089,-4.2431,-4.2805,-4.3332,-4.3724,-4.4047,-4.416,-4.4558,-4.5168,-4.5501,-4.5835,-4.5874,-4.6116,-4.6186,-4.6239,-4.6713,-4.7151,-4.7678,-4.831,-4.8819,-4.8995,-4.9135,-4.896,-4.8731,-4.8731,-4.8837,-4.91,-4.9311,-4.9574,-4.996,-5.0417,-5.0697,-5.0873,-5.0891,-5.0891,-5.0891,-5.0891,-5.0891,-5.0891,-5.0696,-5.0482,-5.039,-5.0035,-4.9649,-4.9365,-4.9122,-4.8618,-4.8201,-4.7696,-4.719,-1.998,-2.0339,-2.0592,-2.0843,-2.1103,-2.1151,-2.1417,-2.1811,-2.2027,-2.2315,-2.2708,-2.3539,-2.4091,-2.4539,-2.583,-2.6483,-2.6704,-2.7462,-2.7769,-2.7994,-2.7995,-2.8237,-2.8317,-2.8424,-2.8558,-2.8792,-2.9134,-2.9638,-2.9827,-3.0718,-3.1474,-3.202,-3.2732,-3.3243,-3.3498,-3.3573,-3.338,-3.3529,-3.3663,-3.3809,-3.3935,-3.441,-3.4935,-3.5337,-3.5759,-3.6103,-3.6519,-3.6753,-3.6702,-3.6932,-3.7247,-3.7439,-3.7776,-3.8215,-3.8474,-3.887,-3.9457,-4.0233,-4.0853,-4.1595,-4.194,-4.1836,-4.2061,-4.2078,-4.2233,-4.2748,-4.3178,-4.34,-4.3759,-4.4272,-4.4666,-4.4956,-4.5215,-4.5632,-4.6028,-4.6119,-4.6119,-4.6189,-4.6291,-4.6607,-4.7309,-4.7871,-4.8503,-4.9135,-4.9644,-4.9802,-4.9872,-4.975,-4.9521,-4.9223,-4.9381,-4.975,-4.9943,-5.0118,-5.0469,-5.075,-5.0838,-5.0891,-5.0891,-5.0891,-5.0891,-5.0891,-5.0873,-5.0801,-5.0675,-5.053,-5.038,-5.0268,-5.0067,-4.9872,-4.9664,-4.9422,-4.8799,-4.828,-4.7862,-2.0154,-2.046,-2.0843,-2.1087,-2.1371,-2.1675,-2.1895,-2.2056,-2.2326,-2.2836,-2.3539,-2.399,-2.4812,-2.59,-2.6496,-2.7091,-2.7553,-2.7956,-2.8093,-2.8264,-2.8345,-2.838,-2.8495,-2.8619,-2.8879,-2.9339,-2.9817,-3.0432,-3.14,-3.2155,-3.2559,-3.3028,-3.3602,-3.406,-3.4336,-3.4518,-3.4557,-3.4545,-3.471,-3.4658,-3.4818,-3.5257,-3.5694,-3.5917,-3.6443,-3.6716,-3.6881,-3.7341,-3.7356,-3.7421,-3.7958,-3.8294,-3.8363,-3.8974,-3.9508,-4.0233,-4.0871,-4.1492,-4.175,-4.2388,-4.2837,-4.2957,-4.3251,-4.3249,-4.3301,-4.3525,-4.3991,-4.4128,-4.4386,-4.4886,-4.5194,-4.5451,-4.5656,-4.593,-4.6189,-4.6189,-4.6224,-4.64,-4.6523,-4.7415,-4.8099,-4.8731,-4.9346,-4.9872,-5.0346,-5.0522,-5.0557,-5.0399,-5.0241,-4.9943,-4.9872,-5.0224,-5.0382,-5.0504,-5.061,-5.0873,-5.0873,-5.0891,-5.0891,-5.0891,-5.0891,-5.0873,-5.0801,-5.0675,-5.0492,-5.0393,-5.0253,-5.0178,-5.0092,-5.0034,-4.9879,-4.9723,-4.9481,-4.8946,-4.8566,-2.0426,-2.0679,-2.1039,-2.1386,-2.1718,-2.2084,-2.2462,-2.2829,-2.3079,-2.3552,-2.4102,-2.4936,-2.5808,-2.6604,-2.7173,-2.7664,-2.8093,-2.8228,-2.8345,-2.8432,-2.8513,-2.8833,-2.8938,-2.917,-2.9668,-3.0166,-3.0765,-3.1402,-3.2418,-3.3309,-3.384,-3.3864,-3.4506,-3.4932,-3.528,-3.5643,-3.5985,-3.5917,-3.5794,-3.5545,-3.5685,-3.607,-3.6257,-3.6426,-3.704,-3.7259,-3.733,-3.7868,-3.8113,-3.8122,-3.8674,-3.9008,-3.925,-3.9974,-4.0681,-4.1419,-4.2002,-4.2334,-4.261,-4.318,-4.3525,-4.3836,-4.4268,-4.4406,-4.4389,-4.4509,-4.4665,-4.4768,-4.52,-4.5529,-4.5701,-4.5871,-4.6023,-4.6172,-4.6189,-4.6189,-4.6365,-4.6525,-4.7294,-4.824,-4.896,-4.9609,-5.0171,-5.0662,-5.0891,-5.082,-5.0785,-5.0733,-5.068,-5.0557,-5.0469,-5.0645,-5.0733,-5.082,-5.0891,-5.0891,-5.0836,-5.0891,-5.0891,-5.0891,-5.0873,-5.0747,-5.0657,-5.0492,-5.0324,-5.0241,-5.0138,-5.0103,-4.9993,-5.0011,-5.0011,-4.9873,-4.9752,-4.9579,-4.9304,-2.0679,-2.0958,-2.1324,-2.1718,-2.2141,-2.25,-2.3158,-2.4014,-2.4207,-2.4357,-2.4848,-2.6064,-2.6756,-2.7255,-2.7754,-2.8085,-2.8327,-2.8424,-2.8502,-2.8667,-2.8884,-2.9214,-2.9689,-3.0104,-3.0553,-3.1271,-3.1873,-3.2265,-3.2855,-3.3742,-3.4461,-3.4715,-3.5431,-3.593,-3.6247,-3.659,-3.6861,-3.697,-3.6612,-3.6217,-3.641,-3.6738,-3.7132,-3.7216,-3.7684,-3.8152,-3.8178,-3.8486,-3.8981,-3.9012,-3.9284,-3.9767,-4.0405,-4.0974,-4.1664,-4.2334,-4.2884,-4.3178,-4.3456,-4.3991,-4.4285,-4.4578,-4.4992,-4.513,-4.5113,-4.5079,-4.513,-4.5147,-4.5424,-4.5563,-4.5667,-4.5821,-4.5972,-4.6105,-4.6154,-4.6172,-4.6277,-4.6873,-4.796,-4.8872,-4.9609,-5.0206,-5.0487,-5.0891,-5.0891,-5.0891,-5.0891,-5.0891,-5.0891,-5.0891,-5.0891,-5.0891,-5.0819,-5.0819,-5.0819,-5.0764,-5.0782,-5.0836,-5.0836,-5.0782,-5.071,-5.062,-5.0474,-5.0324,-5.0246,-5.0149,-5.0068,-4.9993,-5.0011,-5.0011,-5.0011,-5.0011,-4.9959,-4.989,-4.9821,-2.0974,-2.123,-2.1735,-2.2096,-2.2511,-2.3305,-2.3867,-2.4375,-2.5676,-2.6136,-2.6286,-2.6748,-2.7326,-2.7933,-2.8165,-2.8406,-2.8528,-2.8536,-2.8637,-2.9003,-2.9307,-2.9806,-3.0221,-3.0863,-3.1422,-3.1936,-3.2484,-3.3149,-3.4011,-3.4606,-3.5084,-3.5566,-3.6258,-3.6808,-3.6838,-3.7163,-3.756,-3.7702,-3.7339,-3.7066,-3.7206,-3.7606,-3.7981,-3.8134,-3.8491,-3.8846,-3.9015,-3.9417,-3.9579,-3.9623,-4.0215,-4.0819,-4.144,-4.1836,-4.2302,-4.2921,-4.3594,-4.3939,-4.4216,-4.4682,-4.5079,-4.5165,-4.5389,-4.5406,-4.5423,-4.5441,-4.5458,-4.5458,-4.5423,-4.5528,-4.5615,-4.5718,-4.5854,-4.6005,-4.6207,-4.6242,-4.6344,-4.7452,-4.8627,-4.9451,-5.0206,-5.0557,-5.082,-5.0891,-5.0891,-5.0891,-5.0891,-5.0891,-5.0819,-5.0819,-5.0819,-5.0819,-5.0675,-5.0675,-5.0675,-5.0637,-5.0637,-5.0582,-5.0582,-5.0582,-5.0544,-5.0471,-5.0324,-5.0246,-5.0149,-5.0051,-4.9993,-4.9993,-5.0011,-5.0011,-5.0011,-5.0011,-5.0011,-4.9959,-4.9976,-2.1199,-2.1495,-2.2015,-2.2603,-2.3209,-2.384,-2.4594,-2.5552,-2.6569,-2.7227,-2.7557,-2.7681,-2.7967,-2.8414,-2.8492,-2.8623,-2.8717,-2.8687,-2.9095,-2.9515,-2.9984,-3.0638,-3.1139,-3.1696,-3.2375,-3.2936,-3.3479,-3.4227,-3.518,-3.5726,-3.6168,-3.6449,-3.7102,-3.7437,-3.7322,-3.7684,-3.8008,-3.813,-3.7925,-3.7987,-3.809,-3.8325,-3.8526,-3.8673,-3.9221,-3.9555,-3.9774,-4.0155,-4.0331,-4.0469,-4.0974,-4.1716,-4.2354,-4.2888,-4.3233,-4.3683,-4.4234,-4.4785,-4.4974,-4.5388,-4.5887,-4.5922,-4.6337,-4.6562,-4.6631,-4.6613,-4.601,-4.5941,-4.551,-4.5476,-4.5581,-4.5667,-4.577,-4.5905,-4.6593,-4.704,-4.7641,-4.8695,-4.9521,-5.0188,-5.0645,-5.0715,-5.0891,-5.0891,-5.0891,-5.0891,-5.0891,-5.0891,-5.0819,-5.0692,-5.0692,-5.0692,-5.0564,-5.0492,-5.0509,-5.0509,-5.0453,-5.0397,-5.0341,-5.0359,-5.0376,-5.0302,-5.0189,-5.0149,-5.0051,-5.0051,-5.0011,-5.0011,-5.0011,-5.0011,-5.0011,-5.0011,-5.0011,-5.0011,-5.0011,-2.1516,-2.1787,-2.2248,-2.3052,-2.3979,-2.4322,-2.5341,-2.6747,-2.7207,-2.7774,-2.8442,-2.8515,-2.8594,-2.8619,-2.8857,-2.8907,-2.9101,-2.9497,-2.9862,-3.0246,-3.0601,-3.1385,-3.217,-3.2865,-3.3405,-3.4026,-3.4688,-3.5373,-3.6211,-3.6583,-3.6921,-3.7326,-3.77,-3.8106,-3.8005,-3.8079,-3.8295,-3.8576,-3.8688,-3.9067,-3.9058,-3.8936,-3.9083,-3.9508,-4.0036,-4.0306,-4.0495,-4.0758,-4.1099,-4.1367,-4.1733,-4.2492,-4.313,-4.3699,-4.4182,-4.456,-4.5058,-4.5436,-4.5674,-4.6261,-4.6556,-4.6835,-4.7403,-4.7683,-4.7683,-4.7372,-4.6769,-4.6424,-4.5992,-4.5803,-4.5909,-4.5979,-4.6031,-4.6222,-4.7087,-4.7834,-4.8749,-4.9556,-5.0101,-5.0661,-5.0784,-5.0836,-5.0836,-5.0836,-5.0836,-5.0836,-5.0836,-5.0819,-5.0764,-5.0564,-5.0509,-5.0453,-5.0341,-5.0341,-5.0359,-5.0302,-5.0302,-5.0246,-5.0206,-5.0263,-5.0206,-5.0149,-5.0092,-5.0051,-5.0011,-5.0011,-5.0011,-5.0011,-5.0011,-4.9935,-5.0011,-5.0011,-5.0011,-5.0011,-4.9952,-2.2297,-2.2265,-2.2605,-2.331,-2.4252,-2.512,-2.6106,-2.71,-2.798,-2.8504,-2.8694,-2.8852,-2.8876,-2.8816,-2.957,-2.9856,-3.002,-3.0411,-3.0912,-3.1352,-3.1734,-3.2367,-3.2964,-3.3598,-3.4223,-3.4999,-3.5772,-3.645,-3.7021,-3.7228,-3.7517,-3.7998,-3.8005,-3.8178,-3.8096,-3.8349,-3.8833,-3.9111,-3.9434,-3.9792,-4.0259,-4.0246,-4.0172,-4.049,-4.0858,-4.1014,-4.1209,-4.1643,-4.1825,-4.2075,-4.2526,-4.3285,-4.3855,-4.4303,-4.4818,-4.5363,-4.5805,-4.6182,-4.6559,-4.7009,-4.7253,-4.7378,-4.7756,-4.7937,-4.7937,-4.7958,-4.7596,-4.7596,-4.7286,-4.7182,-4.7185,-4.7153,-4.7244,-4.7401,-4.7979,-4.8502,-4.9179,-4.9532,-4.9866,-5.023,-5.0509,-5.0526,-5.0526,-5.0526,-5.0526,-5.0582,-5.0582,-5.0582,-5.0582,-5.0453,-5.0324,-5.0228,-5.0189,-5.0189,-5.0189,-5.0149,-5.0109,-5.0109,-5.0109,-5.0109,-5.0109,-5.0068,-5.0011,-5.0011,-5.0011,-5.0011,-5.0011,-4.9935,-4.9935,-4.9935,-4.9935,-5.0011,-4.9993,-4.9935,-4.9877]}]]